Date StartTime U_cm/s V_cm/s W_cm/s Ustd_cm/s Vstd_cm/s Wstd_cm/s Uvar_(cm/s)^2 Vvar_(cm/s)^2 Wvar_(cm/s)^2 KE_(m/s)^2 TurbulentKE_(m/s)^2 HorizWindSpeed_cm/s FrictionSpeec_cm/s DragCoef SpeedOfSound_m/s SonicTemperature_C Pressure_mb 
07/24/2013  00:00:00      -13.591       23.226        7.676       38.584       23.617       14.011     1488.736      557.747      196.310        0.151        0.112       26.910       19.440        0.522      346.429       24.669      864.117
07/24/2013  00:01:00      -17.801       96.107       -7.539       22.069       30.514       17.204      487.023      931.096      295.982        0.566        0.086       97.741       13.650        0.020      346.446       24.700      864.103
07/24/2013  00:02:00      -80.713       68.590      -17.853       42.057       37.546       18.338     1768.751     1409.724      336.292        0.753        0.176      105.921       23.311        0.048      346.420       24.655      864.092
07/24/2013  00:03:00      -75.982      106.901      -26.578       30.426       36.515       26.700      925.747     1333.350      712.878        1.044        0.149      131.153       23.094        0.031      346.454       24.713      864.082
07/24/2013  00:04:00      -79.992       84.786      -12.557       42.176       31.955       16.044     1778.784     1021.141      257.413        0.840        0.153      116.565       12.895        0.012      346.385       24.594      864.065
07/24/2013  00:05:00      -92.769       84.387      -25.700       25.653       26.680       15.475      658.098      711.798      239.463        0.900        0.080      125.408       12.919        0.011      346.385       24.594      864.056
07/24/2013  00:06:00      -87.871       44.706      -19.809       38.747       43.022       22.992     1501.320     1850.933      528.625        0.700        0.194       98.590       25.421        0.066      346.348       24.530      864.046
07/24/2013  00:07:00      -71.490       87.503      -14.517       46.628       48.135       29.036     2174.190     2316.999      843.071        0.916        0.267      112.994       32.701        0.084      346.379       24.584      864.037
07/24/2013  00:08:00     -138.724      105.733      -28.138       46.870       49.768       26.378     2196.825     2476.809      695.813        1.829        0.268      174.424       24.412        0.020      346.374       24.574      864.034
07/24/2013  00:09:00     -129.199       55.113      -18.559       47.648       50.799       28.471     2270.360     2580.546      810.617        1.287        0.283      140.463       28.997        0.043      346.321       24.484      864.032
07/24/2013  00:10:00      -94.579       59.562      -11.142       21.108       32.878       20.389      445.552     1080.976      415.720        0.728        0.097      111.771       16.245        0.021      346.368       24.564      864.027
07/24/2013  00:11:00      -56.575       32.774       -7.939       31.348       34.929       23.903      982.675     1220.040      571.336        0.356        0.139       65.382       17.553        0.072      346.393       24.609      864.017
07/24/2013  00:12:00      -71.656       98.738      -17.356       22.870       53.392       22.398      523.022     2850.736      501.669        0.953        0.194      122.000       14.069        0.013      346.379       24.583      864.012
07/24/2013  00:13:00      -20.748       15.149       -8.091       18.655       33.475       11.557      348.001     1120.565      133.560        0.116        0.080       25.690       13.642        0.282      346.339       24.512      864.005
07/24/2013  00:14:00      -24.624       20.859       -9.731       28.738       18.853       14.564      825.867      355.440      212.099        0.126        0.070       32.271       12.830        0.158      346.378       24.582      863.992
07/24/2013  00:15:00      -28.017       26.302        4.662       24.982       23.753       19.762      624.078      564.224      390.526        0.154        0.079       38.428       12.106        0.099      346.311       24.468      863.977
07/24/2013  00:16:00      -26.660       36.212      -10.183       33.715       26.937       12.579     1136.695      725.608      158.233        0.207        0.101       44.967       10.800        0.058      346.318       24.479      863.971
07/24/2013  00:17:00      -67.940       10.796       -6.452       27.419       32.868       16.178      751.819     1080.313      261.722        0.343        0.105       68.792       17.666        0.066      346.361       24.553      863.974
07/24/2013  00:18:00      -56.249       34.157       -4.100       27.246       23.108       17.785      742.350      533.958      316.320        0.297        0.080       65.808        8.091        0.015      346.326       24.493      863.964
07/24/2013  00:19:00      -29.493        2.964       -4.844       12.217        9.969       10.189      149.265       99.389      103.821        0.063        0.018       29.642        5.934        0.040      346.357       24.548      863.955
07/24/2013  00:20:00      -65.634       14.237      -15.588       18.578       18.110       12.171      345.157      327.975      148.129        0.279        0.041       67.161       10.587        0.025      346.315       24.478      863.943
07/24/2013  00:21:00     -100.761        3.148       -8.392       26.707       29.842       19.207      713.241      890.559      368.907        0.610        0.099      100.810       17.066        0.029      346.308       24.464      863.925
07/24/2013  00:22:00      -63.200       10.536       -5.370       27.025       18.634       16.283      730.334      347.219      265.124        0.274        0.067       64.072       10.094        0.025      346.282       24.419      863.906
07/24/2013  00:23:00      -78.333       14.282       -8.312       29.251       18.980       13.461      855.638      360.223      181.185        0.390        0.070       79.624        9.230        0.013      346.315       24.474      863.894
07/24/2013  00:24:00      -64.573       44.655       -6.254       25.720       28.288       18.865      661.494      800.194      355.875        0.401        0.091       78.510       20.343        0.067      346.290       24.431      863.884
07/24/2013  00:25:00      -59.499       27.430       -1.160       19.220       17.716       13.979      369.401      313.853      195.404        0.259        0.044       65.517        8.311        0.016      346.182       24.246      863.871
07/24/2013  00:26:00      -65.906       53.567      -12.861       16.742       25.155       16.008      280.306      632.782      256.253        0.427        0.058       84.929       10.308        0.015      346.258       24.377      863.862
07/24/2013  00:27:00      -59.875       30.861      -13.234       21.081       25.384       11.845      444.402      644.333      140.308        0.297        0.061       67.360       12.905        0.037      346.260       24.381      863.846
07/24/2013  00:28:00      -36.195       37.839       -4.254       36.669       29.428       16.476     1344.603      866.015      271.460        0.262        0.124       52.363       21.403        0.167      346.214       24.300      863.827
07/24/2013  00:29:00      -28.291        9.812       -4.629       14.619       20.379        8.256      213.717      415.310       68.168        0.081        0.035       29.945        6.161        0.042      346.163       24.213      863.809
07/24/2013  00:30:00      -58.544      -27.149        0.006       30.397       21.782       15.417      923.988      474.441      237.682        0.290        0.082       64.533       10.487        0.026      346.196       24.269      863.789
07/24/2013  00:31:00      -27.259      -26.072        5.458       39.837       25.258       20.485     1587.025      637.961      419.637        0.205        0.132       37.720       21.238        0.317      346.151       24.192      863.765
07/24/2013  00:32:00      -66.490      -30.575       -0.240       20.880       20.853       11.919      435.955      434.851      142.063        0.318        0.051       73.183       10.621        0.021      346.127       24.149      863.747
07/24/2013  00:33:00      -70.124      -36.662        1.368       22.688       17.398       14.875      514.734      302.698      221.272        0.365        0.052       79.130       10.486        0.018      346.136       24.167      863.726
07/24/2013  00:34:00      -86.550      -63.901       -1.344       18.921       23.908       10.295      358.018      571.603      105.988        0.631        0.052      107.583        9.506        0.008      346.124       24.144      863.704
07/24/2013  00:35:00      -95.221      -58.347       -4.194       17.837       14.518       11.689      318.164      210.782      136.628        0.658        0.033      111.675        8.832        0.006      346.105       24.113      863.684
07/24/2013  00:36:00      -84.857      -31.669       -5.038       16.268       15.295       10.886      264.652      233.942      118.506        0.442        0.031       90.574        6.876        0.006      346.115       24.128      863.670
07/24/2013  00:37:00      -52.234      -10.327       -2.847       20.142       16.414       11.766      405.684      269.405      138.441        0.183        0.041       53.245        9.522        0.032      346.048       24.015      863.669
07/24/2013  00:38:00      -73.062      -22.816       -0.702       20.076       18.136       13.751      403.039      328.926      189.090        0.339        0.046       76.541        6.302        0.007      345.977       23.894      863.664
07/24/2013  00:39:00      -65.987       -9.728       -5.706       19.883       11.345        8.229      395.317      128.714       67.713        0.254        0.030       66.700        7.536        0.013      345.937       23.826      863.674
07/24/2013  00:40:00      -74.631      -43.334       -1.953       19.462       17.422       14.180      378.786      303.538      201.066        0.417        0.044       86.300       13.244        0.024      345.960       23.864      863.682
07/24/2013  00:41:00      -62.044      -56.802       -2.640       29.129       23.027       15.915      848.476      530.263      253.283        0.436        0.082       84.118       15.140        0.032      346.033       23.989      863.679
07/24/2013  00:42:00      -72.052      -70.248        4.122       35.552       27.314       22.394     1263.940      746.077      501.502        0.633        0.126      100.630       18.360        0.033      346.034       23.991      863.673
07/24/2013  00:43:00      -72.587      -54.205        1.720       36.515       24.721       19.818     1333.363      611.144      392.769        0.527        0.117       90.593       20.252        0.050      346.043       24.007      863.663
07/24/2013  00:44:00      -62.711      -52.970        1.158       49.471       30.873       25.224     2447.411      953.134      636.228        0.539        0.202       82.088       29.421        0.128      346.074       24.059      863.647
07/24/2013  00:45:00      -63.304      -43.534        3.306       42.955       26.268       22.161     1845.133      690.009      491.109        0.447        0.151       76.828       20.571        0.072      345.993       23.920      863.622
07/24/2013  00:46:00      -88.930      -65.616        5.950       40.797       30.673       24.707     1664.378      940.817      610.412        0.773        0.161      110.517       25.749        0.054      346.047       24.013      863.596
07/24/2013  00:47:00      -27.417      -38.104        9.089       34.684       31.657       24.113     1202.960     1002.154      581.427        0.254        0.139       46.942       23.533        0.251      346.038       23.998      863.579
07/24/2013  00:48:00      -38.801      -39.407       18.758       48.268       40.561       27.051     2329.800     1645.166      731.767        0.406        0.235       55.302       24.909        0.203      345.975       23.891      863.569
07/24/2013  00:49:00      -67.981      -62.633        6.019       44.904       32.088       25.198     2016.402     1029.613      634.919        0.613        0.184       92.436       27.045        0.086      345.962       23.868      863.567
07/24/2013  00:50:00      -87.581      -62.822        2.803       35.178       28.669       16.066     1237.462      821.916      258.102        0.697        0.116      107.782       17.913        0.028      345.991       23.917      863.562
07/24/2013  00:51:00      -59.981      -43.603        3.701       39.900       27.714       19.816     1591.999      768.084      392.663        0.413        0.138       74.155       20.270        0.075      345.968       23.878      863.552
07/24/2013  00:52:00      -27.602      -26.399        3.248       29.396       23.497       18.012      864.140      552.124      324.424        0.160        0.087       38.194       16.637        0.190      346.019       23.964      863.537
07/24/2013  00:53:00      -37.858      -32.632        6.249       33.928       28.257       19.587     1151.097      798.453      383.635        0.243        0.117       49.981       13.462        0.073      345.933       23.819      863.518
07/24/2013  00:54:00      -51.600      -70.374        1.533       41.478       30.217       18.704     1720.413      913.077      349.845        0.530        0.149       87.264       21.668        0.062      345.997       23.927      863.502
07/24/2013  00:55:00      -62.781      -69.975       -3.377       36.455       26.652       18.490     1328.978      710.325      341.889        0.561        0.119       94.010       18.172        0.037      345.975       23.889      863.478
07/24/2013  00:56:00      -87.131      -79.514        4.778       54.132       47.123       23.791     2930.265     2220.594      566.006        0.983        0.286      117.958       28.646        0.059      346.006       23.942      863.453
07/24/2013  00:57:00      -42.441      -71.443       -2.340       34.328       30.034       18.862     1178.399      902.015      355.790        0.467        0.122       83.099       12.972        0.024      345.823       23.630      863.429
07/24/2013  00:58:00      -91.474      -94.529        7.526       56.515       52.615       24.181     3194.002     2768.361      584.721        1.195        0.327      131.542       31.748        0.058      345.883       23.732      863.405
07/24/2013  00:59:00     -107.219      -95.521        7.342       55.531       50.303       32.772     3083.661     2530.363     1073.995        1.368        0.334      143.597       37.367        0.068      345.917       23.791      863.376
07/24/2013  01:00:00     -116.700      -75.058        4.357       60.712       65.366       31.572     3685.906     4272.664      996.780        1.411        0.448      138.753       34.048        0.060      345.916       23.788      863.360
07/24/2013  01:01:00      -61.972      -63.149       11.275       55.450       32.475       24.845     3074.717     1054.650      617.254        0.635        0.237       88.478       28.682        0.105      345.894       23.751      863.357
07/24/2013  01:02:00      -65.698      -60.180        6.259       44.692       38.171       24.025     1997.357     1457.016      577.179        0.600        0.202       89.095       24.682        0.077      345.904       23.768      863.360
07/24/2013  01:03:00      -88.977      -76.297        4.957       58.204       53.191       26.379     3387.754     2829.246      695.868        1.034        0.346      117.210       31.521        0.072      345.910       23.778      863.370
07/24/2013  01:04:00      -83.659      -77.874        1.820       38.650       39.748       20.844     1493.807     1579.893      434.484        0.829        0.175      114.294       18.050        0.025      345.924       23.802      863.376
07/24/2013  01:05:00      -73.056      -78.730        0.386       43.255       50.699       24.890     1870.998     2570.379      619.526        0.830        0.253      107.404       27.787        0.067      345.905       23.770      863.381
07/24/2013  01:06:00      -97.748      -69.139        4.943       37.599       50.464       27.474     1413.713     2546.628      754.823        0.954        0.236      119.729       23.514        0.039      345.853       23.679      863.384
07/24/2013  01:07:00      -69.204      -88.932        1.081       62.807       42.050       29.635     3944.674     1768.214      878.261        0.964        0.330      112.686       35.621        0.100      345.858       23.690      863.386
07/24/2013  01:08:00      -71.195      -58.976       11.805       53.536       32.451       26.096     2866.087     1053.079      681.004        0.664        0.230       92.449       27.967        0.092      345.825       23.633      863.386
07/24/2013  01:09:00     -121.882      -66.731        1.575       69.256       46.187       31.304     4796.360     2133.235      979.918        1.361        0.395      138.954       34.728        0.062      345.863       23.697      863.376
07/24/2013  01:10:00     -149.683      -94.050        4.079       69.480       61.234       30.829     4827.434     3749.617      950.431        2.040        0.476      176.778       31.706        0.032      345.867       23.703      863.369
07/24/2013  01:11:00     -126.176     -117.684        8.814       73.484       45.816       39.908     5399.940     2099.106     1592.626        1.947        0.455      172.540       38.189        0.049      345.890       23.741      863.347
07/24/2013  01:12:00     -125.464      -87.044        2.481       89.838       50.442       31.729     8070.781     2544.427     1006.713        1.747        0.581      152.702       34.455        0.051      345.834       23.646      863.338
07/24/2013  01:13:00      -78.250      -71.447       -8.555       73.351       31.471       24.403     5380.388      990.428      595.499        0.913        0.348      105.961       28.225        0.071      345.789       23.570      863.336
07/24/2013  01:14:00      -37.469      -91.537        0.017       46.603       35.403       20.884     2171.793     1253.353      436.139        0.682        0.193       98.909       16.405        0.028      345.768       23.533      863.337
07/24/2013  01:15:00      -58.427     -108.395        0.629       36.426       43.300       23.331     1326.834     1874.889      544.318        0.945        0.187      123.139       14.494        0.014      345.684       23.391      863.330
07/24/2013  01:16:00      -89.898     -141.301       -4.043       41.072       45.488       24.000     1686.899     2069.141      575.984        1.620        0.217      167.475       17.851        0.011      345.596       23.238      863.310
07/24/2013  01:17:00      -96.724     -108.871       -7.118       42.877       54.968       28.186     1838.435     3021.516      794.428        1.346        0.283      145.631       26.024        0.032      345.565       23.187      863.308
07/24/2013  01:18:00     -110.541     -104.877       -3.725       40.700       40.825       26.240     1656.502     1666.651      688.519        1.362        0.201      152.376       22.873        0.023      345.548       23.157      863.311
07/24/2013  01:19:00     -102.979      -95.763       -3.500       48.135       41.607       24.756     2316.949     1731.127      612.853        1.222        0.233      140.624       18.975        0.018      345.546       23.152      863.298
07/24/2013  01:20:00      -92.483      -71.207        3.187       40.558       40.966       24.450     1644.932     1678.184      597.808        0.878        0.196      116.720       13.829        0.014      345.598       23.242      863.291
07/24/2013  01:21:00      -88.674      -83.047        2.687       55.682       37.374       28.601     3100.500     1396.779      818.030        1.004        0.266      121.490       28.728        0.056      345.548       23.156      863.286
07/24/2013  01:22:00     -114.136     -100.127       -3.116       54.559       39.286       25.463     2976.701     1543.407      648.367        1.411        0.258      151.830       22.426        0.022      345.541       23.145      863.272
07/24/2013  01:23:00     -156.575     -116.589       -0.893       57.116       55.323       32.264     3262.268     3060.603     1040.990        2.274        0.368      195.214       32.191        0.027      345.577       23.204      863.253
07/24/2013  01:24:00     -161.193     -133.593       -3.192       73.782       59.036       39.862     5443.855     3485.274     1588.949        2.718        0.526      209.357       42.786        0.042      345.608       23.256      863.232
07/24/2013  01:25:00     -167.648      -85.881       -0.206       46.832       47.755       29.164     2193.231     2280.564      850.519        2.040        0.266      188.365       26.919        0.020      345.592       23.230      863.205
07/24/2013  01:26:00     -121.358      -92.628        4.980       86.340       55.947       40.983     7454.647     3130.040     1679.584        1.780        0.613      152.668       37.997        0.062      345.539       23.141      863.185
07/24/2013  01:27:00     -171.000     -105.795       -4.071       67.810       59.586       31.163     4598.168     3550.534      971.138        2.478        0.456      201.082       28.375        0.020      345.601       23.246      863.172
07/24/2013  01:28:00     -143.534     -120.064       -1.813       62.635       69.818       37.222     3923.086     4874.608     1385.454        2.260        0.509      187.129       41.788        0.050      345.575       23.199      863.148
07/24/2013  01:29:00     -157.273     -137.767       -3.148       76.308       64.762       48.239     5822.957     4194.063     2326.981        2.803        0.617      209.080       47.942        0.053      345.626       23.287      863.125
07/24/2013  01:30:00      -94.609      -74.772        1.064       76.180       48.063       31.149     5803.419     2310.015      970.235        1.181        0.454      120.589       34.140        0.080      345.542       23.146      863.112
07/24/2013  01:31:00     -125.655     -110.111        0.046       71.101       72.753       40.345     5055.333     5293.002     1627.698        1.994        0.599      167.074       40.585        0.059      345.555       23.167      863.112
07/24/2013  01:32:00     -120.939     -103.206        8.876       78.726       80.869       44.412     6197.735     6539.737     1972.428        2.003        0.735      158.989       49.258        0.096      345.552       23.163      863.097
07/24/2013  01:33:00     -131.477     -128.762       -2.000       82.373       51.282       42.961     6785.290     2629.846     1845.677        2.256        0.563      184.027       48.377        0.069      345.546       23.151      863.082
07/24/2013  01:34:00     -113.294     -123.936        2.253       83.597       73.969       45.861     6988.509     5471.358     2103.201        2.138        0.728      167.915       52.040        0.096      345.508       23.088      863.078
07/24/2013  01:35:00     -147.418     -115.048        5.770       81.641       59.493       43.137     6665.190     3539.437     1860.822        2.353        0.603      186.998       42.772        0.052      345.493       23.060      863.070
07/24/2013  01:36:00     -150.627     -137.530       -4.160       91.502       74.906       43.286     8372.554     5610.918     1873.675        2.874        0.793      203.968       43.815        0.046      345.500       23.074      863.065
07/24/2013  01:37:00     -141.636     -128.483        4.418       75.110       69.392       43.549     5641.482     4815.314     1896.556        2.447        0.618      191.229       40.145        0.044      345.479       23.036      863.061
07/24/2013  01:38:00     -132.711      -79.570      -12.394       68.733       45.907       27.030     4724.239     2107.446      730.619        1.583        0.378      154.737       23.798        0.024      345.497       23.068      863.059
07/24/2013  01:39:00      -59.842      -93.824       -5.798       38.599       58.108       27.813     1489.905     3376.542      773.585        0.903        0.282      111.284       25.715        0.053      345.440       22.972      863.044
07/24/2013  01:40:00      -57.840     -109.183        6.577       45.006       58.155       32.207     2025.499     3382.025     1037.277        1.088        0.322      123.558       34.433        0.078      345.430       22.952      863.030
07/24/2013  01:41:00      -76.295      -98.235       -9.002       53.843       38.616       26.076     2899.030     1491.189      679.958        1.031        0.254      124.383       25.232        0.041      345.390       22.885      863.029
07/24/2013  01:42:00      -58.649     -118.299       -2.515       42.524       66.053       23.066     1808.299     4363.022      532.062        1.207        0.335      132.039       23.236        0.031      345.361       22.836      863.023
07/24/2013  01:43:00      -62.299     -101.509        5.779       46.737       54.339       28.078     2184.361     2952.739      788.387        1.007        0.296      119.102       22.131        0.035      345.373       22.857      863.019
07/24/2013  01:44:00      -69.614     -113.812        4.364       40.626       69.496       28.136     1650.479     4829.625      791.615        1.254        0.364      133.414       19.219        0.021      345.354       22.824      863.036
07/24/2013  01:45:00      -76.732      -98.456        0.406       58.868       71.934       30.662     3465.428     5174.524      940.138        1.258        0.479      124.825       26.351        0.045      345.357       22.829      863.044
07/24/2013  01:46:00      -74.818     -130.644        8.096       33.410       66.906       24.192     1116.241     4476.452      585.233        1.445        0.309      150.551       17.924        0.014      345.368       22.848      863.041
07/24/2013  01:47:00     -107.044      -92.551        4.195       63.648       46.784       34.514     4051.052     2188.775     1191.248        1.373        0.372      141.506       33.254        0.055      345.348       22.812      863.042
07/24/2013  01:48:00     -120.303      -94.619       -4.574       44.990       54.054       27.319     2024.080     2921.859      746.317        1.457        0.285      153.054       28.694        0.035      345.337       22.796      863.055
07/24/2013  01:49:00      -91.141      -49.599        9.387       77.974       47.821       25.200     6080.022     2286.817      635.019        0.993        0.450      103.763       25.032        0.058      345.307       22.743      863.061
07/24/2013  01:50:00     -143.634      -79.185       -1.066       59.412       60.147       31.761     3529.755     3617.625     1008.752        1.753        0.408      164.016       29.097        0.031      345.340       22.797      863.046
07/24/2013  01:51:00     -118.552      -80.850        4.058       60.353       38.414       30.437     3642.495     1475.608      926.434        1.332        0.302      143.496       27.968        0.038      345.322       22.769      863.032
07/24/2013  01:52:00     -123.981     -131.434       -0.664       62.813       58.158       40.114     3945.437     3382.372     1609.149        2.079        0.447      180.683       41.040        0.052      345.381       22.869      863.019
07/24/2013  01:53:00     -178.516     -126.697        4.885       92.246       55.486       40.130     8509.376     3078.729     1610.416        3.057        0.660      218.906       43.613        0.040      345.343       22.803      863.011
07/24/2013  01:54:00     -119.844     -119.007        0.944       59.615       40.730       28.477     3553.927     1658.928      810.939        1.727        0.301      168.894       19.756        0.014      345.324       22.771      862.997
07/24/2013  01:55:00     -173.083     -114.551        1.037       72.583       57.705       41.520     5268.336     3329.861     1723.933        2.670        0.516      207.556       42.330        0.042      345.328       22.776      862.985
07/24/2013  01:56:00     -143.343      -87.464        0.409       70.786       48.075       31.638     5010.659     2311.202     1000.940        1.826        0.416      167.920       35.329        0.044      345.325       22.774      862.983
07/24/2013  01:57:00     -133.601      -91.148       -2.587       58.059       54.255       31.787     3370.803     2943.572     1010.441        1.674        0.366      161.732       25.789        0.025      345.285       22.705      862.967
07/24/2013  01:58:00      -98.535      -74.819        0.502       52.947       46.717       29.823     2803.391     2182.478      889.387        1.059        0.294      123.722       28.507        0.053      345.297       22.725      862.955
07/24/2013  01:59:00      -88.967      -99.556       -6.247       71.631       48.456       29.831     5130.930     2348.030      889.882        1.312        0.418      133.516       31.007        0.054      345.317       22.760      862.953
07/24/2013  02:00:00      -85.945      -61.122        0.942       57.816       42.364       32.132     3342.674     1794.728     1032.442        0.865        0.308      105.463       19.082        0.033      345.265       22.672      862.951
07/24/2013  02:01:00      -14.324      -90.467        5.095       44.348       35.115       27.311     1966.725     1233.049      745.888        0.618        0.197       91.594       21.949        0.057      345.293       22.719      862.944
07/24/2013  02:02:00      -90.204     -150.808        5.859       64.674       59.988       34.804     4182.686     3598.598     1211.333        1.995        0.450      175.726       33.748        0.037      345.284       22.703      862.928
07/24/2013  02:03:00      -33.743      -87.143       13.715       45.819       41.997       33.730     2099.359     1763.763     1137.714        0.696        0.250       93.447       28.209        0.091      345.289       22.713      862.916
07/24/2013  02:04:00      -83.045     -111.107       -5.542       36.209       43.117       22.267     1311.097     1859.033      495.809        1.147        0.183      138.713       17.912        0.017      345.271       22.682      862.913
07/24/2013  02:05:00      -65.217     -163.827        1.072       49.463       60.135       22.112     2446.556     3616.262      488.932        1.882        0.328      176.331       21.199        0.014      345.263       22.666      862.889
07/24/2013  02:06:00      -64.898     -124.247        0.275       65.151       73.154       30.927     4244.667     5351.495      956.474        1.510        0.528      140.176       26.864        0.037      345.291       22.714      862.879
07/24/2013  02:07:00      -67.204     -120.559        1.224       58.001       78.918       33.940     3364.127     6228.067     1151.898        1.490        0.537      138.025       39.491        0.082      345.277       22.688      862.870
07/24/2013  02:08:00      -88.813     -147.006       -6.079       53.531       55.964       31.848     2865.598     3131.938     1014.317        1.827        0.351      171.752       24.760        0.021      345.284       22.702      862.874
07/24/2013  02:09:00      -95.983     -140.533        2.420       67.017       68.174       27.965     4491.329     4647.711      782.021        1.944        0.496      170.183       24.576        0.021      345.232       22.612      862.880
07/24/2013  02:10:00      -59.824     -137.955        6.927       41.236       69.734       31.586     1700.418     4862.878      997.684        1.511        0.378      150.368       26.257        0.030      345.200       22.559      862.881
07/24/2013  02:11:00      -48.481      -50.516       12.013       63.637       46.059       25.730     4049.669     2121.392      662.051        0.594        0.342       70.017       23.711        0.115      345.155       22.483      862.880
07/24/2013  02:12:00      -48.321      -43.090       13.910       56.826       32.153       27.084     3229.144     1033.794      733.547        0.469        0.250       64.743       29.143        0.203      345.153       22.480      862.886
07/24/2013  02:13:00      -50.806      -40.836       10.728       43.746       29.797       28.644     1913.747      887.846      820.497        0.399        0.181       65.183       21.924        0.113      345.072       22.343      862.900
07/24/2013  02:14:00      -91.587      -63.439        0.641       43.240       50.170       21.937     1869.738     2517.075      481.221        0.864        0.243      111.412       24.862        0.050      345.088       22.369      862.913
07/24/2013  02:15:00      -43.330      -77.242        2.821       70.553       47.210       23.349     4977.786     2228.771      545.180        0.780        0.388       88.565       30.270        0.117      345.110       22.406      862.922
07/24/2013  02:16:00      -23.192      -40.166       -2.306       53.943       28.735       24.224     2909.825      825.727      586.794        0.324        0.216       46.381       20.450        0.194      345.069       22.337      862.938
07/24/2013  02:17:00       -7.773      -43.822        5.777       47.637       33.860       27.588     2269.265     1146.480      761.097        0.309        0.209       44.506       24.857        0.312      345.091       22.375      862.960
07/24/2013  02:18:00       -4.202       29.717       12.100       41.155       36.423       16.925     1693.742     1326.639      286.451        0.218        0.165       30.013        7.579        0.064      345.107       22.402      862.985
07/24/2013  02:19:00      138.987       76.257        9.695       54.761       38.555       31.387     2998.813     1486.496      985.133        1.535        0.274      158.532       15.448        0.009      344.894       22.036      862.995
07/24/2013  02:20:00      165.449       59.281        6.501       69.708       54.263       45.924     4859.270     2944.450     2109.049        2.042        0.496      175.749       28.708        0.027      344.826       21.919      862.998
07/24/2013  02:21:00      108.676       49.564       25.626       75.702       50.666       52.426     5730.801     2567.069     2748.510        1.298        0.552      119.445       39.369        0.109      344.852       21.963      863.004
07/24/2013  02:22:00      115.588       63.555       29.304       50.547       39.132       37.272     2555.007     1531.349     1389.213        1.187        0.274      131.908       31.456        0.057      344.812       21.896      863.022
07/24/2013  02:23:00      106.758       51.502       14.399       34.161       30.038       22.890     1166.991      902.291      523.972        0.842        0.130      118.532        6.558        0.003      344.845       21.954      863.021
07/24/2013  02:24:00       61.194       37.651       21.580       29.707       28.201       28.466      882.502      795.279      810.311        0.406        0.124       71.849       20.982        0.085      344.832       21.931      863.016
07/24/2013  02:25:00       17.944       55.413        8.778       28.000       44.276       25.299      783.986     1960.380      640.055        0.343        0.169       58.246       17.711        0.092      344.775       21.834      863.022
07/24/2013  02:26:00       46.115       48.327        4.343       47.674       33.629       16.303     2272.817     1130.891      265.794        0.407        0.183       66.799       17.680        0.070      344.794       21.867      863.042
07/24/2013  02:27:00       41.004       44.898       -9.163       34.983       40.070       22.663     1223.838     1605.622      513.609        0.356        0.167       60.805       18.412        0.092      345.106       22.399      863.028
07/24/2013  02:28:00        9.689      -48.918       -1.399        9.458       27.100       11.738       89.449      734.385      137.777        0.172        0.048       49.868       11.752        0.056      345.229       22.611      863.015
07/24/2013  02:29:00        1.947      -23.910        8.081       10.062       24.209        9.797      101.242      586.055       95.974        0.071        0.039       23.989       10.816        0.203      345.217       22.589      863.005
07/24/2013  02:30:00      -19.705       -1.142       -3.933        9.207       15.318        8.708       84.778      234.631       75.837        0.040        0.020       19.738        3.108        0.025      345.045       22.294      863.019
07/24/2013  02:31:00      -25.202      -14.838       -0.889       13.831       14.004        8.522      191.290      196.105       72.626        0.066        0.023       29.246        7.250        0.061      344.893       22.034      863.012
07/24/2013  02:32:00      -27.322      -12.255        1.424       15.417        9.789        7.048      237.673       95.822       49.677        0.064        0.019       29.945        4.876        0.027      344.858       21.975      863.007
07/24/2013  02:33:00      -17.849        1.987        2.672        8.171        8.914        4.544       66.767       79.459       20.646        0.025        0.008       17.959        5.636        0.098      344.904       22.057      863.011
07/24/2013  02:34:00        7.914       18.608        8.955        7.592        9.449        5.776       57.639       89.278       33.363        0.033        0.009       20.221        5.717        0.080      344.815       21.901      863.003
07/24/2013  02:35:00       -1.362       56.260       -1.656        7.199       18.602       11.504       51.820      346.023      132.341        0.185        0.027       56.276       10.693        0.036      344.891       22.032      863.008
07/24/2013  02:36:00       20.654       81.367       -7.781       22.775       18.136       14.394      518.679      328.926      207.196        0.408        0.053       83.948       11.628        0.019      344.789       21.859      863.028
07/24/2013  02:37:00       12.852       37.024        0.743       23.481       20.196       17.372      551.372      407.897      301.799        0.140        0.063       39.191       12.253        0.098      344.737       21.769      863.041
07/24/2013  02:38:00        1.240       23.024        1.654       14.686       15.954       10.396      215.676      254.520      108.082        0.056        0.029       23.057        9.028        0.153      344.791       21.860      863.052
07/24/2013  02:39:00       -4.051       49.023       -5.115       11.497       12.403        7.283      132.187      153.840       53.043        0.139        0.017       49.191        5.491        0.012      344.910       22.065      863.056
07/24/2013  02:40:00      -11.137       70.486      -12.904       17.445       23.573        8.403      304.328      555.691       70.605        0.309        0.047       71.360        6.085        0.007      344.950       22.134      863.054
07/24/2013  02:41:00      -16.987       46.933       -5.475       17.910       19.381       10.208      320.751      375.640      104.200        0.166        0.040       49.913       10.728        0.046      344.880       22.010      863.048
07/24/2013  02:42:00      -21.691       58.741       -5.849       22.952       25.888       14.862      526.784      670.178      220.884        0.269        0.071       62.618       14.797        0.056      344.875       22.004      863.041
07/24/2013  02:43:00       -6.304       97.820      -13.181       19.367       18.412       13.527      375.093      338.997      182.968        0.534        0.045       98.023        7.231        0.005      344.877       22.009      863.035
07/24/2013  02:44:00       -7.563      115.279      -12.633       17.449       23.487       12.997      304.462      551.638      168.930        0.727        0.051      115.526        6.937        0.004      344.870       21.998      863.013
07/24/2013  02:45:00       19.004      103.544      -16.678       25.664       37.062       19.436      658.623     1373.556      377.770        0.688        0.120      105.273       16.895        0.026      344.804       21.883      862.995
07/24/2013  02:46:00       15.718       68.680       -3.752       24.275       24.238       18.768      589.268      587.491      352.228        0.325        0.076       70.456       14.445        0.042      344.714       21.728      862.969
07/24/2013  02:47:00       19.014       62.356       -7.394       27.240       25.316       16.876      742.007      640.896      284.809        0.299        0.083       65.190       15.412        0.056      344.757       21.802      862.950
07/24/2013  02:48:00        8.473       45.689        4.916       16.498       27.681       19.468      272.170      766.236      379.007        0.180        0.071       46.468       15.817        0.116      344.761       21.809      862.937
07/24/2013  02:49:00       11.431       79.629       -5.845       14.880       20.909       16.088      221.425      437.191      258.815        0.371        0.046       80.446       13.569        0.028      344.830       21.927      862.933
07/24/2013  02:50:00       18.610       91.777      -14.463       20.744       21.049       17.038      430.303      443.055      290.290        0.507        0.058       93.645       11.681        0.016      344.827       21.923      862.926
07/24/2013  02:51:00       12.120       64.791      -10.771       10.449       25.017        8.050      109.172      625.851       64.808        0.263        0.040       65.915        5.892        0.008      344.834       21.935      862.911
07/24/2013  02:52:00       24.093       63.865       -6.022       15.176       16.522       10.769      230.312      272.988      115.978        0.266        0.031       68.259        6.803        0.010      344.861       21.979      862.898
07/24/2013  02:53:00       27.181       53.553       -5.059       16.397       26.833       17.946      268.854      720.036      322.058        0.247        0.066       60.056       17.069        0.081      344.842       21.948      862.891
07/24/2013  02:54:00       66.980       48.756        0.819       33.877       22.982       17.152     1147.646      528.159      294.191        0.442        0.098       82.846       15.379        0.034      344.824       21.916      862.887
07/24/2013  02:55:00       60.055       41.708       12.013       23.851       23.200       16.697      568.873      538.224      278.785        0.344        0.069       73.118       10.130        0.019      344.719       21.737      862.875
07/24/2013  02:56:00       91.535       43.635       12.095       29.205       19.195       18.888      852.931      368.458      356.751        0.600        0.079      101.404       15.052        0.022      344.735       21.763      862.865
07/24/2013  02:57:00       99.750       47.137        6.757       27.749       24.207       20.451      770.008      585.994      418.243        0.700        0.089      110.326        9.298        0.007      344.796       21.868      862.851
07/24/2013  02:58:00       93.975       30.065        5.606       45.431       30.788       29.686     2063.994      947.925      881.251        0.683        0.195       98.667       23.657        0.057      344.849       21.960      862.841
07/24/2013  02:59:00      111.888       54.047       10.237       33.981       26.660       24.930     1154.702      710.770      621.487        0.902        0.124      124.258       15.804        0.016      344.802       21.880      862.835
07/24/2013  03:00:00      123.660       46.859       18.209       42.077       29.683       23.327     1770.432      881.069      544.170        1.051        0.160      132.241       15.561        0.014      344.810       21.893      862.835
07/24/2013  03:01:00      110.205       50.208        4.186       28.900       23.663       21.718      835.192      559.938      471.660        0.827        0.093      121.103       14.591        0.015      344.742       21.775      862.831
07/24/2013  03:02:00      115.639       61.279       12.494       30.876       29.070       24.121      953.335      845.069      581.812        0.983        0.119      130.872       20.173        0.024      344.744       21.781      862.824
07/24/2013  03:03:00      104.098       61.012       16.099       27.102       21.417       21.178      734.521      458.687      448.494        0.823        0.082      120.660        7.971        0.004      344.876       22.006      862.823
07/24/2013  03:04:00       82.764       50.717       15.735       15.953       19.808       20.184      254.485      392.369      407.396        0.536        0.053       97.068       10.213        0.011      344.800       21.877      862.831
07/24/2013  03:05:00       67.690       50.656       16.820       24.426       20.665       21.488      596.622      427.063      461.739        0.446        0.074       84.546       15.021        0.032      344.790       21.860      862.843
07/24/2013  03:06:00       26.868       20.502       15.567       25.724       26.628       18.731      661.727      709.071      350.837        0.155        0.086       33.797       13.479        0.159      344.814       21.900      862.846
07/24/2013  03:07:00        8.939       -1.068        7.389       13.453        9.029       10.554      180.978       81.515      111.385        0.025        0.019        9.003        4.900        0.296      344.731       21.755      862.848
07/24/2013  03:08:00       -0.762      -10.538       -0.270       10.413        8.506        4.986      108.438       72.349       24.865        0.016        0.010       10.565        5.455        0.267      344.739       21.769      862.855
07/24/2013  03:09:00       -0.219      -29.454        0.704        8.967        9.356       10.674       80.410       87.534      113.933        0.057        0.014       29.455        5.966        0.041      344.788       21.859      862.865
07/24/2013  03:10:00        8.751      -31.474        1.598       12.358       10.874        7.234      152.729      118.237       52.328        0.070        0.016       32.668        5.681        0.030      344.813       21.899      862.878
07/24/2013  03:11:00       13.121       -5.489       -7.990        8.882        8.784        4.846       78.890       77.151       23.484        0.022        0.009       14.223        2.662        0.035      344.776       21.834      862.886
07/24/2013  03:12:00        4.826      -15.548      -10.695        6.411        9.963        7.950       41.100       99.270       63.199        0.029        0.010       16.280        4.908        0.091      344.775       21.834      862.890
07/24/2013  03:13:00        6.568      -12.209       -1.520        5.184        6.242        4.277       26.878       38.960       18.289        0.014        0.004       13.864        3.047        0.048      344.815       21.901      862.894
07/24/2013  03:14:00        8.488       -9.658        0.556        9.584       12.073        6.540       91.843      145.747       42.765        0.022        0.014       12.857        4.299        0.112      344.848       21.959      862.890
07/24/2013  03:15:00       -5.934       -6.544        3.747        4.854       10.966        5.331       23.561      120.243       28.422        0.013        0.009        8.834        2.270        0.066      344.791       21.860      862.891
07/24/2013  03:16:00       -8.421      -25.111       -0.907       17.139       13.399        6.699      293.757      179.546       44.874        0.061        0.026       26.486        6.322        0.057      344.745       21.780      862.895
07/24/2013  03:17:00      -35.308      -17.044        1.916       11.077       11.251        8.781      122.698      126.591       77.101        0.093        0.016       39.206        8.001        0.042      344.728       21.753      862.896
07/24/2013  03:18:00      -40.180      -18.099       -6.965       14.016        7.824        6.534      196.439       61.212       42.699        0.115        0.015       44.068        4.960        0.013      344.716       21.730      862.897
07/24/2013  03:19:00      -39.947      -34.931       -3.183       20.462       13.842        8.207      418.693      191.607       67.358        0.175        0.034       53.066        5.052        0.009      344.723       21.742      862.888
07/24/2013  03:20:00      -35.373      -39.759       -1.467       22.076       14.887       11.079      487.335      221.628      122.743        0.183        0.042       53.217        7.223        0.018      344.657       21.631      862.884
07/24/2013  03:21:00      -72.553      -56.244       -2.477       22.822       24.005       13.974      520.845      576.233      195.277        0.486        0.065       91.800        9.405        0.010      344.713       21.726      862.870
07/24/2013  03:22:00      -72.197      -54.703       -6.723       15.407       16.891       12.844      237.362      285.318      164.966        0.447        0.034       90.581        9.927        0.012      344.700       21.704      862.868
07/24/2013  03:23:00      -65.989      -41.948        1.002       18.069       19.171       16.523      326.498      367.545      272.997        0.354        0.048       78.193        9.393        0.014      344.616       21.560      862.873
07/24/2013  03:24:00      -68.202       -6.650       -6.898       26.203       17.494       14.050      686.604      306.025      197.410        0.297        0.060       68.526       15.413        0.051      344.444       21.266      862.873
07/24/2013  03:25:00     -112.115      -17.501       -0.712       25.015       23.913       17.519      625.757      571.854      306.918        0.719        0.075      113.473       13.484        0.014      344.295       21.011      862.871
07/24/2013  03:26:00      -94.904       -4.097       -3.238       45.036       30.664       20.769     2028.284      940.302      431.342        0.622        0.170       94.992       21.317        0.050      344.157       20.778      862.866
07/24/2013  03:27:00     -108.208        1.534      -10.020       21.344       18.917       13.255      455.550      357.839      175.705        0.640        0.049      108.218        3.065        0.001      344.253       20.941      862.851
07/24/2013  03:28:00     -102.927      -31.124       -1.947       22.409       19.474       17.576      502.157      379.233      308.924        0.638        0.060      107.530       15.224        0.020      344.239       20.917      862.839
07/24/2013  03:29:00     -100.546      -40.289       -1.981       24.756       24.897       16.418      612.846      619.872      269.561        0.662        0.075      108.318       11.276        0.011      344.292       21.007      862.834
07/24/2013  03:30:00     -138.001      -53.468       -7.834       29.863       28.298       16.856      891.775      800.754      284.129        1.197        0.099      147.997       14.002        0.009      344.205       20.859      862.837
07/24/2013  03:31:00     -168.580      -37.149       -6.951       26.575       25.896       19.988      706.248      670.618      399.500        1.581        0.089      172.625       14.125        0.007      344.139       20.746      862.841
07/24/2013  03:32:00     -115.871      -24.544        0.154       43.753       31.165       23.602     1914.311      971.258      557.071        0.873        0.172      118.442       25.886        0.048      344.145       20.755      862.842
07/24/2013  03:33:00     -104.204      -22.562       -3.674       40.364       27.412       21.035     1629.290      751.399      442.455        0.710        0.141      106.619       18.238        0.029      344.111       20.699      862.837
07/24/2013  03:34:00     -106.297       12.322       -6.110       43.127       33.901       24.255     1859.948     1149.257      588.301        0.754        0.180      107.009       25.269        0.056      344.087       20.657      862.828
07/24/2013  03:35:00     -130.395       39.233       -5.829       41.934       26.669       21.287     1758.429      711.235      453.146        1.075        0.146      136.169       18.027        0.018      344.148       20.761      862.818
07/24/2013  03:36:00     -101.375       39.208       -7.655       34.172       18.816       20.613     1167.755      354.045      424.877        0.691        0.097      108.693       16.683        0.024      344.251       20.938      862.823
07/24/2013  03:37:00      -97.524       26.878        0.428       27.967       22.258       14.200      782.136      495.431      201.627        0.586        0.074      101.160       11.286        0.012      344.461       21.296      862.835
07/24/2013  03:38:00      -90.446       -0.564       -6.620       20.193       24.987       18.416      407.754      624.368      339.144        0.480        0.069       90.448        7.342        0.007      344.270       20.969      862.852
07/24/2013  03:39:00     -101.078       -5.700       -7.572       29.763       27.983       21.075      885.862      783.060      444.139        0.621        0.106      101.238       14.621        0.021      344.236       20.912      862.880
07/24/2013  03:40:00      -82.370      -17.988       -2.054       59.337       23.489       22.662     3520.894      551.710      513.550        0.585        0.229       84.311       27.838        0.109      344.263       20.959      862.911
07/24/2013  03:41:00      -52.789       10.456       -3.458       40.658       25.731       18.629     1653.072      662.091      347.058        0.278        0.133       53.815       21.737        0.163      344.359       21.122      862.929
07/24/2013  03:42:00      -60.712       -6.030       -6.930       27.741       22.580       15.359      769.546      509.858      235.899        0.264        0.076       61.011        9.010        0.022      344.176       20.808      862.941
07/24/2013  03:43:00      -56.543      -10.854       -4.074       23.078       16.849       14.809      532.578      283.877      219.298        0.218        0.052       57.575       11.773        0.042      344.115       20.704      862.950
07/24/2013  03:44:00      -65.162        4.747       -6.871       36.356       33.669       17.675     1321.722     1133.569      312.394        0.354        0.138       65.334       18.517        0.080      344.133       20.736      862.961
07/24/2013  03:45:00      -67.533       20.713       -5.609       36.408       42.584       15.403     1325.525     1813.379      237.255        0.420        0.169       70.638       19.868        0.079      344.355       21.114      862.971
07/24/2013  03:46:00      -65.421       31.474      -13.581       17.663       26.699       13.676      311.969      712.840      187.028        0.333        0.061       72.598        8.642        0.014      344.481       21.332      862.978
07/24/2013  03:47:00      -42.258       18.707       -9.073       22.341       28.264       12.899      499.125      798.829      166.381        0.184        0.073       46.213       11.687        0.064      344.421       21.227      862.981
07/24/2013  03:48:00       -0.099       40.223        4.893       20.442       18.041       18.990      417.893      325.489      360.611        0.137        0.055       40.223       18.622        0.214      344.290       21.005      862.998
07/24/2013  03:49:00       50.743       24.563       17.212       30.281       16.277       20.165      916.937      264.945      406.608        0.253        0.079       56.376       18.295        0.105      344.307       21.033      863.019
07/24/2013  03:50:00       36.659       20.953       11.428       27.115       19.018       18.225      735.224      361.690      332.160        0.167        0.071       42.224       17.992        0.182      344.446       21.269      863.032
07/24/2013  03:51:00        5.806       11.539       22.232       13.026        7.320        8.267      169.673       53.576       68.337        0.048        0.015       12.918        7.425        0.330      344.288       20.999      863.041
07/24/2013  03:52:00       21.050        8.331       -0.225       13.101        7.885       11.515      171.626       62.171      132.589        0.044        0.018       22.638        7.008        0.096      344.409       21.207      863.053
07/24/2013  03:53:00       -4.497       -2.055        2.287       11.958        4.569        6.420      142.995       20.880       41.211        0.012        0.010        4.944        5.670        1.315      344.362       21.126      863.073
07/24/2013  03:54:00       -5.098       22.927       -4.824       14.164       17.216        6.005      200.632      296.387       36.061        0.055        0.027       23.487        8.290        0.125      344.345       21.099      863.099
07/24/2013  03:55:00        7.141       26.110        1.582       13.928       12.228        5.927      193.985      149.520       35.128        0.056        0.019       27.069        5.428        0.040      344.344       21.098      863.111
07/24/2013  03:56:00       15.340       10.176       -0.699       13.357        9.623        6.588      178.402       92.596       43.396        0.033        0.016       18.409        3.525        0.037      344.386       21.169      863.121
07/24/2013  03:57:00       29.023        8.574        6.514       14.405        7.773        8.382      207.502       60.425       70.254        0.065        0.017       30.263        6.299        0.043      344.340       21.089      863.130
07/24/2013  03:58:00       27.889       12.151        4.695       11.957       11.011        7.457      142.975      121.244       55.604        0.063        0.016       30.422        4.853        0.025      344.334       21.079      863.136
07/24/2013  03:59:00       -1.648       54.420      -12.207       17.471       33.015        8.028      305.224     1089.993       64.447        0.229        0.073       54.445       12.722        0.055      344.375       21.150      863.129
07/24/2013  04:00:00       -6.271       95.420      -12.646       16.108       29.037        9.562      259.452      843.131       91.430        0.525        0.060       95.626        6.616        0.005      344.438       21.257      863.142
07/24/2013  04:01:00       -9.211       90.822      -10.907       12.582       20.561       10.572      158.301      422.747      111.757        0.457        0.035       91.288        7.549        0.007      344.394       21.182      863.134
07/24/2013  04:02:00      -23.510       65.647       -2.350       25.094       38.896       14.440      629.729     1512.860      208.518        0.361        0.118       69.730       17.323        0.062      344.224       20.890      863.140
07/24/2013  04:03:00      -32.963       73.563      -17.874       36.026       28.307       16.215     1297.894      801.259      262.921        0.459        0.118       80.610       12.169        0.023      344.324       21.062      863.138
07/24/2013  04:04:00      -49.356      123.111      -14.384       66.602       61.485       40.371     4435.771     3780.448     1629.783        1.382        0.492      132.636       46.627        0.124      344.525       21.406      863.132
07/24/2013  04:05:00     -117.653      117.356      -28.879       64.284       75.707       39.283     4132.395     5731.504     1543.136        1.993        0.570      166.177       40.711        0.060      344.457       21.289      863.149
07/24/2013  04:06:00     -149.533      110.126      -24.941       73.472       90.487       43.544     5398.074     8187.970     1896.079        2.529        0.774      185.709       44.466        0.057      344.546       21.438      863.154
07/24/2013  04:07:00      -68.473      166.571      -15.050       62.102      107.183       41.431     3856.668    11488.159     1716.560        2.486        0.853      180.096       47.845        0.071      344.563       21.468      863.176
07/24/2013  04:08:00     -119.840      120.561      -29.526       47.192       70.209       34.535     2227.080     4929.238     1192.636        1.906        0.417      169.990       32.924        0.038      344.607       21.544      863.201
07/24/2013  04:09:00     -104.124      105.011      -22.611       42.021       54.522       27.952     1765.747     2972.607      781.324        1.395        0.276      147.882       24.752        0.028      344.548       21.444      863.220
07/24/2013  04:10:00     -130.655       88.424      -17.975       70.158       61.734       37.572     4922.094     3811.063     1411.680        1.768        0.507      157.764       25.624        0.026      344.582       21.501      863.230
07/24/2013  04:11:00      -93.754      138.515      -14.963       60.404       86.627       37.631     3648.688     7504.190     1416.107        2.038        0.628      167.261       29.054        0.030      344.583       21.502      863.230
07/24/2013  04:12:00      -93.790      143.356      -27.196       49.228       52.324       31.210     2423.440     2737.821      974.090        1.811        0.307      171.311       27.140        0.025      344.572       21.486      863.236
07/24/2013  04:13:00      -74.308      146.176      -21.940       66.771       62.017       40.979     4458.401     3846.077     1679.275        1.868        0.499      163.979       44.510        0.074      344.540       21.430      863.248
07/24/2013  04:14:00      -72.756      160.046      -20.313       59.967       65.006       41.405     3595.996     4225.796     1714.352        2.043        0.477      175.808       43.854        0.062      344.560       21.462      863.246
07/24/2013  04:15:00     -103.039      100.523      -24.673       58.238       57.494       38.703     3391.613     3305.509     1497.884        1.476        0.410      143.951       35.544        0.061      344.628       21.582      863.245
07/24/2013  04:16:00     -113.456      147.693      -28.638       73.566       66.760       38.229     5412.025     4456.963     1461.447        2.342        0.567      186.240       46.782        0.063      344.565       21.473      863.247
07/24/2013  04:17:00      -33.994       94.703       -3.457       47.804       87.541       38.844     2285.190     7663.407     1508.894        1.079        0.573      100.619       41.178        0.167      344.523       21.402      863.268
07/24/2013  04:18:00      -72.953       12.167       -0.350       38.394       52.080       32.098     1474.072     2712.282     1030.280        0.534        0.261       73.961       15.377        0.043      344.522       21.402      863.292
07/24/2013  04:19:00      -43.815       57.689       -3.686       51.111       60.836       30.123     2612.297     3701.020      907.401        0.624        0.361       72.441       29.902        0.170      344.482       21.331      863.314
07/24/2013  04:20:00      -45.680      101.540       -3.983       46.504       61.658       37.154     2162.657     3801.668     1380.401        0.988        0.367      111.342       32.409        0.085      344.456       21.286      863.324
07/24/2013  04:21:00     -148.977      134.904      -30.333       85.571       74.200       48.773     7322.369     5505.572     2378.777        2.826        0.760      200.981       56.158        0.078      344.472       21.312      863.348
07/24/2013  04:22:00      -96.346      141.458      -29.738       52.414       47.141       29.846     2747.248     2222.239      890.776        1.802        0.293      171.152       26.355        0.024      344.462       21.295      863.367
07/24/2013  04:23:00     -107.768      126.885      -26.027       60.418       54.462       38.028     3650.381     2966.107     1446.117        1.823        0.403      166.474       31.071        0.035      344.429       21.241      863.386
07/24/2013  04:24:00     -108.591      143.201      -22.752       69.811       52.247       38.332     4873.619     2729.732     1469.332        2.094        0.454      179.718       37.230        0.043      344.420       21.224      863.388
07/24/2013  04:25:00      -69.551      105.723      -12.458       55.904       53.145       39.995     3125.312     2824.433     1599.609        1.186        0.377      126.549       35.605        0.079      344.408       21.205      863.374
07/24/2013  04:26:00     -104.215       83.563      -12.637       64.732       50.289       35.226     4190.197     2528.986     1240.840        1.298        0.398      133.580       38.123        0.081      344.429       21.240      863.367
07/24/2013  04:27:00      -80.868      116.089      -21.710       56.938       46.738       30.394     3241.902     2184.409      923.785        1.342        0.318      141.479       27.779        0.039      344.422       21.229      863.364
07/24/2013  04:28:00     -143.406      179.533      -28.017       76.279       88.502       42.879     5818.472     7832.642     1838.575        3.453        0.774      229.777       36.483        0.025      344.482       21.327      863.354
07/24/2013  04:29:00      -64.745       93.210      -16.908       67.779       43.716       30.045     4594.001     1911.119      902.673        1.029        0.370      113.490       35.736        0.099      344.423       21.230      863.342
07/24/2013  04:30:00      -69.852      180.481      -15.260       39.586       80.058       38.753     1567.065     6409.323     1501.769        2.358        0.474      193.526       39.843        0.042      344.440       21.255      863.337
07/24/2013  04:31:00      -92.715      113.032      -11.973       37.922       66.052       36.310     1438.052     4362.834     1318.442        1.432        0.356      146.193       37.001        0.064      344.412       21.212      863.348
07/24/2013  04:32:00      -50.060       99.687       -4.695       49.519       53.883       31.880     2452.095     2903.391     1016.320        0.942        0.319      111.551       32.034        0.082      344.437       21.255      863.345
07/24/2013  04:33:00     -117.772      147.062      -23.634       68.358       44.389       39.300     4672.874     1970.393     1544.473        2.212        0.409      188.408       26.707        0.020      344.451       21.277      863.338
07/24/2013  04:34:00     -102.309       90.441      -20.033       32.688       60.034       29.878     1068.483     3604.037      892.696        1.231        0.278      136.553       27.929        0.042      344.462       21.298      863.341
07/24/2013  04:35:00      -89.634       75.946      -26.384       41.838       47.958       27.135     1750.447     2300.001      736.283        0.964        0.239      117.483       23.749        0.041      344.434       21.250      863.345
07/24/2013  04:36:00     -107.205      114.326      -30.730       47.664       58.264       31.188     2271.902     3394.674      972.672        1.607        0.332      156.727       33.026        0.044      344.461       21.294      863.345
07/24/2013  04:37:00      -89.454       78.561      -16.056       57.571       48.508       37.704     3314.438     2352.995     1421.615        1.076        0.354      119.055       30.860        0.067      344.499       21.358      863.347
07/24/2013  04:38:00      -83.062      127.585      -17.319       40.947       61.758       36.731     1676.616     3814.110     1349.145        1.516        0.342      152.240       33.719        0.049      344.487       21.340      863.359
07/24/2013  04:39:00      -90.296       87.131      -18.293       54.608       49.696       26.390     2982.072     2469.713      696.428        1.111        0.307      125.480       30.399        0.059      344.499       21.360      863.355
07/24/2013  04:40:00      -70.442       49.000      -11.470       25.074       36.715       20.538      628.725     1347.966      421.789        0.495        0.120       85.808       16.578        0.037      344.512       21.382      863.353
07/24/2013  04:41:00      -79.504       86.298      -11.717       45.358       46.147       26.087     2057.322     2129.546      680.531        0.939        0.243      117.338       19.674        0.028      344.520       21.396      863.348
07/24/2013  04:42:00      -19.804       49.334       -6.241       22.651       30.407       16.285      513.068      924.575      265.200        0.228        0.085       53.160       13.361        0.063      344.530       21.416      863.357
07/24/2013  04:43:00      -86.409      131.390      -30.096       33.758       58.900       29.700     1139.624     3469.218      882.109        1.556        0.275      157.258       29.049        0.034      344.541       21.434      863.346
07/24/2013  04:44:00       -0.047       47.888        6.709       19.109       29.253       15.705      365.152      855.726      246.648        0.190        0.073       47.888       14.024        0.086      344.463       21.299      863.328
07/24/2013  04:45:00       -9.445       52.034       -1.607       45.609       38.218       22.698     2080.222     1460.601      515.188        0.343        0.203       52.884       17.745        0.113      344.434       21.249      863.316
07/24/2013  04:46:00      -41.171       59.605      -13.846       20.571       54.951       15.930      423.174     3019.607      253.772        0.457        0.185       72.442       16.630        0.053      344.592       21.521      863.315
07/24/2013  04:47:00      -59.746       12.532        1.864       26.564       23.887       21.484      705.649      570.594      461.565        0.273        0.087       61.046       17.443        0.082      344.513       21.384      863.320
07/24/2013  04:48:00     -106.456       50.711      -23.031       39.587       45.347       19.972     1567.161     2056.312      398.867        0.923        0.201      117.918       24.817        0.044      344.561       21.468      863.322
07/24/2013  04:49:00      -96.327       58.607      -19.353       39.579       46.053       20.536     1566.465     2120.904      421.713        0.860        0.205      112.755       13.975        0.015      344.554       21.455      863.321
07/24/2013  04:50:00      -78.438       48.587      -11.370       33.397       36.197       19.957     1115.338     1310.227      398.266        0.573        0.141       92.267       10.974        0.014      344.675       21.661      863.320
07/24/2013  04:51:00      -66.151       44.049       -9.887       34.729       45.531       17.952     1206.124     2073.064      322.268        0.501        0.180       79.475       20.729        0.068      344.602       21.538      863.322
07/24/2013  04:52:00      -25.167       35.637       -6.166       31.441       26.730       16.305      988.540      714.480      265.861        0.195        0.098       43.628       16.958        0.151      344.656       21.629      863.316
07/24/2013  04:53:00      -38.044       27.563       -5.694       30.965       11.059       10.011      958.816      122.307      100.224        0.171        0.059       46.979        9.497        0.041      344.691       21.689      863.326
07/24/2013  04:54:00        1.328       27.055       -4.977       19.714       11.151       11.115      388.654      124.337      123.536        0.070        0.032       27.088        7.434        0.075      344.651       21.624      863.331
07/24/2013  04:55:00       53.876       27.200       -0.459       14.691       13.854        8.160      215.812      191.933       66.582        0.206        0.024       60.353        2.032        0.001      344.675       21.662      863.338
07/24/2013  04:56:00       38.693       19.745        4.881       16.127       16.197       10.893      260.066      262.343      118.656        0.128        0.032       43.440        8.298        0.036      344.600       21.532      863.347
07/24/2013  04:57:00       21.610       36.000       -8.781       20.417       28.881       13.044      416.844      834.124      170.148        0.163        0.071       41.988        7.650        0.033      344.609       21.549      863.369
07/24/2013  04:58:00      -18.637       10.839       -2.557       20.205       19.812        9.177      408.261      392.508       84.215        0.068        0.044       21.560        6.339        0.086      344.593       21.522      863.384
07/24/2013  04:59:00      -71.651        3.695       -9.824       22.196       20.082       11.495      492.659      403.302      132.124        0.314        0.051       71.747        8.098        0.013      344.463       21.298      863.398
07/24/2013  05:00:00      -53.650      -82.250        2.977       61.143       43.264       29.696     3738.462     1871.774      881.823        0.807        0.325       98.201       36.320        0.137      344.422       21.228      863.403
07/24/2013  05:01:00     -110.201      -88.011       -5.943       46.636       42.910       33.834     2174.890     1841.246     1144.756        1.254        0.258      141.033       23.837        0.029      344.200       20.851      863.414
07/24/2013  05:02:00     -126.109      -81.817        3.278       60.122       35.026       28.254     3614.648     1226.809      798.264        1.412        0.282      150.325       28.870        0.037      344.162       20.785      863.418
07/24/2013  05:03:00      -83.732      -92.414       -4.830       33.343       34.516       22.181     1111.730     1191.329      492.006        0.918        0.140      124.706       14.012        0.013      344.133       20.734      863.432
07/24/2013  05:04:00      -77.056      -21.438       -2.635       29.400       28.470       17.302      864.373      810.522      299.372        0.419        0.099       79.982       14.079        0.031      344.099       20.677      863.432
07/24/2013  05:05:00      -62.085       20.609       -6.365       23.890       14.208       11.425      570.710      201.873      130.530        0.261        0.045       65.416        6.388        0.010      344.056       20.605      863.437
07/24/2013  05:06:00       -8.347       -4.642       -1.825       17.099       21.070        9.855      292.362      443.933       97.127        0.046        0.042        9.551       11.430        1.432      344.187       20.829      863.428
07/24/2013  05:07:00     -131.960      -58.569       -5.119       47.790       27.892       14.447     2283.840      777.987      208.719        1.207        0.164      144.374        7.032        0.002      344.144       20.753      863.427
07/24/2013  05:08:00     -211.598      -30.533        5.151       68.907       68.697       43.231     4748.187     4719.339     1868.953        2.853        0.567      213.789       40.734        0.036      343.984       20.477      863.438
07/24/2013  05:09:00     -188.014      -55.550        8.853       68.796       55.569       36.561     4732.847     3087.965     1336.720        2.383        0.458      196.049       36.748        0.035      343.954       20.427      863.445
07/24/2013  05:10:00     -197.261      -84.593       -1.903       57.340       64.040       37.429     3287.858     4101.184     1400.911        2.743        0.439      214.634       35.775        0.028      343.935       20.394      863.446
07/24/2013  05:11:00     -199.381      -78.396       -5.482       59.459       50.835       28.839     3535.408     2584.185      831.685        2.644        0.348      214.240       18.586        0.008      343.892       20.322      863.450
07/24/2013  05:12:00     -242.888      -99.689       -1.714       60.864       50.775       38.187     3704.439     2578.050     1458.220        3.834        0.387      262.550       33.704        0.016      343.881       20.301      863.437
07/24/2013  05:13:00     -212.950      -49.480        1.355       65.982       53.476       35.745     4353.677     2859.674     1277.717        2.814        0.425      218.623       34.050        0.024      343.909       20.349      863.435
07/24/2013  05:14:00     -211.559      -33.223       -2.002       91.436       63.394       45.105     8360.539     4018.752     2034.426        3.014        0.721      214.152       52.838        0.061      343.868       20.280      863.437
07/24/2013  05:15:00     -165.829      -72.430        1.745       70.014       57.629       34.529     4901.935     3321.052     1192.244        2.108        0.471      180.957       37.479        0.043      343.848       20.246      863.431
07/24/2013  05:16:00     -135.872      -63.365       -7.945       48.840       49.696       30.333     2385.346     2469.723      920.085        1.416        0.289      149.921       25.469        0.029      343.851       20.254      863.435
07/24/2013  05:17:00     -136.714      -25.061       -2.047       52.872       42.119       25.937     2795.456     1774.015      672.727        1.228        0.262      138.992       28.781        0.043      343.833       20.223      863.448
07/24/2013  05:18:00     -166.541      -74.095      -10.873       52.721       38.967       31.667     2779.488     1518.463     1002.794        1.932        0.265      182.280       20.299        0.012      343.957       20.434      863.453
07/24/2013  05:19:00     -180.750      -40.358       -5.720       66.897       51.860       33.573     4475.166     2689.437     1127.169        2.131        0.415      185.200       35.098        0.036      343.935       20.397      863.472
07/24/2013  05:20:00     -168.452      -56.275       -4.128       40.636       34.846       26.739     1651.285     1214.223      714.950        1.757        0.179      177.603       17.451        0.010      344.005       20.517      863.499
07/24/2013  05:21:00     -194.766      -91.808      -12.738       38.913       33.354       23.516     1514.213     1112.472      552.989        2.485        0.159      215.320       15.364        0.005      344.078       20.639      863.512
07/24/2013  05:22:00     -180.990      -50.878       -5.968       69.299       52.965       38.284     4802.391     2805.331     1465.673        2.223        0.454      188.006       38.250        0.041      344.090       20.660      863.530
07/24/2013  05:23:00     -185.026      -52.625       -5.915       53.985       33.731       26.486     2914.367     1137.767      701.527        2.090        0.238      192.364       30.129        0.025      344.133       20.735      863.553
07/24/2013  05:24:00     -161.609      -46.461       -3.793       54.069       38.647       30.542     2923.481     1493.582      932.799        1.682        0.267      168.155       29.163        0.030      344.062       20.613      863.579
07/24/2013  05:25:00     -160.755      -19.588       -7.297       44.132       43.427       25.399     1947.602     1885.929      645.104        1.538        0.224      161.944       24.714        0.023      344.057       20.605      863.598
07/24/2013  05:26:00     -135.523      -53.154       -5.467       47.722       33.335       20.966     2277.406     1111.193      439.567        1.252        0.191      145.574       20.846        0.021      344.075       20.637      863.609
07/24/2013  05:27:00     -132.538      -42.112       -7.958       32.643       32.153       21.368     1065.581     1033.828      456.596        1.098        0.128      139.068       16.665        0.014      344.070       20.627      863.613
07/24/2013  05:28:00     -139.819      -52.719       -9.876       32.802       38.238       24.186     1075.978     1462.167      584.946        1.277        0.156      149.428       22.531        0.023      344.101       20.680      863.623
07/24/2013  05:29:00     -133.491      -27.370       -5.720       36.035       28.448       20.823     1298.541      809.290      433.591        1.057        0.127      136.268       16.326        0.014      344.043       20.583      863.626
07/24/2013  05:30:00     -134.057      -53.667       -4.798       42.599       29.710       21.841     1814.675      882.666      477.035        1.202        0.159      144.400       20.529        0.020      344.026       20.554      863.620
07/24/2013  05:31:00     -178.651      -13.582      -12.525       30.612       32.255       23.150      937.099     1040.357      535.944        1.738        0.126      179.167       16.781        0.009      344.102       20.684      863.615
07/24/2013  05:32:00     -148.269      -50.444      -13.707       37.838       28.971       19.678     1431.714      839.346      387.208        1.369        0.133      156.615        7.424        0.002      344.075       20.637      863.615
07/24/2013  05:33:00     -105.188      -43.337       -2.322       34.741       38.964       21.300     1206.941     1518.162      453.692        0.806        0.159      113.766       20.914        0.034      344.038       20.573      863.605
07/24/2013  05:34:00     -171.248      -45.704      -10.404       52.125       40.518       26.771     2716.969     1641.713      716.693        1.830        0.254      177.242       24.050        0.018      344.156       20.775      863.602
07/24/2013  05:35:00     -164.349      -27.197      -10.652       38.840       36.747       24.019     1508.576     1350.345      576.893        1.565        0.172      166.584       21.700        0.017      344.099       20.677      863.597
07/24/2013  05:36:00     -124.728      -41.635       -5.331       40.568       38.242       28.599     1645.766     1462.453      817.931        1.062        0.196      131.494       19.589        0.022      344.124       20.721      863.590
07/24/2013  05:37:00     -141.178      -34.370       -7.319       46.906       46.391       28.222     2200.127     2152.094      796.458        1.316        0.257      145.301       23.722        0.027      344.149       20.762      863.593
07/24/2013  05:38:00     -151.929      -32.960       -5.824       55.636       43.560       29.115     3095.346     1897.438      847.656        1.502        0.292      155.463       31.038        0.040      344.202       20.853      863.598
07/24/2013  05:39:00     -140.735      -35.056       -3.111       56.135       37.881       27.965     3151.142     1434.971      782.065        1.321        0.268      145.036       33.120        0.052      344.213       20.870      863.604
07/24/2013  05:40:00     -146.653      -52.333      -11.260       40.087       41.384       20.620     1606.992     1712.602      425.186        1.406        0.187      155.710       17.015        0.012      344.164       20.789      863.600
07/24/2013  05:41:00     -103.735      -32.209        1.758       43.828       27.420       19.962     1920.932      751.846      398.464        0.744        0.154      108.621       17.870        0.027      344.226       20.894      863.607
07/24/2013  05:42:00     -115.915      -60.786       -3.071       56.925       37.038       23.344     3240.505     1371.814      544.965        1.115        0.258      130.886       25.248        0.037      344.248       20.931      863.604
07/24/2013  05:43:00     -150.504      -33.800       -3.881       39.803       28.603       23.350     1584.262      818.130      545.218        1.338        0.147      154.253       19.708        0.016      344.301       21.020      863.610
07/24/2013  05:44:00     -140.858      -33.126       -1.312       49.565       35.675       25.380     2456.717     1272.717      644.130        1.266        0.219      144.701       29.032        0.040      344.329       21.070      863.604
07/24/2013  05:45:00     -156.307      -25.308      -10.608       31.554       23.315       20.182      995.662      543.570      407.299        1.357        0.097      158.342       13.612        0.007      344.268       20.967      863.607
07/24/2013  05:46:00     -133.650      -34.822       -4.582       22.091       23.780       18.176      488.022      565.493      330.367        1.024        0.069      138.112        9.022        0.004      344.250       20.935      863.609
07/24/2013  05:47:00     -125.935      -28.031      -13.849       53.344       43.307       18.092     2845.619     1875.496      327.335        1.094        0.252      129.017       17.562        0.019      344.122       20.716      863.612
07/24/2013  05:48:00     -146.066      -50.093      -23.636       60.093       40.966       23.227     3611.125     1678.205      539.485        1.511        0.291      154.417       17.296        0.013      344.086       20.654      863.607
07/24/2013  05:49:00     -184.090      -63.148      -21.403       69.305       38.423       28.789     4803.197     1476.354      828.824        2.272        0.355      194.619       23.421        0.014      344.146       20.756      863.604
07/24/2013  05:50:00     -146.813      -48.069       -5.639       38.897       38.150       26.276     1512.989     1455.422      690.451        1.378        0.183      154.483       11.447        0.005      344.102       20.682      863.599
07/24/2013  05:51:00     -130.314      -68.784        0.335       38.862       46.930       20.907     1510.284     2202.429      437.084        1.293        0.207      147.353       17.624        0.014      344.120       20.714      863.592
07/24/2013  05:52:00     -111.777     -106.393       -1.254       65.637       55.817       41.828     4308.176     3115.540     1749.560        1.649        0.459      154.317       38.372        0.062      344.195       20.840      863.587
07/24/2013  05:53:00     -107.094     -110.770       11.261       76.120       63.513       44.384     5794.320     4033.890     1969.946        1.783        0.590      154.075       48.173        0.098      344.279       20.983      863.580
07/24/2013  05:54:00     -166.360     -122.260        1.263       59.925       43.905       37.453     3590.978     1927.677     1402.751        2.477        0.346      206.454       34.186        0.027      344.368       21.134      863.577
07/24/2013  05:55:00     -106.920      -86.536      -10.229       56.200       67.479       26.769     3158.487     4553.430      716.558        1.372        0.421      137.551       20.658        0.023      344.340       21.089      863.578
07/24/2013  05:56:00      -83.639      -76.487        1.347       69.768       51.686       24.323     4867.520     2671.455      591.588        1.049        0.407      113.339       27.793        0.060      344.218       20.880      863.572
07/24/2013  05:57:00     -144.930     -117.951      -15.486       60.121       52.135       30.041     3614.582     2718.077      902.467        2.119        0.362      186.861       18.690        0.010      344.091       20.661      863.572
07/24/2013  05:58:00     -112.419     -110.946       -5.466       64.573       79.158       31.226     4169.639     6265.940      975.052        1.819        0.571      157.946       26.550        0.028      343.985       20.481      863.575
07/24/2013  05:59:00     -125.645     -125.343       -2.329       52.423       61.241       37.008     2748.123     3750.450     1369.580        1.968        0.393      177.475       21.185        0.014      343.994       20.496      863.582
07/24/2013  06:00:00     -130.776     -112.230       -3.252       72.495       54.555       40.376     5255.548     2976.222     1630.203        1.978        0.493      172.331       40.893        0.056      343.906       20.345      863.580
07/24/2013  06:01:00     -140.528     -111.210       -9.007       49.804       49.284       30.965     2480.410     2428.953      958.861        1.903        0.293      179.209       22.519        0.016      343.852       20.254      863.588
07/24/2013  06:02:00     -121.861     -109.854        0.092       51.842       46.730       33.093     2687.587     2183.712     1095.144        1.644        0.298      164.067       19.814        0.015      343.823       20.205      863.597
07/24/2013  06:03:00     -118.406      -85.549       -3.095       71.722       70.028       35.176     5144.018     4903.901     1237.336        1.631        0.564      146.077       41.046        0.079      343.833       20.222      863.613
07/24/2013  06:04:00      -55.905      -34.827        8.836       61.066       29.253       22.317     3729.036      855.736      498.048        0.475        0.254       65.866       31.104        0.223      343.799       20.165      863.630
07/24/2013  06:05:00      -54.987      -39.844       -2.538       40.951       26.558       20.862     1676.992      705.340      435.214        0.372        0.141       67.905       25.702        0.143      343.706       20.005      863.640
07/24/2013  06:06:00      -25.341      -51.688       11.262       31.630       39.429       18.093     1000.447     1554.639      327.345        0.316        0.144       57.566       15.916        0.076      343.599       19.823      863.645
07/24/2013  06:07:00      -99.962      -37.003        9.927       67.164       41.355       30.555     4511.010     1710.266      933.593        0.931        0.358      106.591       34.614        0.105      343.563       19.762      863.651
07/24/2013  06:08:00      -79.184      -23.687        3.147       44.252       30.163       25.020     1958.274      909.834      625.988        0.517        0.175       82.651       20.069        0.059      343.548       19.735      863.657
07/24/2013  06:09:00      -37.085      -38.040        3.239       33.842       20.539       21.925     1145.287      421.849      480.716        0.244        0.102       53.126       18.196        0.117      343.603       19.831      863.661
07/24/2013  06:10:00      -36.345      -43.537       -5.449       22.638       35.169       14.042      512.471     1236.887      197.168        0.260        0.097       56.713       12.343        0.047      343.570       19.775      863.662
07/24/2013  06:11:00      -37.480        1.702       -1.957       22.415       23.703       15.824      502.435      561.847      250.402        0.136        0.066       37.519       15.817        0.178      343.517       19.685      863.660
07/24/2013  06:12:00     -116.854       38.478        2.922       43.813       28.185       20.378     1919.549      794.422      415.266        0.914        0.156      123.027       17.654        0.021      343.452       19.574      863.658
07/24/2013  06:13:00      -90.801      -19.196       -2.689       34.945       24.594       15.520     1221.136      604.844      240.857        0.534        0.103       92.808       16.021        0.030      343.467       19.601      863.658
07/24/2013  06:14:00      -62.008       -9.628       -0.639       25.502       25.636       12.400      650.338      657.230      153.756        0.270        0.073       62.751       12.385        0.039      343.506       19.665      863.656
07/24/2013  06:15:00      -60.588        1.351        4.933       18.841       15.313       12.688      354.997      234.478      160.976        0.222        0.038       60.603       10.504        0.030      343.514       19.678      863.655
07/24/2013  06:16:00      -20.004      -32.677       -0.383       15.567       19.841        9.684      242.321      393.677       93.780        0.110        0.036       38.314        4.014        0.011      343.529       19.701      863.653
07/24/2013  06:17:00       -8.409      -17.293       -1.166       19.991       23.168       12.587      399.628      536.751      158.422        0.073        0.055       19.229       12.256        0.406      343.603       19.831      863.643
07/24/2013  06:18:00      -36.131      -59.209       -7.111       15.136       23.820       12.680      229.107      567.374      160.792        0.291        0.048       69.363       12.011        0.030      343.510       19.673      863.633
07/24/2013  06:19:00      -42.297      -28.040        7.219       27.539       31.979       19.591      758.373     1022.639      383.790        0.240        0.108       50.747       15.163        0.089      343.465       19.596      863.624
07/24/2013  06:20:00      -29.462      -47.455        0.196       29.036       33.367       19.739      843.103     1113.338      389.618        0.273        0.117       55.857       11.754        0.044      343.445       19.562      863.604
07/24/2013  06:21:00      -18.929      -41.784      -12.237       24.092       27.228       19.892      580.438      741.344      395.704        0.199        0.086       45.871        7.523        0.027      343.513       19.679      863.595
07/24/2013  06:22:00      -32.369      -47.848       -5.011       33.468       23.172       21.776     1120.078      536.960      474.184        0.275        0.107       57.768        9.759        0.029      343.524       19.697      863.589
07/24/2013  06:23:00      -23.216      -81.058       -3.336       33.628       28.796       30.414     1130.867      829.204      925.038        0.500        0.144       84.317       19.311        0.052      343.545       19.733      863.583
07/24/2013  06:24:00      -33.217      -69.048        5.038       28.572       34.453       22.474      816.378     1187.010      505.095        0.420        0.125       76.622       17.580        0.053      343.550       19.741      863.583
07/24/2013  06:25:00      -18.662      -67.015       -6.781       36.752       38.258       20.757     1350.673     1463.646      430.838        0.406        0.162       69.565       18.998        0.075      343.508       19.670      863.573
07/24/2013  06:26:00      -44.095      -43.243       -6.256       35.224       26.590       19.815     1240.703      707.008      392.618        0.310        0.117       61.760       13.166        0.045      343.445       19.561      863.570
07/24/2013  06:27:00      -40.195      -79.751       -0.060       26.196       47.473       17.016      686.230     2253.675      289.539        0.560        0.161       89.307       22.211        0.062      343.443       19.557      863.575
07/24/2013  06:28:00      -19.740      -60.070        9.206       38.092       40.172       27.381     1450.976     1613.791      749.746        0.395        0.191       63.230       26.693        0.178      343.486       19.630      863.572
07/24/2013  06:29:00      -17.560      -75.977        4.348       17.364       42.156       19.472      301.521     1777.103      379.172        0.428        0.123       77.980       15.242        0.038      343.536       19.717      863.555
07/24/2013  06:30:00      -11.627      -24.117        5.328       34.131       17.440       17.287     1164.904      304.154      298.826        0.126        0.088       26.773       15.917        0.353      343.623       19.865      863.553
07/24/2013  06:31:00      -19.647      -15.513        5.982       23.583       22.393       17.350      556.148      501.442      301.036        0.101        0.068       25.033       14.776        0.348      343.618       19.856      863.563
07/24/2013  06:32:00        2.007      -42.006      -11.773       18.437       29.442       16.860      339.917      866.829      284.273        0.170        0.075       42.054       12.473        0.088      343.674       19.951      863.575
07/24/2013  06:33:00       -0.184      -33.353        4.744       20.733       32.380       17.793      429.851     1048.438      316.599        0.146        0.090       33.353       15.011        0.203      343.706       20.007      863.594
07/24/2013  06:34:00      -40.270      -36.337        0.123       43.918       21.094       19.440     1928.794      444.942      377.928        0.285        0.138       54.240       22.220        0.168      343.612       19.846      863.599
07/24/2013  06:35:00      -59.525      -23.070        3.220       34.637       27.256       15.320     1199.706      742.890      234.703        0.313        0.109       63.840       16.685        0.068      343.547       19.736      863.614
07/24/2013  06:36:00      -70.870       -9.510       -5.313       15.137       16.528       11.622      229.114      273.181      135.062        0.289        0.032       71.505        5.795        0.007      343.530       19.709      863.632
07/24/2013  06:37:00      -34.992      -37.305       -0.842       23.372       19.133       11.002      546.246      366.073      121.044        0.182        0.052       51.148        9.013        0.031      343.552       19.743      863.648
07/24/2013  06:38:00      -47.041      -35.916        2.586       25.481       11.919       10.936      649.292      142.060      119.603        0.221        0.046       59.185       11.099        0.035      343.565       19.768      863.662
07/24/2013  06:39:00      -25.078      -50.937        0.173       34.284       24.274       15.321     1175.405      589.226      234.745        0.261        0.100       56.776        9.970        0.031      343.580       19.792      863.683
07/24/2013  06:40:00      -80.398      -77.996       -4.951       35.793       20.959       18.009     1281.139      439.296      324.310        0.731        0.102      112.014       19.348        0.030      343.517       19.686      863.695
07/24/2013  06:41:00      -65.727      -46.041       -8.847       31.785       19.470       11.014     1010.284      379.100      121.300        0.401        0.076       80.248        9.318        0.013      343.550       19.740      863.688
07/24/2013  06:42:00      -48.247      -43.505        0.679       26.413       28.352       15.054      697.651      803.833      226.614        0.297        0.086       64.965       13.728        0.045      343.562       19.759      863.688
07/24/2013  06:43:00      -16.164      -41.929       10.826       28.426       37.758       21.552      808.037     1425.645      464.493        0.242        0.135       44.937       18.810        0.175      343.572       19.778      863.692
07/24/2013  06:44:00      -29.415      -34.214        2.384       42.085       22.208       18.152     1771.171      493.211      329.512        0.232        0.130       45.120       14.380        0.102      343.619       19.857      863.697
07/24/2013  06:45:00      -64.079      -39.341       -9.869       42.130       30.738       19.630     1774.898      944.842      385.336        0.443        0.155       75.192       11.456        0.023      343.575       19.782      863.701
07/24/2013  06:46:00      -35.446      -45.791       -2.926       31.683       37.099       18.191     1003.791     1376.300      330.915        0.304        0.136       57.907       18.046        0.097      343.611       19.843      863.700
07/24/2013  06:47:00      -59.602      -22.804       -0.305       33.677       24.724       18.769     1134.148      611.262      352.267        0.308        0.105       63.816       17.618        0.076      343.559       19.755      863.691
07/24/2013  06:48:00      -48.692      -81.332        0.204       27.719       44.142       23.168      768.324     1948.484      536.751        0.612        0.163       94.793       15.680        0.027      343.627       19.873      863.689
07/24/2013  06:49:00      -51.244      -65.830       -1.798       49.550       46.745       23.587     2455.161     2185.104      556.332        0.608        0.260       83.424       30.619        0.135      343.601       19.826      863.699
07/24/2013  06:50:00      -65.460      -77.713       -1.370       42.047       47.019       25.165     1767.963     2210.771      633.287        0.747        0.231      101.609       24.620        0.059      343.568       19.772      863.701
07/24/2013  06:51:00      -62.094      -69.791       -3.949       53.751       36.016       22.752     2889.128     1297.185      517.647        0.672        0.235       93.416       21.396        0.052      343.532       19.710      863.694
07/24/2013  06:52:00      -47.363      -51.267       -1.436       41.768       34.398       28.128     1744.541     1183.201      791.170        0.430        0.186       69.797       18.589        0.071      343.569       19.771      863.694
07/24/2013  06:53:00      -51.953      -66.280       -0.453       49.337       33.612       18.967     2434.174     1129.787      359.733        0.551        0.196       84.215       16.745        0.040      343.542       19.727      863.702
07/24/2013  06:54:00     -109.555      -86.024        1.220       45.545       45.823       25.865     2074.382     2099.719      668.992        1.212        0.242      139.293       22.290        0.026      343.467       19.598      863.706
07/24/2013  06:55:00      -96.784      -77.300       -3.079       38.976       27.352       21.186     1519.109      748.157      448.834        0.903        0.136      123.865       17.300        0.020      343.469       19.603      863.712
07/24/2013  06:56:00     -107.878      -74.159        0.282       51.329       44.100       18.267     2634.674     1944.840      333.682        1.102        0.246      130.909       17.647        0.018      343.448       19.567      863.713
07/24/2013  06:57:00      -85.316      -98.108       -1.027       51.653       44.796       28.934     2668.079     2006.682      837.194        1.121        0.276      130.016       24.711        0.036      343.487       19.633      863.714
07/24/2013  06:58:00      -46.521      -38.590        9.547       44.731       38.807       24.681     2000.863     1506.011      609.173        0.393        0.206       60.443       21.932        0.132      343.522       19.694      863.712
07/24/2013  06:59:00     -101.724      -92.115        0.707       69.346       35.186       30.606     4808.862     1238.030      936.722        1.291        0.349      137.233       30.260        0.049      343.482       19.625      863.720
07/24/2013  07:00:00      -77.373      -55.207       10.360       58.322       31.495       25.886     3401.461      991.951      670.097        0.710        0.253       95.049       23.274        0.060      343.470       19.604      863.726
07/24/2013  07:01:00      -67.872      -42.422        7.602       47.107       32.829       24.255     2219.102     1077.770      588.310        0.517        0.194       80.039       11.723        0.021      343.474       19.611      863.742
07/24/2013  07:02:00      -82.461      -96.835       -1.320       39.916       40.673       21.335     1593.290     1654.261      455.199        0.994        0.185      127.189       21.958        0.030      343.448       19.567      863.750
07/24/2013  07:03:00     -110.952      -75.152        1.258       30.862       43.604       20.802      952.438     1901.308      432.719        1.062        0.164      134.008       15.292        0.013      343.430       19.536      863.760
07/24/2013  07:04:00     -102.765      -94.253       -3.021       57.797       41.425       28.863     3340.444     1716.010      833.082        1.267        0.294      139.442       25.977        0.035      343.442       19.554      863.766
07/24/2013  07:05:00      -94.839     -103.270       12.081       72.147       62.940       38.237     5205.189     3961.383     1462.036        1.521        0.531      140.211       39.214        0.078      343.433       19.541      863.773
07/24/2013  07:06:00     -112.659     -118.505        4.510       73.517       59.725       40.521     5404.741     3567.058     1641.914        1.868        0.531      163.510       36.795        0.051      343.365       19.423      863.762
07/24/2013  07:07:00      -67.449     -106.287        8.161       61.940       57.611       44.176     3836.599     3319.071     1951.560        1.251        0.455      125.882       36.239        0.083      343.353       19.404      863.748
07/24/2013  07:08:00      -76.266      -72.510        2.365       68.228       47.574       31.437     4654.993     2263.280      988.301        0.949        0.395      105.234       26.333        0.063      343.370       19.433      863.749
07/24/2013  07:09:00      -98.103      -63.493        2.562       59.393       46.910       34.151     3527.563     2200.549     1166.268        1.028        0.345      116.857       30.383        0.068      343.315       19.339      863.755
07/24/2013  07:10:00      -95.740      -55.871       13.362       58.680       45.630       27.619     3443.384     2082.093      762.820        0.938        0.314      110.850       26.429        0.057      343.353       19.406      863.763
07/24/2013  07:11:00     -133.003     -103.230       -8.453       70.940       51.870       36.133     5032.520     2690.465     1305.580        1.872        0.451      168.364       33.547        0.040      343.342       19.385      863.770
07/24/2013  07:12:00     -131.476      -67.823       -3.664       46.359       61.543       29.336     2149.155     3787.557      860.599        1.435        0.340      147.939       27.481        0.035      343.372       19.437      863.770
07/24/2013  07:13:00     -112.030     -124.344       -8.452       55.700       55.951       27.435     3102.472     3130.533      752.677        1.753        0.349      167.368       25.844        0.024      343.388       19.463      863.774
07/24/2013  07:14:00      -78.483      -65.995       -9.539       36.267       63.366       21.950     1315.265     4015.240      481.810        0.821        0.291      102.542       19.673        0.037      343.449       19.568      863.771
07/24/2013  07:15:00      -30.972      -53.692        5.480       40.858       29.692       21.120     1669.373      881.629      446.068        0.343        0.150       61.985       22.928        0.137      343.554       19.747      863.774
07/24/2013  07:16:00      -39.892      -35.239        9.800       35.052       33.685       20.042     1228.615     1134.679      401.669        0.285        0.138       53.227       13.276        0.062      343.628       19.873      863.776
07/24/2013  07:17:00      -62.570      -55.622        0.493       27.597       53.271       31.146      761.617     2837.787      970.055        0.579        0.228       83.718       23.157        0.077      343.669       19.944      863.774
07/24/2013  07:18:00      -34.031      -50.313        7.293       25.293       25.036       21.641      639.718      626.808      468.337        0.274        0.087       60.741       11.361        0.035      343.770       20.117      863.768
07/24/2013  07:19:00      -24.241      -18.073        2.400       19.627       23.790       14.277      385.218      565.963      203.836        0.104        0.058       30.236       14.205        0.221      343.861       20.272      863.772
07/24/2013  07:20:00      -52.758       -0.951       17.348       51.634       33.938       19.909     2666.073     1151.802      396.379        0.365        0.211       52.766       16.137        0.094      344.015       20.535      863.773
07/24/2013  07:21:00      -25.721      -29.525       18.824       24.621       27.729       17.364      606.184      768.920      301.506        0.178        0.084       39.157       14.507        0.137      343.973       20.462      863.775
07/24/2013  07:22:00      -43.914       -5.235        0.989       18.583       24.363       18.319      345.310      593.536      335.591        0.162        0.064       44.225       14.537        0.108      343.919       20.371      863.781
07/24/2013  07:23:00      -37.487       -4.181       -0.940       14.473       13.129        7.441      209.457      172.363       55.374        0.093        0.022       37.719        5.161        0.019      343.914       20.363      863.771
07/24/2013  07:24:00      -41.511      -16.068       -7.778       15.842       21.785       15.833      250.973      474.566      250.682        0.151        0.049       44.512       10.218        0.053      344.008       20.522      863.766
07/24/2013  07:25:00      -66.755        5.744        0.363       26.106       22.375       15.081      681.549      500.621      227.435        0.295        0.070       67.001       15.887        0.056      343.992       20.497      863.773
07/24/2013  07:26:00      -14.012      -13.968        6.870       20.661       22.464       19.804      426.876      504.636      392.190        0.088        0.066       19.785       19.434        0.965      344.425       21.234      863.766
07/24/2013  07:27:00      -12.378      -14.625       10.099       38.827       25.614       24.687     1507.512      656.060      609.437        0.162        0.139       19.160       24.310        1.610      344.257       20.948      863.780
07/24/2013  07:28:00      -32.758      -44.414       -4.967       24.664       41.515       22.223      608.337     1723.481      493.874        0.295        0.141       55.188       18.921        0.118      344.102       20.684      863.783
07/24/2013  07:29:00      -46.310      -41.305       -0.571       36.142       48.347       22.635     1306.249     2337.475      512.352        0.400        0.208       62.054       15.362        0.061      344.139       20.746      863.784
07/24/2013  07:30:00      -71.294      -25.286       -9.668       42.404       39.566       19.026     1798.102     1565.500      361.999        0.477        0.186       75.645       17.130        0.051      344.060       20.612      863.790
07/24/2013  07:31:00      -48.988      -33.701        0.177       31.922       32.473       20.207     1019.027     1054.479      408.311        0.301        0.124       59.461       19.272        0.105      344.186       20.825      863.788
07/24/2013  07:32:00      -58.187      -38.566        2.886       36.388       23.438       20.798     1324.069      549.347      432.577        0.359        0.115       69.807       13.901        0.040      344.166       20.792      863.782
07/24/2013  07:33:00      -47.351      -50.769        2.085       24.284       31.642       19.209      589.716     1001.243      368.994        0.339        0.098       69.424       16.805        0.059      344.180       20.815      863.776
07/24/2013  07:34:00      -30.108      -75.257        7.039       61.049       43.962       32.737     3726.931     1932.620     1071.723        0.667        0.337       81.056       40.158        0.245      344.184       20.824      863.768
07/24/2013  07:35:00      -48.453      -26.289       12.497       46.936       44.770       29.564     2203.017     2004.313      874.014        0.414        0.254       55.125       25.708        0.217      344.305       21.030      863.764
07/24/2013  07:36:00      -64.654      -59.145       -0.177       83.502       51.405       34.887     6972.645     2642.466     1217.128        0.925        0.542       87.626       29.789        0.116      344.238       20.916      863.748
07/24/2013  07:37:00      -41.117      -86.588      -12.771       52.475       38.085       19.031     2753.662     1450.474      362.189        0.696        0.228       95.854       12.600        0.017      344.229       20.898      863.735
07/24/2013  07:38:00      -99.195      -53.082       -3.933       50.790       28.008       23.257     2579.593      784.441      540.891        0.829        0.195      112.505       18.595        0.027      344.275       20.977      863.726
07/24/2013  07:39:00      -94.452      -40.239       -4.006       54.972       35.794       21.583     3021.928     1281.194      465.845        0.766        0.238      102.666       23.722        0.053      344.354       21.114      863.723
07/24/2013  07:40:00      -76.244      -42.970       -3.676       47.938       28.839       22.021     2298.021      831.678      484.935        0.564        0.181       87.519       16.625        0.036      344.351       21.109      863.724
07/24/2013  07:41:00      -66.858      -53.579        7.469       45.950       54.287       27.918     2111.381     2947.118      779.418        0.662        0.292       85.678       29.375        0.118      344.501       21.365      863.731
07/24/2013  07:42:00      -29.609      -23.724       18.566       54.245       51.572       32.781     2942.476     2659.633     1074.610        0.423        0.334       37.941       27.180        0.513      344.692       21.690      863.722
07/24/2013  07:43:00      -82.970      -78.489        4.858       82.656       49.718       27.920     6832.090     2471.868      779.537        1.157        0.504      114.213       28.749        0.063      344.487       21.338      863.725
07/24/2013  07:44:00      -92.497     -109.916       -3.895       43.608       34.140       19.632     1901.617     1165.559      385.433        1.205        0.173      143.657       14.647        0.010      344.447       21.271      863.729
07/24/2013  07:45:00     -119.382      -96.820       -1.686       44.622       43.804       25.742     1991.122     1918.781      662.632        1.410        0.229      153.708       23.760        0.024      344.442       21.262      863.735
07/24/2013  07:46:00      -37.507      -65.649        7.895       40.086       27.039       22.474     1606.917      731.132      505.060        0.431        0.142       75.608       16.321        0.047      344.557       21.461      863.746
07/24/2013  07:47:00      -63.602      -72.239       -1.465       38.093       22.470       19.147     1451.106      504.907      366.618        0.579        0.116       96.248       21.872        0.052      344.562       21.470      863.753
07/24/2013  07:48:00      -46.423      -46.510       -0.415       37.451       20.386       14.695     1402.600      415.596      215.944        0.318        0.102       65.714       17.962        0.075      344.622       21.572      863.764
07/24/2013  07:49:00      -35.726      -60.470        4.189       25.191       33.638       21.867      634.587     1131.521      478.163        0.360        0.112       70.235       21.162        0.091      344.696       21.697      863.771
07/24/2013  07:50:00      -65.919      -48.094       -1.789       34.606       24.137       18.320     1197.601      582.608      335.606        0.439        0.106       81.598       12.896        0.025      344.657       21.632      863.792
07/24/2013  07:51:00     -124.060      -91.543       -8.955       55.919       34.927       24.671     3126.940     1219.928      608.667        1.440        0.248      154.179       25.834        0.028      344.616       21.561      863.809
07/24/2013  07:52:00      -90.681      -54.886        2.231       41.318       43.905       26.906     1707.217     1927.665      723.925        0.780        0.218      105.998       19.486        0.034      344.620       21.568      863.822
07/24/2013  07:53:00      -54.361      -70.464       -1.799       37.595       40.607       15.675     1413.361     1648.904      245.711        0.562        0.165       88.996       13.900        0.024      344.613       21.557      863.832
07/24/2013  07:54:00      -76.884      -30.706       -2.760       35.861       27.936       18.747     1286.032      780.433      351.440        0.464        0.121       82.789        8.694        0.011      344.684       21.676      863.841
07/24/2013  07:55:00      -78.842      -22.430      -12.295       18.084       18.103       15.145      327.024      327.724      229.369        0.388        0.044       81.971       12.941        0.025      344.713       21.724      863.852
07/24/2013  07:56:00      -60.836       -6.358      -12.813       22.768       16.292       19.372      518.404      265.431      375.255        0.253        0.058       61.168       13.954        0.052      344.744       21.779      863.842
07/24/2013  07:57:00      -44.028      -30.318       -1.171       34.288       38.821       21.866     1175.690     1507.074      478.143        0.301        0.158       53.457       13.995        0.069      344.763       21.813      863.834
07/24/2013  07:58:00      -27.329      -23.990        7.846       14.601       19.748       14.504      213.186      389.967      210.361        0.110        0.041       36.365        7.160        0.039      344.979       22.183      863.824
07/24/2013  07:59:00        1.736      -21.591        1.496        8.283       12.155       12.926       68.616      147.733      167.086        0.043        0.019       21.661        8.301        0.147      345.084       22.363      863.807
07/24/2013  08:00:00      -12.704      -12.299        9.295       10.926       13.498       12.084      119.376      182.186      146.019        0.042        0.022       17.682       10.241        0.335      345.163       22.498      863.789
07/24/2013  08:01:00      -36.739       -9.250        3.397       15.294       19.983       10.075      233.920      399.336      101.507        0.109        0.037       37.886        9.188        0.059      344.884       22.020      863.780
07/24/2013  08:02:00       -9.104      -29.819       -4.068       19.110       21.979       14.360      365.193      483.061      206.209        0.102        0.053       31.177        8.212        0.069      345.031       22.272      863.773
07/24/2013  08:03:00      -39.146        6.006       -4.354       21.601       12.374       13.422      466.583      153.126      180.139        0.119        0.040       39.604       10.955        0.077      345.138       22.453      863.760
07/24/2013  08:04:00      -21.882       -5.092       13.207       30.182       18.700       19.339      910.938      349.674      373.993        0.116        0.082       22.467       19.397        0.745      345.427       22.949      863.746
07/24/2013  08:05:00      -26.444       -4.898        8.440       33.318       22.376       15.828     1110.083      500.675      250.519        0.133        0.093       26.894       16.747        0.388      345.462       23.010      863.743
07/24/2013  08:06:00      -61.435      -33.016       -2.745       34.007       32.624       15.782     1156.498     1064.339      249.086        0.367        0.123       69.745       13.702        0.039      345.024       22.260      863.739
07/24/2013  08:07:00      -27.934       -4.310      -10.400       12.886       16.993        9.588      166.050      288.761       91.935        0.073        0.027       28.265       10.323        0.133      345.129       22.440      863.734
07/24/2013  08:08:00      -30.854       33.662       14.229       19.473       19.090       19.785      379.182      364.412      391.451        0.171        0.057       45.663       13.984        0.094      345.480       23.041      863.736
07/24/2013  08:09:00      -46.688       19.571       -1.094       27.174       18.074       15.782      738.423      326.665      249.080        0.194        0.066       50.624       10.649        0.044      345.155       22.483      863.730
07/24/2013  08:10:00      -50.637      -32.759       -1.781       25.413       23.552       15.482      645.834      554.683      239.705        0.254        0.072       60.310       13.173        0.048      345.302       22.738      863.724
07/24/2013  08:11:00      -73.136      -20.616       -3.615       21.403       17.496       11.784      458.086      306.097      138.855        0.334        0.045       75.986        9.668        0.016      345.119       22.422      863.713
07/24/2013  08:12:00      -41.320        3.051       -3.497       17.856       13.806        9.742      318.825      190.617       94.913        0.117        0.030       41.432        5.163        0.016      345.177       22.521      863.703
07/24/2013  08:13:00      -25.910        8.056       -1.165       28.973       22.656       17.501      839.411      513.283      306.281        0.120        0.083       27.133        9.077        0.112      345.478       23.038      863.697
07/24/2013  08:14:00      -29.524       -7.367      -13.943       23.701       16.600       17.540      561.715      275.556      307.645        0.113        0.057       30.429       13.658        0.201      345.376       22.862      863.692
07/24/2013  08:15:00      -21.742       14.149        9.681       19.467       24.549       20.726      378.973      602.656      429.562        0.109        0.071       25.941       11.420        0.194      345.751       23.504      863.691
07/24/2013  08:16:00      -34.582      -11.169       13.676       22.832       21.379       17.727      521.283      457.067      314.261        0.140        0.065       36.341       15.711        0.187      345.516       23.102      863.694
07/24/2013  08:17:00      -58.403      -47.134        2.821       31.283       30.290       17.014      978.604      917.510      289.463        0.391        0.109       75.050       11.734        0.024      345.294       22.721      863.694
07/24/2013  08:18:00       10.314        3.739       22.473       31.329       21.045       18.769      981.527      442.902      352.272        0.120        0.089       10.970       10.900        0.987      345.936       23.822      863.693
07/24/2013  08:19:00        1.684        6.497       46.337       22.435       26.136       23.182      503.318      683.095      537.399        0.196        0.086        6.712       15.615        5.413      346.589       24.946      863.691
07/24/2013  08:20:00       -2.700        8.652       40.915       16.674       43.336       15.609      278.036     1878.035      243.638        0.208        0.120        9.063       19.231        4.503      346.390       24.603      863.701
07/24/2013  08:21:00      -31.303       20.886       32.334       20.826       19.803       17.859      433.732      392.146      318.926        0.180        0.057       37.632       11.768        0.098      346.028       23.982      863.717
07/24/2013  08:22:00      -14.674      -14.787        4.925       26.797       21.595       18.524      718.063      466.329      343.130        0.099        0.076       20.832       15.534        0.556      345.910       23.780      863.723
07/24/2013  08:23:00      -26.210        5.905       26.984       18.006       24.203       24.282      324.204      585.774      589.631        0.147        0.075       26.867       20.072        0.558      345.994       23.924      863.723
07/24/2013  08:24:00        5.398        6.897       36.624       28.418       36.005       29.807      807.605     1296.335      888.470        0.220        0.150        8.758       21.139        5.825      346.041       24.003      863.720
07/24/2013  08:25:00       27.550        2.061       37.976       52.719       54.967       36.056     2779.344     3021.385     1300.007        0.465        0.355       27.627       31.322        1.285      345.937       23.825      863.722
07/24/2013  08:26:00       70.338      -20.063        3.927       40.894       28.055       33.143     1672.337      787.106     1098.429        0.446        0.178       73.144       27.207        0.138      345.660       23.350      863.718
07/24/2013  08:27:00       34.493        1.303       24.219       26.953       30.426       28.167      726.454      925.717      793.383        0.211        0.122       34.517       22.223        0.415      345.843       23.663      863.723
07/24/2013  08:28:00       21.322      -25.222        7.859       27.597       43.523       22.876      761.605     1894.247      523.292        0.217        0.159       33.027        6.039        0.033      345.636       23.308      863.715
07/24/2013  08:29:00        9.149      -47.316       18.467       24.617       20.018       26.776      605.985      400.718      716.981        0.219        0.086       48.193       13.931        0.084      345.840       23.657      863.714
07/24/2013  08:30:00        1.464      -22.516       29.299       23.828       40.986       26.606      567.790     1679.831      707.880        0.216        0.148       22.563       21.877        0.940      346.294       24.438      863.712
07/24/2013  08:31:00       42.911      -68.604        9.091       45.058       49.714       38.887     2030.202     2471.440     1512.232        0.632        0.301       80.919       33.478        0.171      346.031       23.986      863.707
07/24/2013  08:32:00       52.549      -66.080        7.106       51.069       50.542       42.063     2607.998     2554.476     1769.294        0.705        0.347       84.428       29.697        0.124      345.937       23.824      863.706
07/24/2013  08:33:00       30.339      -22.140       26.387       31.423       32.549       26.614      987.408     1059.421      708.299        0.243        0.138       37.558       16.697        0.198      346.277       24.409      863.711
07/24/2013  08:34:00        5.343       24.006       19.503       33.555       50.036       22.702     1125.962     2503.560      515.376        0.256        0.207       24.593       11.605        0.223      346.155       24.199      863.703
07/24/2013  08:35:00       -5.128      -16.090       16.518       24.346       40.507       30.323      592.743     1640.849      919.468        0.185        0.158       16.887       10.682        0.400      346.264       24.386      863.708
07/24/2013  08:36:00        1.381        2.863        7.627       24.788       30.660       26.185      614.439      940.008      685.636        0.115        0.112        3.179       17.636       30.786      346.174       24.232      863.714
07/24/2013  08:37:00       31.103      -32.879        8.751       26.096       42.083       27.861      680.987     1771.014      776.253        0.268        0.161       45.259       18.037        0.159      346.102       24.109      863.709
07/24/2013  08:38:00       33.853      -25.227        5.598       28.502       36.171       29.444      812.344     1308.355      866.920        0.240        0.149       42.218       18.174        0.185      346.070       24.054      863.709
07/24/2013  08:39:00       30.144        3.638       35.884       37.098       48.633       22.249     1376.290     2365.182      494.998        0.322        0.212       30.363       17.660        0.338      346.603       24.969      863.711
07/24/2013  08:40:00       48.821      -69.836       15.946       57.568       63.918       40.127     3314.073     4085.528     1610.191        0.826        0.450       85.209       38.877        0.208      346.316       24.476      863.707
07/24/2013  08:41:00       41.419       -2.923       46.140       52.136       54.347       43.742     2718.163     2953.563     1913.324        0.572        0.379       41.522       33.198        0.639      346.457       24.719      863.709
07/24/2013  08:42:00       30.446      -15.424       50.674       38.666       32.366       28.129     1495.054     1047.543      791.221        0.353        0.167       34.130       21.601        0.401      346.367       24.563      863.720
07/24/2013  08:43:00       28.479      -29.627       27.676       34.244       52.824       38.537     1172.648     2790.360     1485.138        0.395        0.272       41.095       12.029        0.086      346.321       24.484      863.716
07/24/2013  08:44:00       29.019        9.591       44.022       33.148       38.677       28.646     1098.771     1495.879      820.616        0.314        0.171       30.563       21.452        0.493      346.789       25.291      863.715
07/24/2013  08:45:00       14.587       29.212       57.953       49.117       42.180       29.980     2412.527     1779.187      898.790        0.476        0.255       32.652       33.703        1.065      346.652       25.054      863.698
07/24/2013  08:46:00       38.312      -39.786       30.635       43.434       41.661       29.294     1886.501     1735.615      858.151        0.423        0.224       55.234       20.583        0.139      346.417       24.651      863.682
07/24/2013  08:47:00       18.511      -48.611       32.520       48.181       69.548       45.734     2321.422     4836.927     2091.553        0.650        0.462       52.016       31.782        0.373      346.465       24.733      863.664
07/24/2013  08:48:00       38.174      -34.123       36.570       43.034       53.875       42.222     1851.904     2902.569     1782.694        0.525        0.327       51.202       23.858        0.217      346.674       25.091      863.665
07/24/2013  08:49:00       21.640      -39.551       25.435       43.712       49.456       36.903     1910.712     2445.941     1361.813        0.420        0.286       45.084       23.503        0.272      346.324       24.491      863.657
07/24/2013  08:50:00       20.339      -21.042        0.807       43.004       36.448       32.837     1849.352     1328.484     1078.279        0.256        0.213       29.264       29.590        1.022      346.541       24.862      863.649
07/24/2013  08:51:00      -17.440      -61.064       22.648       48.334       40.507       32.974     2336.213     1640.841     1087.311        0.480        0.253       63.505       26.341        0.172      346.373       24.575      863.638
07/24/2013  08:52:00       44.408      -57.333        8.549       49.772       55.596       40.995     2477.276     3090.888     1680.566        0.629        0.362       72.520       41.124        0.322      346.416       24.649      863.625
07/24/2013  08:53:00       26.673      -41.005       13.496       33.933       57.557       34.198     1151.433     3312.845     1169.483        0.410        0.282       48.917       32.606        0.444      346.578       24.926      863.613
07/24/2013  08:54:00       24.527      -20.076       29.641       61.637       68.202       41.667     3799.143     4651.536     1736.144        0.603        0.509       31.696       48.025        2.296      346.686       25.113      863.598
07/24/2013  08:55:00       78.088      -52.104       14.545       76.730       69.546       42.876     5887.514     4836.661     1838.372        1.079        0.628       93.875       43.871        0.218      346.414       24.644      863.582
07/24/2013  08:56:00       24.556      -34.473       16.771       53.430       72.688       59.359     2854.800     5283.525     3523.499        0.686        0.583       42.325       54.839        1.679      346.912       25.502      863.575
07/24/2013  08:57:00       10.454       17.400       50.072       36.340       38.375       28.910     1320.630     1472.636      835.814        0.327        0.181       20.299       24.203        1.422      347.200       25.998      863.583
07/24/2013  08:58:00       41.404        6.742       35.994       58.961       49.415       44.313     3476.347     2441.825     1963.620        0.547        0.394       41.949       46.012        1.203      346.862       25.417      863.588
07/24/2013  08:59:00       49.562      -69.329       18.409       53.163      115.422       71.670     2826.338    13322.352     5136.535        1.444        1.064       85.223       74.908        0.773      346.688       25.115      863.578
07/24/2013  09:00:00       38.886      -13.908       29.105       37.608       59.315       37.308     1414.384     3518.253     1391.884        0.444        0.316       41.299       43.151        1.092      346.970       25.602      863.595
07/24/2013  09:01:00       -8.015        4.813       40.755       16.556       32.972       20.875      274.101     1087.160      435.748        0.177        0.090        9.349       15.813        2.861      347.353       26.262      863.584
07/24/2013  09:02:00       25.363      -32.061        6.110       46.152       92.677       34.417     2130.046     8589.053     1184.521        0.680        0.595       40.880       25.887        0.401      346.876       25.439      863.595
07/24/2013  09:03:00       21.998      -15.471       50.703       46.111       50.849       42.042     2126.207     2585.587     1767.569        0.489        0.324       26.894       32.144        1.429      347.247       26.078      863.594
07/24/2013  09:04:00       29.983      -40.825       24.661       46.375       74.026       43.359     2150.633     5479.852     1879.974        0.634        0.476       50.653       44.624        0.776      346.960       25.584      863.602
07/24/2013  09:05:00       80.891     -106.807       -1.732       63.040       95.766       55.189     3974.015     9171.144     3045.835        1.707        0.810      133.982       55.883        0.174      347.070       25.772      863.606
07/24/2013  09:06:00       71.280      -44.110       20.915       93.179      104.113       56.240     8682.387    10839.562     3162.894        1.507        1.134       83.825       77.331        0.851      347.128       25.872      863.617
07/24/2013  09:07:00       30.273        8.405       52.784       51.058       52.039       42.387     2606.944     2708.056     1796.681        0.544        0.356       31.418       21.003        0.447      347.165       25.937      863.619
07/24/2013  09:08:00       62.942      -71.081       22.065       38.951       44.224       36.024     1517.206     1955.787     1297.714        0.713        0.239       94.943       25.910        0.074      346.559       24.893      863.621
07/24/2013  09:09:00       60.938      -25.907       30.898       41.756       80.758       35.710     1743.526     6521.872     1275.200        0.744        0.477       66.216       35.696        0.291      346.745       25.213      863.633
07/24/2013  09:10:00       24.119       29.429       21.826       37.902       36.857       26.356     1436.594     1358.436      694.659        0.271        0.174       38.050       18.148        0.227      347.356       26.267      863.618
07/24/2013  09:11:00        3.719       45.688       73.184       41.530       52.138       27.866     1724.717     2718.357      776.495        0.634        0.261       45.839       11.880        0.067      347.738       26.925      863.606
07/24/2013  09:12:00       37.048       17.625       33.778       35.308       49.511       34.867     1246.653     2451.378     1215.677        0.387        0.246       41.027       23.648        0.332      347.358       26.271      863.595
07/24/2013  09:13:00       29.285      -15.141       44.075       50.563       86.051       57.383     2556.579     7404.764     3292.849        0.814        0.663       32.968       50.448        2.342      347.380       26.309      863.582
07/24/2013  09:14:00       32.471      -74.661        6.907       46.798       61.035       40.242     2190.074     3725.231     1619.431        0.710        0.377       81.416       35.266        0.188      347.330       26.221      863.577
07/24/2013  09:15:00       73.870      -81.549        0.682       55.420       83.254       41.853     3071.415     6931.200     1751.681        1.193        0.588      110.032       47.961        0.190      347.377       26.301      863.584
07/24/2013  09:16:00       41.708      -45.731       21.645       59.645       67.380       58.013     3557.476     4540.073     3365.515        0.788        0.573       61.894       59.733        0.931      347.476       26.474      863.581
07/24/2013  09:17:00       23.354      -34.699       21.608       28.248       43.018       31.230      797.973     1850.547      975.321        0.292        0.181       41.826       21.856        0.273      347.568       26.631      863.588
07/24/2013  09:18:00      -38.742       22.540        1.584       30.388       23.877       33.596      923.408      570.102     1128.704        0.232        0.131       44.821       21.203        0.224      347.276       26.128      863.575
07/24/2013  09:19:00       -8.847       -2.764        8.498       47.802       30.911       34.448     2285.009      955.469     1186.690        0.229        0.221        9.268       31.555       11.591      347.487       26.493      863.577
07/24/2013  09:20:00       13.672      -18.632        0.037       41.082       32.818       33.762     1687.694     1077.016     1139.852        0.222        0.195       23.110       16.818        0.530      347.235       26.060      863.568
07/24/2013  09:21:00      -34.561       22.189        7.313       28.457       27.972       27.321      809.820      782.452      746.433        0.204        0.117       41.071       13.949        0.115      347.190       25.980      863.568
07/24/2013  09:22:00       16.801      -16.061       35.402       36.263       28.122       28.497     1315.016      790.834      812.092        0.236        0.146       23.243       14.857        0.409      347.660       26.790      863.563
07/24/2013  09:23:00      -21.942      -57.586       21.465       34.076       49.171       39.986     1161.168     2417.831     1598.919        0.472        0.259       61.625       35.719        0.336      347.481       26.480      863.555
07/24/2013  09:24:00       58.925      -94.772        0.494       41.959       50.200       35.458     1760.525     2520.085     1257.257        0.899        0.277      111.597       31.438        0.079      347.241       26.068      863.563
07/24/2013  09:25:00       30.499      -27.840       29.180       47.448       52.079       49.599     2251.285     2712.244     2460.096        0.499        0.371       41.295       30.085        0.531      347.529       26.566      863.544
07/24/2013  09:26:00       73.207     -102.406        0.013       81.815      102.471       60.603     6693.727    10500.235     3672.774        1.835        1.043      125.882       65.484        0.271      347.388       26.319      863.553
07/24/2013  09:27:00       95.124      -42.770       11.295       70.654       97.661       52.440     4991.930     9537.606     2750.004        1.414        0.864      104.297       60.014        0.331      347.482       26.483      863.557
07/24/2013  09:28:00       66.446      -31.860       38.896       60.576       79.109       58.460     3669.498     6258.280     3417.545        1.014        0.667       73.690       34.896        0.224      347.493       26.500      863.562
07/24/2013  09:29:00       92.217      -80.453       10.946       94.419      108.493       62.007     8914.879    11770.799     3844.824        1.981        1.227      122.379       85.410        0.487      347.514       26.537      863.581
07/24/2013  09:30:00        3.930       74.855       82.960       46.105       46.864       35.288     2125.673     2196.201     1245.261        0.903        0.278       74.958       21.529        0.082      347.700       26.861      863.593
07/24/2013  09:31:00       36.295       34.238       68.783       43.698       35.521       31.677     1909.488     1261.739     1003.433        0.570        0.209       49.896       11.144        0.050      347.625       26.730      863.576
07/24/2013  09:32:00       73.060      -16.916       36.096       65.693       70.630       63.508     4315.558     4988.646     4033.285        1.013        0.667       74.993       47.558        0.402      347.580       26.651      863.533
07/24/2013  09:33:00       44.574       58.181       95.352       55.799       50.674       40.859     3113.541     2567.809     1669.461        1.091        0.368       73.293       20.585        0.079      347.736       26.922      863.507
07/24/2013  09:34:00      100.817      -82.949       16.151       67.816       83.921       53.149     4598.956     7042.657     2824.837        1.588        0.723      130.555       53.237        0.166      347.614       26.710      863.498
07/24/2013  09:35:00       69.521      -84.195       32.366       59.414       85.752       61.406     3530.011     7353.419     3770.711        1.381        0.733      109.188       50.216        0.212      347.556       26.609      863.477
07/24/2013  09:36:00      111.473      -63.831       17.410       75.270       65.518       54.322     5665.508     4292.629     2950.894        1.485        0.645      128.454       51.459        0.160      347.549       26.598      863.486
07/24/2013  09:37:00       59.745      -81.379        6.441       55.088       54.593       43.319     3034.665     2980.358     1876.498        0.906        0.395      100.955       43.097        0.182      347.742       26.932      863.484
07/24/2013  09:38:00        1.528      -47.079       10.728       31.797       34.876       28.281     1011.062     1216.322      799.809        0.268        0.151       47.104       28.341        0.362      347.816       27.060      863.496
07/24/2013  09:39:00       42.605     -166.753       -4.491       60.763       63.779       46.568     3692.117     4067.699     2168.542        1.978        0.496      172.110       36.337        0.045      347.713       26.880      863.472
07/24/2013  09:40:00       -0.735      -76.511       -8.241       54.701       38.464       27.319     2992.169     1479.457      746.326        0.557        0.261       76.515       24.048        0.099      347.638       26.752      863.472
07/24/2013  09:41:00      -11.901      -13.982       11.643       23.730       31.611       28.139      563.120      999.271      791.817        0.141        0.118       18.361       24.590        1.794      348.002       27.381      863.477
07/24/2013  09:42:00       68.195       65.636       10.295       52.408       41.501       28.803     2746.612     1722.297      829.618        0.718        0.265       94.650       24.019        0.064      348.042       27.450      863.494
07/24/2013  09:43:00       46.556       -7.125        7.527       34.178       44.029       28.331     1168.135     1938.540      802.660        0.309        0.195       47.098       18.241        0.150      347.454       26.434      863.510
07/24/2013  09:44:00        2.928       12.809       31.071       48.060       24.039       26.937     2309.740      577.895      725.582        0.237        0.181       13.140       26.004        3.917      348.108       27.564      863.510
07/24/2013  09:45:00       11.264       13.289        5.278       32.788       24.795       23.450     1075.052      614.773      549.892        0.129        0.112       17.420       13.229        0.577      347.969       27.324      863.522
07/24/2013  09:46:00      -25.431       48.321       -0.288       34.961       27.917       31.802     1222.267      779.375     1011.374        0.300        0.151       54.605       20.211        0.137      347.854       27.126      863.524
07/24/2013  09:47:00      -43.915       82.795       -7.249       38.680       43.471       35.862     1496.151     1889.765     1286.055        0.675        0.234       93.720       20.223        0.047      347.874       27.160      863.519
07/24/2013  09:48:00      -69.889      138.607      -13.694       40.597       50.817       36.444     1648.086     2582.352     1328.198        1.492        0.278      155.230       28.346        0.033      347.843       27.105      863.534
07/24/2013  09:49:00       15.079      102.924      -14.288       78.188       37.684       36.853     6113.391     1420.107     1358.164        0.996        0.445      104.023       17.400        0.028      347.750       26.947      863.543
07/24/2013  09:50:00       11.619      113.764        1.622       68.964       46.778       36.749     4755.971     2188.226     1350.518        1.069        0.415      114.355       43.722        0.146      347.641       26.757      863.519
07/24/2013  09:51:00       -4.961        0.585       -6.611       56.958       41.559       25.939     3244.215     1727.164      672.825        0.286        0.282        4.995       23.329       21.813      347.978       27.339      863.517
07/24/2013  09:52:00      -47.214      -67.626        2.348       61.634       58.014       37.424     3798.806     3365.584     1400.578        0.768        0.428       82.477       39.247        0.226      347.930       27.257      863.473
07/24/2013  09:53:00       31.892      -72.973        6.811       37.343       52.228       43.538     1394.525     2727.791     1895.519        0.620        0.301       79.638       40.599        0.260      347.844       27.108      863.456
07/24/2013  09:54:00     -187.101      -56.493      -17.657      129.282       57.403       39.167    16713.862     3295.150     1534.022        3.002        1.077      195.443       54.065        0.077      348.043       27.448      863.467
07/24/2013  09:55:00     -276.211       -5.181       -5.609      100.682      121.572       48.429    10136.765    14779.856     2345.356        5.180        1.363      276.260       43.251        0.025      348.071       27.496      863.437
07/24/2013  09:56:00     -103.702     -237.712        9.440      119.369      150.425       64.488    14248.842    22627.715     4158.706        5.418        2.052      259.348       60.021        0.054      348.191       27.703      863.464
07/24/2013  09:57:00      -95.909     -168.704       29.178      123.874      149.830       76.706    15344.729    22449.007     5883.849        4.109        2.184      194.061       86.029        0.197      348.041       27.446      863.464
07/24/2013  09:58:00     -141.770     -134.943       16.886      124.836      112.130       69.170    15584.137    12573.052     4784.433        3.576        1.647      195.726       69.730        0.127      348.208       27.733      863.470
07/24/2013  09:59:00     -298.241      -47.960       -1.482      160.389      126.428       59.353    25724.738    15984.067     3522.724        6.823        2.262      302.073       52.974        0.031      347.983       27.344      863.463
07/24/2013  10:00:00     -363.163     -159.113      -26.404      136.837      115.950       70.752    18724.241    13444.409     5005.830        9.753        1.859      396.490       53.148        0.018      347.893       27.189      863.449
07/24/2013  10:01:00     -275.674      -32.560      -17.949      182.928       83.542       64.985    33462.541     6979.282     4223.078        6.101        2.233      277.590       85.296        0.094      348.164       27.659      863.424
07/24/2013  10:02:00     -186.400      -27.410       -7.716       94.636       92.654       43.110     8955.953     8584.703     1858.510        2.747        0.970      188.404       38.279        0.041      348.279       27.856      863.438
07/24/2013  10:03:00     -392.538     -116.246      -23.790      127.045       89.171       65.445    16140.546     7951.488     4283.016        9.826        1.419      409.389       73.280        0.032      348.089       27.528      863.450
07/24/2013  10:04:00     -168.207     -110.790        8.274      146.844       98.714       54.870    21563.200     9744.552     3010.767        3.747        1.716      201.415       73.534        0.133      348.377       28.027      863.431
07/24/2013  10:05:00     -130.994       29.455       20.443      137.053       70.295       50.086    18783.593     4941.362     2508.573        2.233        1.312      134.264       62.271        0.215      348.628       28.461      863.426
07/24/2013  10:06:00     -258.442     -115.258       -5.942      168.608      113.547       57.294    28428.703    12893.005     3282.575        6.235        2.230      282.978       59.225        0.044      348.309       27.908      863.415
07/24/2013  10:07:00     -335.048     -131.041      -20.355      173.066      148.800       74.602    29951.824    22141.472     5565.504        9.374        2.883      359.762       86.274        0.058      348.231       27.771      863.418
07/24/2013  10:08:00     -320.700     -118.776       -5.302      199.230      128.514       78.401    39692.764    16515.938     6146.721        8.966        3.118      341.989       81.837        0.057      348.220       27.752      863.434
07/24/2013  10:09:00     -337.280     -145.781       -5.665      138.030      114.533       58.154    19052.273    13117.745     3381.895        8.529        1.778      367.436       61.734        0.028      348.231       27.772      863.444
07/24/2013  10:10:00     -491.291      -88.591      -29.175      139.839      172.989       82.427    19554.842    29925.041     6794.134       15.316        2.814      499.215       81.118        0.026      348.064       27.485      863.444
07/24/2013  10:11:00     -371.221       -0.477      -20.371      152.255      114.047       72.944    23181.566    13006.817     5320.883        8.986        2.075      371.221       69.392        0.035      348.227       27.766      863.424
07/24/2013  10:12:00     -378.248      -48.268       -9.921      249.952      114.457       73.591    62475.759    13100.311     5415.680       11.323        4.050      381.315       95.323        0.062      348.420       28.099      863.428
07/24/2013  10:13:00     -399.479     -112.242      -28.176      190.074      129.203       79.257    36128.259    16693.356     6281.688       11.603        2.955      414.947       86.326        0.043      348.125       27.588      863.423
07/24/2013  10:14:00     -283.804     -222.766      -21.562      179.392      116.788       72.708    32181.397    13639.388     5286.503        9.086        2.555      360.790       83.553        0.054      348.213       27.742      863.430
07/24/2013  10:15:00     -295.688     -262.708       14.038      171.170      137.456       96.895    29299.023    18894.278     9388.719       10.710        2.879      395.534      105.374        0.071      348.122       27.584      863.397
07/24/2013  10:16:00     -241.915     -222.453       12.045      209.862      174.754      109.921    44041.876    30538.996    12082.652        9.739        4.333      328.646      130.188        0.157      348.341       27.964      863.390
07/24/2013  10:17:00     -326.821     -125.849       -9.439      173.868      139.242       67.738    30230.162    19388.441     4588.460        8.846        2.710      350.214       70.592        0.041      348.251       27.808      863.394
07/24/2013  10:18:00     -238.224     -188.840       14.369      181.319      117.383      100.256    32876.704    13778.684    10051.223        7.465        2.835      303.992      100.368        0.109      348.375       28.021      863.388
07/24/2013  10:19:00     -253.608     -179.535      -11.082      176.188      123.731       72.724    31042.146    15309.247     5288.822        7.415        2.582      310.725       76.419        0.060      348.349       27.976      863.381
07/24/2013  10:20:00     -225.639      -36.265        2.384      115.196       88.831       53.139    13270.124     7891.027     2823.742        3.810        1.199      228.535       51.886        0.052      348.538       28.304      863.369
07/24/2013  10:21:00     -350.218     -129.256      -12.729      151.504      159.499       72.776    22953.586    25439.878     5296.356        9.660        2.684      373.310       56.363        0.023      348.494       28.226      863.370
07/24/2013  10:22:00     -415.721       11.520      -12.370      165.673      161.833       70.060    27447.403    26189.907     4908.410       11.582        2.927      415.881       78.440        0.036      348.355       27.986      863.355
07/24/2013  10:23:00     -279.224      -63.781      -14.603      158.778      124.900       57.391    25210.574    15600.024     3293.720        6.317        2.205      286.416       67.419        0.055      348.520       28.274      863.374
07/24/2013  10:24:00      -55.042      -43.178       10.178      102.084       67.110       51.907    10421.116     4503.777     2694.389        1.130        0.881       69.957       51.872        0.550      348.753       28.679      863.347
07/24/2013  10:25:00      -13.344      -32.608        7.513      103.963       77.351       50.522    10808.369     5983.104     2552.504        1.032        0.967       35.233       50.032        2.017      348.909       28.948      863.333
07/24/2013  10:26:00     -174.520     -151.091        9.089      162.079      117.463       85.003    26269.725    13797.565     7225.439        5.032        2.365      230.837       97.146        0.177      348.652       28.502      863.342
07/24/2013  10:27:00     -326.651     -173.372       -0.175      183.997      141.362       78.037    33855.016    19983.163     6089.843        9.833        2.996      369.809       81.634        0.049      348.393       28.052      863.332
07/24/2013  10:28:00     -239.013      -16.187       -3.791      147.600      104.589       65.861    21785.628    10938.902     4337.686        4.723        1.853      239.560       65.391        0.075      348.591       28.395      863.328
07/24/2013  10:29:00      -97.403      -82.258       20.317      164.975      110.613       62.826    27216.908    12235.153     3947.050        3.002        2.170      127.490       65.959        0.268      348.863       28.868      863.336
07/24/2013  10:30:00      -95.685      -51.552        5.264      133.257       91.250       67.929    17757.473     8326.620     4614.332        2.126        1.535      108.688       69.866        0.413      348.819       28.793      863.342
07/24/2013  10:31:00      -84.037      -27.154       -5.510       98.276       87.966       52.098     9658.197     7738.077     2714.209        1.397        1.006       88.316       36.996        0.175      348.835       28.819      863.332
07/24/2013  10:32:00     -193.820       19.232        5.405      134.883       88.049       49.067    18193.445     7752.616     2407.586        3.315        1.418      194.772       43.425        0.050      348.807       28.772      863.340
07/24/2013  10:33:00     -337.618     -121.832       -3.606      167.399      122.053       57.865    28022.563    14896.962     3348.341        8.755        2.313      358.927       64.312        0.032      348.531       28.293      863.335
07/24/2013  10:34:00     -386.027     -126.821      -12.768      156.495      129.872       62.315    24490.555    16866.759     3883.153       10.524        2.262      406.326       72.715        0.032      348.445       28.143      863.330
07/24/2013  10:35:00     -375.121      -93.628      -14.316      158.921      127.952       74.769    25255.769    16371.699     5590.474        9.844        2.361      386.629       79.432        0.042      348.528       28.286      863.340
07/24/2013  10:36:00     -311.887     -116.720       -7.346      136.106      151.578       56.576    18524.772    22975.788     3200.801        7.782        2.235      333.012       66.652        0.040      348.516       28.266      863.343
07/24/2013  10:37:00     -183.374      -98.143        1.227      121.877      105.735       56.464    14853.886    11179.961     3188.163        3.623        1.461      207.986       61.500        0.087      348.679       28.548      863.353
07/24/2013  10:38:00      -55.144      -36.558       29.849       92.493       75.179       54.719     8554.942     5651.918     2994.120        1.123        0.860       66.162       61.659        0.869      349.133       29.338      863.330
07/24/2013  10:39:00     -111.098       34.256       -1.197      104.858       64.312       51.548    10995.166     4136.013     2657.237        1.565        0.889      116.260       54.261        0.218      349.014       29.130      863.321
07/24/2013  10:40:00     -404.494       15.097      -33.667      223.410       67.076       57.211    49912.124     4499.212     3273.147       11.132        2.884      404.775       94.541        0.055      348.444       28.142      863.322
07/24/2013  10:41:00     -315.564      -16.542      -22.449      150.426      122.662       68.911    22627.941    15045.856     4748.793        7.138        2.121      315.997       66.983        0.045      348.694       28.575      863.302
07/24/2013  10:42:00     -363.662      -36.794      -21.794      143.365      123.154       58.028    20553.472    15167.018     3367.197        8.658        1.954      365.519       66.527        0.033      348.440       28.133      863.288
07/24/2013  10:43:00     -284.186       -3.139      -14.998      142.852       74.156       47.958    20406.797     5499.143     2299.945        5.460        1.410      284.204       64.476        0.051      348.722       28.621      863.307
07/24/2013  10:44:00     -303.079      -76.492       -6.675      141.286      109.503       63.346    19961.808    11990.974     4012.692        6.685        1.798      312.583       70.079        0.050      348.656       28.508      863.339
07/24/2013  10:45:00     -158.333     -107.032       19.814      149.203       95.219       55.032    22261.470     9066.662     3028.510        3.563        1.718      191.115       60.850        0.101      348.680       28.552      863.352
07/24/2013  10:46:00      -98.852     -188.505       -7.048      107.542      103.001       58.171    11565.205    10609.244     3383.871        3.545        1.278      212.852       56.349        0.070      348.614       28.436      863.342
07/24/2013  10:47:00     -268.908     -152.672      -15.431      125.015       97.222       55.901    15628.700     9452.043     3124.975        6.203        1.410      309.225       58.192        0.035      348.589       28.392      863.347
07/24/2013  10:48:00     -161.909       15.534        2.219       78.716       64.730       40.675     6196.287     4189.950     1654.457        1.925        0.602      162.653       44.041        0.073      348.610       28.430      863.350
07/24/2013  10:49:00      -60.666     -146.112        9.049       54.241       95.798       34.061     2942.046     9177.245     1160.184        1.919        0.664      158.206       29.677        0.035      348.419       28.101      863.349
07/24/2013  10:50:00      -68.842     -125.259      -17.943       87.727       50.815       35.624     7696.099     2582.119     1269.083        1.615        0.577      142.931       10.272        0.005      348.507       28.251      863.342
07/24/2013  10:51:00      -67.561      -62.540      -10.514       73.709       50.465       27.317     5432.998     2546.706      746.206        0.865        0.436       92.064       22.818        0.061      348.594       28.405      863.337
07/24/2013  10:52:00      -47.331      -37.785        9.693       45.167       42.923       26.843     2040.056     1842.374      720.563        0.418        0.230       60.563       16.752        0.077      348.839       28.827      863.343
07/24/2013  10:53:00      -95.801      -10.816        3.776       81.636       57.871       41.065     6664.470     3349.095     1686.318        1.050        0.585       96.410       34.801        0.130      349.149       29.365      863.325
07/24/2013  10:54:00     -352.470      -75.576        1.199      218.212      113.185       81.461    47616.289    12810.864     6635.823        9.849        3.353      360.482       87.090        0.058      348.929       28.981      863.291
07/24/2013  10:55:00     -378.413     -127.294      -18.511      156.207      116.997       68.438    24400.599    13688.227     4683.714       10.125        2.139      399.250       72.145        0.033      348.825       28.799      863.307
07/24/2013  10:56:00     -234.929      -81.973       -8.022      107.849      132.763       64.979    11631.406    17626.092     4222.223        4.772        1.674      248.820       68.637        0.076      348.902       28.936      863.332
07/24/2013  10:57:00     -174.056      -54.098       10.051      110.960      122.450       53.652    12312.188    14993.976     2878.575        3.175        1.509      182.269       53.165        0.085      349.106       29.286      863.338
07/24/2013  10:58:00     -400.944     -110.440      -31.693       92.770       80.566       62.412     8606.252     6490.829     3895.263        9.647        0.950      415.877       58.058        0.019      348.602       28.415      863.344
07/24/2013  10:59:00      -89.391      -27.435       31.751       85.445       95.143       59.723     7300.929     9052.110     3566.865        1.483        0.996       93.507       65.240        0.487      349.113       29.302      863.338
07/24/2013  11:00:00     -126.740     -148.180        9.831       97.780       89.366       48.717     9560.922     7986.310     2373.395        2.901        0.996      194.988       47.871        0.060      348.957       29.028      863.322
07/24/2013  11:01:00     -144.328     -135.561       -0.070      144.876       99.184       59.015    20989.177     9837.427     3482.736        3.675        1.715      198.008       72.206        0.133      348.867       28.875      863.329
07/24/2013  11:02:00     -194.078     -149.674       -4.788       97.701       97.040       50.568     9545.460     9416.695     2557.141        4.080        1.076      245.089       52.374        0.046      348.708       28.600      863.325
07/24/2013  11:03:00     -300.827      -93.379       -2.839       96.085      140.322       55.189     9232.351    19690.337     3045.781        6.559        1.598      314.987       55.674        0.031      348.732       28.640      863.319
07/24/2013  11:04:00     -356.669      -66.667      -13.288       98.175      120.101       49.821     9638.298    14424.285     2482.123        7.918        1.327      362.846       45.199        0.016      348.552       28.328      863.326
07/24/2013  11:05:00     -110.170     -133.761        9.788      109.354      101.665       63.552    11958.307    10335.680     4038.797        2.822        1.317      173.290       54.749        0.100      348.705       28.593      863.304
07/24/2013  11:06:00      -71.236      -35.152       -3.677       78.366       82.236       56.639     6141.284     6762.728     3207.925        1.121        0.806       79.437       41.408        0.272      348.799       28.761      863.311
07/24/2013  11:07:00     -132.233        3.536        1.243      108.889       49.656       31.318    11856.837     2465.704      980.797        1.640        0.765      132.280       43.533        0.108      349.003       29.111      863.302
07/24/2013  11:08:00     -168.919      -60.014        2.003       97.091       89.691       52.885     9426.675     8044.396     2796.862        2.620        1.013      179.263       34.764        0.038      349.037       29.168      863.285
07/24/2013  11:09:00      -91.735      -77.885       23.624      123.143       97.665       49.373    15164.135     9538.450     2437.728        2.108        1.357      120.338       52.249        0.189      349.411       29.818      863.280
07/24/2013  11:10:00     -228.925     -175.998       -4.762      147.617      104.336       65.415    21790.784    10886.009     4279.168        6.017        1.848      288.760       75.876        0.069      348.719       28.617      863.301
07/24/2013  11:11:00     -150.378      -75.275        7.122      104.429      102.624       57.411    10905.413    10531.622     3296.033        2.653        1.237      168.166       49.743        0.087      348.969       29.050      863.299
07/24/2013  11:12:00     -249.750      -35.514        1.247      115.753      102.337       67.814    13398.797    10472.794     4598.777        4.605        1.424      252.262       61.971        0.060      349.035       29.163      863.281
07/24/2013  11:13:00     -238.012     -176.400        1.755      181.161      120.518       74.705    32819.172    14524.689     5580.909        7.034        2.646      296.255       93.593        0.100      348.965       29.044      863.291
07/24/2013  11:14:00     -179.950      -31.882       -5.944      101.263       71.169       35.306    10254.164     5065.036     1246.493        2.500        0.828      182.752       39.741        0.047      348.823       28.800      863.293
07/24/2013  11:15:00     -249.186     -124.255        3.114      179.359       95.606       69.301    32169.491     9140.523     4802.619        6.182        2.306      278.447       82.716        0.088      348.962       29.039      863.286
07/24/2013  11:16:00     -220.722     -113.540       -2.343      142.742      105.138       49.601    20375.371    11053.898     2460.246        4.775        1.694      248.213       52.956        0.046      348.829       28.807      863.263
07/24/2013  11:17:00     -296.315      -40.342       -6.004      155.514      101.568       54.259    24184.734    10316.103     2943.992        6.345        1.872      299.049       67.326        0.051      348.778       28.719      863.250
07/24/2013  11:18:00     -236.252     -177.132       10.923      170.880      121.253       68.250    29199.880    14702.306     4658.007        6.793        2.428      295.281       77.536        0.069      348.841       28.829      863.238
07/24/2013  11:19:00     -202.698      -86.675       -6.938       90.165       95.678       41.971     8129.731     9154.291     1761.605        3.384        0.952      220.452       32.771        0.022      348.899       28.929      863.245
07/24/2013  11:20:00      -85.960     -164.583        6.523       80.146       80.241       41.448     6423.406     6438.635     1717.971        2.455        0.729      185.679       35.578        0.037      349.045       29.184      863.252
07/24/2013  11:21:00     -134.658      -56.747       -2.334      118.690       80.358       42.072    14087.344     6457.483     1770.017        2.183        1.116      146.127       39.127        0.072      349.235       29.514      863.229
07/24/2013  11:22:00     -145.176      -91.063        2.456       87.854       89.512       53.330     7718.276     8012.393     2844.105        2.397        0.929      171.372       35.009        0.042      349.106       29.290      863.236
07/24/2013  11:23:00     -238.519     -238.885      -10.332      169.421      112.302       65.294    28703.424    12611.633     4263.284        7.981        2.279      337.576       81.274        0.058      348.846       28.837      863.248
07/24/2013  11:24:00      -36.045      -83.691        7.505       47.003      106.853       35.495     2209.323    11417.615     1259.873        1.162        0.744       91.123       48.151        0.279      349.059       29.208      863.226
07/24/2013  11:25:00      -23.704      -91.882       -7.419       73.943       91.157       69.123     5467.537     8309.602     4778.029        1.380        0.928       94.890       63.851        0.453      349.422       29.837      863.175
07/24/2013  11:26:00     -156.820     -107.745       -4.839      101.104       72.228       48.709    10221.945     5216.836     2372.553        2.701        0.891      190.267       48.745        0.066      348.915       28.958      863.199
07/24/2013  11:27:00     -110.261      -21.458        3.282      103.433       57.137       39.604    10698.396     3264.605     1568.488        1.408        0.777      112.329       49.823        0.197      349.122       29.318      863.183
07/24/2013  11:28:00     -113.550       18.082       11.616       87.428       55.995       42.798     7643.674     3135.405     1831.627        1.298        0.631      114.981       47.700        0.172      349.383       29.769      863.182
07/24/2013  11:29:00     -216.184       -4.721      -13.257       76.763       69.581       40.758     5892.583     4841.550     1661.235        2.966        0.620      216.236       40.417        0.035      349.138       29.340      863.162
07/24/2013  11:30:00     -168.188      -18.385      -23.435       65.285       55.143       27.050     4262.183     3040.770      731.729        1.860        0.402      169.189       27.199        0.026      348.927       28.979      863.133
07/24/2013  11:31:00      -24.895      -21.253       16.611       55.389       77.259       36.461     3067.957     5968.981     1329.428        0.585        0.518       32.733       27.984        0.731      349.405       29.808      863.106
07/24/2013  11:32:00      -25.179     -128.221       -4.608       86.631       66.514       42.951     7504.868     4424.176     1844.803        1.543        0.689      130.669       29.270        0.050      349.458       29.898      863.109
07/24/2013  11:33:00     -214.474     -132.453       -4.346      145.173       83.427       54.105    21075.178     6959.992     2927.374        4.726        1.548      252.077       60.118        0.057      349.482       29.939      863.099
07/24/2013  11:34:00     -107.722     -257.775        7.503       94.884      113.165       46.289     9002.956    12806.273     2142.691        5.103        1.198      279.378       42.251        0.023      349.050       29.191      863.122
07/24/2013  11:35:00      -74.550     -158.170       -3.672       67.339       99.074       35.036     4534.521     9815.621     1227.522        2.308        0.779      174.858       31.518        0.032      348.994       29.094      863.095
07/24/2013  11:36:00      -95.558      -66.516        4.010       70.856       69.046       40.238     5020.603     4767.322     1619.077        1.249        0.570      116.430       41.079        0.124      349.468       29.918      863.084
07/24/2013  11:37:00      -34.934      -42.775       26.848       57.993       65.403       30.935     3363.237     4277.570      956.965        0.618        0.430       55.228       30.310        0.301      349.686       30.297      863.086
07/24/2013  11:38:00      -87.417      -84.851        8.169       77.092       86.114       46.345     5943.170     7415.667     2147.878        1.520        0.775      121.825       51.033        0.175      349.386       29.775      863.073
07/24/2013  11:39:00     -146.327      -48.015       -6.786       97.713       81.171       34.820     9547.783     6588.742     1212.418        2.055        0.867      154.004       34.366        0.050      349.442       29.872      863.072
07/24/2013  11:40:00     -235.851     -149.340      -10.286      119.809       88.617       59.067    14354.172     7852.946     3488.963        5.186        1.285      279.156       64.494        0.053      349.030       29.157      863.071
07/24/2013  11:41:00     -171.454      -70.319       -6.280       68.662       74.187       41.802     4714.403     5503.695     1747.397        2.317        0.598      185.314       30.588        0.027      349.009       29.120      863.047
07/24/2013  11:42:00      -63.834     -294.219        7.860       93.832       99.324       40.246     8804.374     9865.280     1619.777        5.549        1.014      301.064       46.042        0.023      348.928       28.978      863.033
07/24/2013  11:43:00     -107.168     -117.562       -7.235      100.854       89.365       43.614    10171.608     7986.121     1902.142        2.271        1.003      159.078       32.111        0.041      349.255       29.549      863.007
07/24/2013  11:44:00     -214.241       -6.762      -20.723       70.365       61.937       48.085     4951.224     3836.177     2312.202        2.873        0.555      214.347       39.962        0.035      349.155       29.372      863.033
07/24/2013  11:45:00      -49.592     -100.884       -8.211       48.948       44.628       35.200     2395.930     1991.701     1239.056        0.916        0.281      112.414       28.975        0.066      349.159       29.383      863.014
07/24/2013  11:46:00     -241.845     -154.580       -5.568      126.298       80.181       50.133    15951.176     6429.004     2513.290        5.365        1.245      287.026       48.620        0.029      349.406       29.808      863.030
07/24/2013  11:47:00     -220.994     -161.575        0.197      180.850       84.742       66.555    32706.753     7181.126     4429.623        5.962        2.216      273.761       78.275        0.082      349.409       29.814      863.015
07/24/2013  11:48:00     -236.953     -121.822       -2.229      149.279       96.284       53.543    22284.082     9270.700     2866.853        5.270        1.721      266.434       56.917        0.046      349.336       29.688      863.020
07/24/2013  11:49:00     -213.779     -113.688        8.418      133.924       92.746       60.827    17935.712     8601.908     3699.900        4.446        1.512      242.129       65.322        0.073      349.140       29.348      863.019
07/24/2013  11:50:00     -123.429      -98.415        3.208       89.687       59.557       35.577     8043.830     3547.094     1265.752        1.889        0.643      157.862       39.199        0.062      349.253       29.542      863.020
07/24/2013  11:51:00      -13.822     -134.077      -17.079       46.411       43.116       33.983     2154.000     1858.951     1154.838        1.181        0.258      134.788       24.650        0.033      348.841       28.831      863.000
07/24/2013  11:52:00      -30.447      -94.841        4.611       72.452       50.046       38.850     5249.324     2504.605     1509.315        0.960        0.463       99.608       32.027        0.103      349.086       29.255      862.942
07/24/2013  11:53:00     -194.128      -91.523       -8.023       88.459       57.657       36.263     7824.982     3324.298     1314.985        2.929        0.623      214.621       41.641        0.038      349.188       29.430      862.946
07/24/2013  11:54:00     -167.899       55.155      -10.163      105.990       61.317       34.300    11233.867     3759.797     1176.512        2.375        0.809      176.726       38.506        0.047      349.324       29.666      862.914
07/24/2013  11:55:00     -198.370      -76.420        9.026      110.046      100.157       51.840    12110.015    10031.509     2687.377        3.505        1.241      212.581       54.007        0.065      349.283       29.595      862.876
07/24/2013  11:56:00     -179.278        7.128       -6.425       63.781       74.029       41.835     4068.011     5480.325     1750.141        2.176        0.565      179.420       29.297        0.027      349.407       29.810      862.856
07/24/2013  11:57:00      -96.714      -87.468       11.611      115.345       70.055       43.944    13304.526     4907.716     1931.092        1.864        1.007      130.400       42.091        0.104      349.727       30.366      862.897
07/24/2013  11:58:00     -208.257     -241.505      -16.210       84.387      102.460       47.556     7121.185    10498.094     2261.592        6.092        0.994      318.897       44.483        0.019      349.268       29.569      862.921
07/24/2013  11:59:00     -131.965     -252.495        5.728      123.753      120.539       66.686    15314.722    14529.727     4447.056        5.774        1.715      284.901       57.470        0.041      349.393       29.785      862.924
07/24/2013  12:00:00     -132.173     -104.753       10.844      128.200      119.181       70.293    16435.246    14204.206     4941.163        3.206        1.779      168.650       81.233        0.232      349.433       29.856      862.934
07/24/2013  12:01:00      -66.610      -38.829       15.538       97.613       53.122       44.549     9528.299     2821.934     1984.576        1.026        0.717       77.101       55.633        0.521      349.632       30.203      862.895
07/24/2013  12:02:00      -19.969       -3.023        8.371       29.481       22.037       37.593      869.147      485.613     1413.235        0.162        0.138       20.196       26.838        1.766      350.004       30.849      862.866
07/24/2013  12:03:00       16.718      -42.423       21.320       67.512       79.484       52.823     4557.909     6317.735     2790.250        0.810        0.683       45.598       54.738        1.441      349.979       30.805      862.833
07/24/2013  12:04:00       30.334      -85.733        2.104       87.263       77.823       55.425     7614.763     6056.455     3071.965        1.251        0.837       90.942       33.492        0.136      349.783       30.463      862.826
07/24/2013  12:05:00      -55.130       11.424        6.749       53.653       40.479       25.709     2878.689     1638.584      660.977        0.420        0.259       56.301       19.268        0.117      350.075       30.972      862.831
07/24/2013  12:06:00      -16.525      -27.730       15.908       53.435       41.316       33.836     2855.261     1707.002     1144.878        0.350        0.285       32.280       26.526        0.675      350.258       31.289      862.810
07/24/2013  12:07:00       -3.017       -4.760       20.868       27.523       41.652       34.980      757.535     1734.909     1223.596        0.209        0.186        5.635       24.437       18.805      350.558       31.812      862.787
07/24/2013  12:08:00      -11.988       -2.685       22.339       35.021       64.937       46.458     1226.495     4216.790     2158.386        0.412        0.380       12.285       44.620       13.191      350.174       31.145      862.753
07/24/2013  12:09:00      -57.011      -24.933      -14.750       41.394       86.562       33.316     1713.504     7492.952     1109.933        0.720        0.516       62.225       37.828        0.370      350.089       30.997      862.766
07/24/2013  12:10:00     -128.839      -85.205        8.519       77.998      112.194       48.136     6083.630    12587.594     2317.036        2.246        1.049      154.464       47.294        0.094      349.881       30.634      862.733
07/24/2013  12:11:00     -142.894     -123.337       12.208      129.151       97.472       57.653    16680.099     9500.823     3323.906        3.264        1.475      188.761       63.361        0.113      349.899       30.664      862.735
07/24/2013  12:12:00     -169.847     -194.395       -9.469      104.224       86.159       50.972    10862.659     7423.346     2598.192        4.380        1.044      258.142       56.164        0.047      349.482       29.937      862.736
07/24/2013  12:13:00     -244.406     -166.840       -7.368      134.714      118.899       79.318    18147.898    14136.859     6291.400        6.309        1.929      295.922       69.536        0.055      349.563       30.079      862.695
07/24/2013  12:14:00     -301.741     -128.375      -13.116      124.850       99.914       60.205    15587.483     9982.747     3624.650        6.844        1.460      327.914       52.315        0.025      349.327       29.671      862.711
07/24/2013  12:15:00     -249.107      -43.758        1.701      120.029       98.600       55.383    14406.893     9721.904     3067.323        4.558        1.360      252.921       65.459        0.067      349.638       30.210      862.723
07/24/2013  12:16:00     -211.659      -84.977       -7.242      129.473      157.262       51.294    16763.185    24731.474     2631.030        4.809        2.206      228.080       48.929        0.046      349.251       29.540      862.719
07/24/2013  12:17:00     -123.236      -89.996        2.387       86.001       66.704       38.089     7396.116     4449.366     1450.769        1.829        0.665      152.599       47.700        0.098      349.506       29.984      862.698
07/24/2013  12:18:00      -40.009      -32.131       17.554       55.793       57.568       30.830     3112.842     3314.039      950.516        0.516        0.369       51.314       32.956        0.412      349.927       30.715      862.684
07/24/2013  12:19:00      -53.241      -65.851        4.190       27.739       29.524       23.842      769.465      871.679      568.459        0.470        0.110       84.682       10.829        0.016      349.898       30.665      862.660
07/24/2013  12:20:00        7.751      -33.048        8.101       36.359       43.448       31.163     1321.947     1887.693      971.118        0.270        0.209       33.945       11.554        0.116      350.160       31.122      862.676
07/24/2013  12:21:00     -108.214     -126.660       11.200      108.379      109.219       49.258    11745.976    11928.823     2426.359        2.698        1.305      166.593       57.969        0.121      349.784       30.465      862.663
07/24/2013  12:22:00      -94.215      -76.053       10.362       51.107       75.152       41.940     2611.910     5647.759     1758.957        1.239        0.501      121.081       23.916        0.039      349.810       30.511      862.658
07/24/2013  12:23:00      -51.698      -15.299       16.237       50.352       38.310       31.901     2535.342     1467.625     1017.666        0.409        0.251       53.914       35.579        0.435      350.675       32.016      862.647
07/24/2013  12:24:00      -72.258      -29.560      -13.820       56.819       40.193       22.935     3228.411     1615.479      526.030        0.583        0.268       78.070       17.976        0.053      349.833       30.552      862.638
07/24/2013  12:25:00      -17.727        7.196       40.048       83.063       40.268       41.859     6899.450     1621.534     1752.137        0.612        0.514       19.132       51.577        7.267      350.427       31.585      862.636
07/24/2013  12:26:00      -59.840     -127.283       -9.020       43.821       56.373       32.204     1920.271     3177.877     1037.089        1.300        0.307      140.647       26.120        0.034      349.777       30.454      862.611
07/24/2013  12:27:00       -4.286      -54.018       23.454       58.375       82.463       50.306     3407.627     6800.106     2530.701        0.811        0.637       54.188       53.374        0.970      350.185       31.164      862.610
07/24/2013  12:28:00     -148.058     -150.898       11.937      166.617      163.263       59.362    27761.320    26654.770     3523.827        5.137        2.897      211.403       78.704        0.139      350.316       31.389      862.604
07/24/2013  12:29:00     -277.842       -8.308      -13.969      156.330       98.655       60.645    24438.956     9732.848     3677.765        5.765        1.892      277.966       73.053        0.069      349.977       30.800      862.606
07/24/2013  12:30:00     -263.384     -137.499       10.912      172.231      181.184       71.764    29663.500    32827.806     5150.053        7.801        3.382      297.115       75.761        0.065      349.970       30.786      862.603
07/24/2013  12:31:00     -286.383     -175.430       -1.183      130.420      106.475       62.090    17009.494    11336.982     3855.200        7.249        1.610      335.844       68.302        0.041      349.462       29.903      862.646
07/24/2013  12:32:00     -149.162      -18.340        2.690       81.014       46.993       28.904     6563.244     2208.371      835.468        1.610        0.480      150.286       32.544        0.047      349.724       30.362      862.621
07/24/2013  12:33:00     -208.393       29.917        3.103      113.772       62.087       38.274    12943.989     3854.846     1464.914        3.129        0.913      210.530       30.399        0.021      349.747       30.400      862.593
07/24/2013  12:34:00      -77.933     -160.638       25.979      153.751      108.979       58.984    23639.234    11876.323     3479.059        3.577        1.950      178.544       70.078        0.154      350.030       30.891      862.586
07/24/2013  12:35:00     -364.690      -56.712      -25.402      191.156      130.105       68.546    36540.638    16927.313     4698.522        9.750        2.908      369.073       83.326        0.051      349.796       30.485      862.595
07/24/2013  12:36:00     -274.660     -134.019      -17.533      143.033      123.527       56.086    20458.390    15258.838     3145.644        6.628        1.943      305.613       60.920        0.040      349.867       30.605      862.613
07/24/2013  12:37:00     -168.030      -78.092      -24.526       74.771       88.668       48.222     5590.634     7862.022     2325.337        2.535        0.789      185.290       47.027        0.064      349.623       30.184      862.613
07/24/2013  12:38:00     -125.533       -1.948       -6.282       93.755       68.105       43.710     8790.064     4638.280     1910.540        1.557        0.767      125.548       47.088        0.141      350.001       30.842      862.590
07/24/2013  12:39:00     -239.591      -24.456      -10.392      104.583       64.940       46.674    10937.545     4217.259     2178.485        3.772        0.867      240.836       53.585        0.050      349.937       30.728      862.591
07/24/2013  12:40:00     -200.005       20.561       -6.047      129.442       66.204       43.790    16755.358     4383.008     1917.550        3.175        1.153      201.059       52.295        0.068      349.625       30.189      862.566
07/24/2013  12:41:00     -198.495       74.286      -17.009      108.219       70.209       47.713    11711.253     4929.325     2276.524        3.206        0.946      211.941       51.436        0.059      349.669       30.264      862.533
07/24/2013  12:42:00     -145.359     -146.988       11.315      137.377      117.130       54.322    18872.479    13719.472     2950.902        3.920        1.777      206.724       63.019        0.093      349.846       30.571      862.554
07/24/2013  12:43:00     -268.388      -84.589      -22.479       72.351      161.715       52.629     5234.665    26151.775     2769.824        5.692        1.708      281.402       44.432        0.025      349.441       29.867      862.559
07/24/2013  12:44:00      -50.808      -50.517        4.932       44.777       57.409       28.859     2005.022     3295.774      832.845        0.564        0.307       71.648       20.412        0.081      349.898       30.664      862.531
07/24/2013  12:45:00     -143.296       42.852      -17.444       72.732       40.309       31.499     5289.947     1624.791      992.162        1.529        0.395      149.566       29.701        0.039      349.708       30.335      862.514
07/24/2013  12:46:00     -117.482      -28.942      -15.834       50.468       49.096       31.477     2546.973     2410.432      990.787        1.042        0.297      120.995       32.909        0.074      349.593       30.134      862.507
07/24/2013  12:47:00      -78.918      -86.340        4.345       76.828       48.135       31.897     5902.520     2316.935     1017.397        1.147        0.462      116.973       36.125        0.095      349.822       30.531      862.505
07/24/2013  12:48:00      -65.907      -73.147        6.223       39.485       55.684       24.340     1559.093     3100.699      592.422        0.749        0.263       98.459       22.154        0.051      349.865       30.607      862.507
07/24/2013  12:49:00      -53.631     -132.155       10.402       53.032       66.063       27.273     2812.410     4364.337      743.831        1.418        0.396      142.622       25.272        0.031      350.009       30.857      862.501
07/24/2013  12:50:00      -28.821      -23.243       34.444       64.166       60.123       41.680     4117.308     3614.719     1737.226        0.601        0.473       37.026       39.729        1.151      350.625       31.929      862.477
07/24/2013  12:51:00     -140.584      -49.556       -5.898      122.636       93.644       42.994    15039.475     8769.265     1848.444        2.395        1.283      149.063       56.207        0.142      350.537       31.774      862.484
07/24/2013  12:52:00     -416.757      -74.801       -8.798      158.788      177.420       73.597    25213.543    31477.792     5416.466       12.072        3.105      423.416       72.847        0.030      350.042       30.911      862.453
07/24/2013  12:53:00     -372.648      -76.510        2.197      146.241      112.744       69.068    21386.527    12711.280     4770.454        9.179        1.943      380.421       78.641        0.043      349.962       30.772      862.440
07/24/2013  12:54:00     -214.094      -49.115       -0.928       93.821       77.293       51.745     8802.412     5974.281     2677.509        3.285        0.873      219.656       48.486        0.049      350.170       31.134      862.454
07/24/2013  12:55:00     -231.770      -38.348      -13.164      121.283       98.054       47.623    14709.657     9614.608     2267.947        4.097        1.330      234.921       48.468        0.043      350.153       31.104      862.469
07/24/2013  12:56:00      -58.827       33.191       17.352       83.190       49.541       43.091     6920.607     2454.331     1856.840        0.805        0.562       67.544       43.138        0.408      350.869       32.352      862.452
07/24/2013  12:57:00     -189.612      -15.505      -15.484      102.182      106.799       40.693    10441.168    11406.090     1655.929        2.996        1.175      190.245       35.451        0.035      350.216       31.214      862.445
07/24/2013  12:58:00     -234.218      -28.149      -22.778      154.480      154.185       63.843    23863.939    23772.991     4075.967        5.393        2.586      235.904       50.756        0.046      350.185       31.162      862.418
07/24/2013  12:59:00     -324.410     -106.842       -7.361      178.430      124.029       66.351    31837.307    15383.108     4402.433        8.416        2.581      341.551       81.665        0.057      349.781       30.459      862.422
07/24/2013  13:00:00     -229.021      -55.161       -6.383      105.838       73.048       47.144    11201.734     5336.033     2222.535        3.714        0.938      235.570       46.864        0.040      349.753       30.408      862.429
07/24/2013  13:01:00     -155.028       54.237      -14.420       67.013       68.713       45.666     4490.769     4721.466     2085.366        1.924        0.565      164.241       39.308        0.057      350.073       30.968      862.425
07/24/2013  13:02:00     -241.501       89.037      -19.978      150.629       78.587       61.026    22689.216     6175.992     3724.178        4.961        1.629      257.391       79.900        0.096      349.997       30.834      862.424
07/24/2013  13:03:00     -229.999       87.875      -28.525      100.845      104.496       60.336    10169.637    10919.369     3640.436        4.308        1.236      246.214       57.850        0.055      349.880       30.629      862.429
07/24/2013  13:04:00     -107.378       99.904       -5.048       79.567       65.348       62.487     6330.982     4270.410     3904.635        1.802        0.725      146.666       45.688        0.097      350.033       30.898      862.429
07/24/2013  13:05:00      -48.167       97.534        2.489       51.774       57.941       42.630     2680.577     3357.184     1817.348        0.985        0.393      108.779       35.644        0.107      350.158       31.117      862.419
07/24/2013  13:06:00     -144.206      138.798      -16.212       72.294       99.630       45.432     5226.478     9926.232     2064.101        2.877        0.861      200.151       43.933        0.048      349.931       30.720      862.405
07/24/2013  13:07:00      -86.798      127.807      -20.096       66.023       69.327       46.478     4359.011     4806.165     2160.163        1.780        0.566      154.495       45.621        0.087      349.949       30.753      862.406
07/24/2013  13:08:00     -106.164       57.325      -15.411       84.902       64.661       44.918     7208.285     4180.986     2017.599        1.410        0.670      120.652       48.654        0.163      350.149       31.100      862.405
07/24/2013  13:09:00      -30.309       60.621       32.197       56.661       66.339       44.363     3210.459     4400.898     1968.074        0.760        0.479       67.776       38.647        0.325      350.484       31.683      862.406
07/24/2013  13:10:00      -59.220      165.966       -0.924       74.419      153.154       58.573     5538.150    23456.232     3430.786        3.173        1.621      176.215       47.840        0.074      350.133       31.070      862.385
07/24/2013  13:11:00      -12.701      193.129      -20.067       46.786       75.728       48.892     2188.958     5734.739     2390.394        2.409        0.516      193.547       38.851        0.040      349.786       30.468      862.377
07/24/2013  13:12:00       -0.237       68.861       40.317       33.647       69.118       41.956     1132.135     4777.279     1760.278        0.702        0.383       68.861       36.317        0.278      350.367       31.480      862.379
07/24/2013  13:13:00      -55.827       37.933       15.546       47.767       57.407       40.558     2281.714     3295.606     1644.980        0.601        0.361       67.495       33.671        0.249      350.060       30.946      862.363
07/24/2013  13:14:00      -30.444       42.672       18.705       39.202       35.543       29.183     1536.814     1263.290      851.652        0.337        0.183       52.419       25.602        0.239      350.331       31.417      862.359
07/24/2013  13:15:00       12.364      -27.568        6.430       26.438       31.376       23.603      698.977      984.452      557.117        0.160        0.112       30.213       19.809        0.430      350.335       31.424      862.351
07/24/2013  13:16:00      -94.932      -56.311       -7.980       38.961       31.406       25.366     1517.924      986.355      643.450        0.770        0.157      110.377       17.771        0.026      349.953       30.758      862.348
07/24/2013  13:17:00      -62.255       -5.236       10.379       43.475       49.738       30.491     1890.080     2473.862      929.701        0.465        0.265       62.474       26.773        0.184      350.081       30.983      862.348
07/24/2013  13:18:00     -133.082      -54.828      -16.223       39.360       38.864       21.997     1549.248     1510.386      483.852        1.226        0.177      143.934       20.472        0.020      349.695       30.312      862.345
07/24/2013  13:19:00     -133.577      -87.490       -3.779       71.271       65.984       33.514     5079.549     4353.879     1123.193        1.803        0.528      159.678       33.372        0.044      349.827       30.537      862.348
07/24/2013  13:20:00     -110.432      -56.048      -12.924       49.578       59.746       21.507     2457.967     3569.593      462.572        1.100        0.325      123.841       17.376        0.020      349.692       30.306      862.357
07/24/2013  13:21:00     -103.870       56.318      -25.415       55.709       47.107       22.986     3103.530     2219.070      528.368        1.023        0.293      118.155       16.228        0.019      349.835       30.555      862.352
07/24/2013  13:22:00       20.998       64.235       17.017       63.262       68.165       44.974     4002.130     4646.531     2022.658        0.776        0.534       67.580       35.794        0.281      350.118       31.047      862.317
07/24/2013  13:23:00      -40.295       48.498       23.202       74.399       78.081       46.475     5535.249     6096.594     2159.909        0.915        0.690       63.053       36.766        0.340      350.454       31.629      862.303
07/24/2013  13:24:00     -226.359      100.394       -8.892      117.976       71.608       47.657    13918.361     5127.690     2271.207        4.135        1.066      247.623       53.290        0.046      350.052       30.930      862.294
07/24/2013  13:25:00     -310.564      -59.041      -20.002      112.937      102.695       49.948    12754.680    10546.346     2494.836        6.306        1.290      316.126       52.770        0.028      350.332       31.416      862.300
07/24/2013  13:26:00     -406.308      -21.654      -18.427      172.339      151.419       63.900    29700.684    22927.729     4083.150       11.129        2.836      406.885       76.851        0.036      350.273       31.311      862.286
07/24/2013  13:27:00     -335.456      -45.641      -15.736      121.558      106.082       62.514    14776.425    11253.487     3907.940        7.239        1.497      338.547       61.493        0.033      350.284       31.330      862.280
07/24/2013  13:28:00     -251.733       -0.473      -13.162      136.051      103.855       59.791    18509.790    10785.879     3574.947        4.820        1.644      251.734       68.326        0.074      350.432       31.589      862.276
07/24/2013  13:29:00     -233.242     -150.983       -4.637      156.570      102.304       73.940    24514.239    10466.168     5467.159        5.883        2.022      277.845       78.635        0.080      350.410       31.552      862.252
07/24/2013  13:30:00     -167.442      -23.164        1.169      120.965       81.773       54.998    14632.455     6686.834     3024.806        2.645        1.217      169.037       53.017        0.098      350.724       32.099      862.252
07/24/2013  13:31:00     -335.025      -89.778        0.639      100.378       80.863       50.844    10075.783     6538.827     2585.152        6.975        0.960      346.846       50.110        0.021      350.075       30.968      862.271
07/24/2013  13:32:00     -159.510      -98.663       -7.905      105.315       52.085       28.097    11091.263     2712.881      789.469        2.491        0.730      187.558       30.877        0.027      349.904       30.671      862.253
07/24/2013  13:33:00     -145.737      -50.086       -4.470       78.003       73.843       46.205     6084.441     5452.814     2134.903        1.872        0.684      154.104       36.636        0.057      350.314       31.384      862.228
07/24/2013  13:34:00     -143.885       64.890      -19.891       64.283       79.280       36.813     4132.337     6285.316     1355.175        1.854        0.589      157.840       11.365        0.005      350.605       31.892      862.227
07/24/2013  13:35:00     -343.177      -51.968      -42.188       96.380       89.618       59.821     9289.050     8031.309     3578.561        7.157        1.045      347.090       49.425        0.020      350.151       31.099      862.240
07/24/2013  13:36:00     -243.522      -10.717      -21.787       95.768       83.951       39.065     9171.476     7047.836     1526.039        3.882        0.887      243.757       45.585        0.035      349.932       30.721      862.262
07/24/2013  13:37:00      -93.525        1.869      -11.450      104.313       22.361       34.543    10881.113      500.003     1193.246        1.073        0.629       93.544       53.099        0.322      350.194       31.178      862.254
07/24/2013  13:38:00       -5.676      -11.523       27.531       37.797       31.611       27.010     1428.631      999.248      729.549        0.204        0.158       12.845       20.843        2.633      350.540       31.780      862.236
07/24/2013  13:39:00        9.687      -11.674       29.347       22.525       38.149       25.243      507.361     1455.335      637.194        0.185        0.130       15.170       16.570        1.193      350.592       31.871      862.218
07/24/2013  13:40:00       -7.767      -26.507       19.391       25.751       45.871       23.191      663.091     2104.178      537.800        0.222        0.165       27.621       21.879        0.627      350.481       31.678      862.215
07/24/2013  13:41:00     -106.282      -12.661       -6.716       50.104       62.069       28.457     2510.361     3852.507      809.807        0.934        0.359      107.033       26.424        0.061      350.216       31.218      862.212
07/24/2013  13:42:00      -53.513       39.039        0.138       43.669       27.664       27.977     1907.023      765.288      782.727        0.392        0.173       66.240       28.650        0.187      350.346       31.442      862.199
07/24/2013  13:43:00      -23.315       75.929        6.256       32.838       42.357       30.590     1078.334     1794.111      935.732        0.508        0.190       79.428       22.057        0.077      350.374       31.493      862.189
07/24/2013  13:44:00       44.378       39.952       26.588       45.789       34.788       35.539     2096.613     1210.202     1262.997        0.442        0.228       59.712       23.553        0.156      350.355       31.458      862.180
07/24/2013  13:45:00      -35.199      147.509        1.413       66.350       79.697       39.157     4402.335     6351.576     1533.239        1.764        0.614      151.650       47.751        0.099      350.089       30.995      862.185
07/24/2013  13:46:00      -57.303       22.722        6.008       64.642       53.698       31.695     4178.566     2883.501     1004.552        0.595        0.403       61.643       17.099        0.077      350.307       31.375      862.192
07/24/2013  13:47:00     -117.729      -53.244       -1.715       49.042       57.249       31.996     2405.100     3277.504     1023.769        1.170        0.335      129.209       30.412        0.055      350.151       31.103      862.208
07/24/2013  13:48:00      -51.697      -41.458       -0.387       67.649       53.319       31.065     4576.410     2842.932      965.009        0.639        0.419       66.267       24.950        0.142      350.230       31.240      862.223
07/24/2013  13:49:00      -32.266       27.024        1.718       47.440       34.690       25.568     2250.571     1203.377      653.741        0.294        0.205       42.088        8.518        0.041      350.418       31.567      862.233
07/24/2013  13:50:00     -214.143      -43.971       -1.050      103.986       73.587       42.042    10813.081     5415.009     1767.555        3.289        0.900      218.610       43.328        0.039      350.132       31.067      862.247
07/24/2013  13:51:00     -263.155      -64.536      -12.255      114.043       98.102       57.329    13005.802     9624.006     3286.662        4.974        1.296      270.952       55.132        0.041      350.123       31.051      862.242
07/24/2013  13:52:00     -350.461      -73.587      -17.915      131.700       90.244       58.514    17344.770     8143.984     3423.856        7.873        1.446      358.103       55.060        0.024      350.100       31.012      862.224
07/24/2013  13:53:00     -316.737     -111.153      -13.068      105.365       75.513       50.159    11101.765     5702.281     2515.936        6.608        0.966      335.674       49.268        0.022      350.142       31.085      862.239
07/24/2013  13:54:00     -307.726     -109.782      -25.556      143.325       99.358       65.478    20542.075     9871.963     4287.331        7.104        1.735      326.722       62.060        0.036      350.101       31.014      862.233
07/24/2013  13:55:00     -279.759      -72.639        3.969      185.718      126.892       66.292    34491.047    16101.586     4394.634        6.926        2.749      289.035       81.121        0.079      350.201       31.187      862.224
07/24/2013  13:56:00     -217.378      -58.517        2.567      145.901      110.894       62.914    21287.183    12297.380     3958.132        4.411        1.877      225.116       75.760        0.113      350.251       31.275      862.256
07/24/2013  13:57:00     -257.938      -59.015      -20.353       76.145       73.347       42.239     5798.031     5379.747     1784.175        4.169        0.648      264.603       40.958        0.024      350.036       30.899      862.239
07/24/2013  13:58:00     -261.514      -93.722       12.448      190.426      124.806       77.246    36262.041    15576.622     5966.911        6.756        2.890      277.801       95.987        0.119      350.196       31.178      862.243
07/24/2013  13:59:00     -294.731     -131.075       -5.259      177.607      137.234       70.913    31544.401    18833.075     5028.604        7.973        2.770      322.563       89.741        0.077      350.082       30.981      862.230
07/24/2013  14:00:00     -209.053     -137.111       -1.390      127.827      100.911       55.659    16339.785    10183.095     3097.869        4.606        1.481      250.005       59.155        0.056      350.051       30.927      862.242
07/24/2013  14:01:00     -171.846     -148.619      -10.073      110.271       64.849       47.833    12159.720     4205.419     2287.984        3.518        0.933      227.198       50.983        0.050      350.021       30.874      862.230
07/24/2013  14:02:00     -149.771     -142.141       -0.987       74.164       81.954       47.362     5500.236     6716.424     2243.165        2.855        0.723      206.484       44.871        0.047      350.069       30.958      862.222
07/24/2013  14:03:00      -76.775     -112.896      -11.005       59.337       40.624       22.632     3520.882     1650.317      512.214        1.222        0.284      136.529       14.514        0.011      349.827       30.541      862.226
07/24/2013  14:04:00        9.422      -71.516       11.817       36.441       21.584       26.299     1327.922      465.890      691.621        0.391        0.124       72.134       15.248        0.045      350.055       30.936      862.191
07/24/2013  14:05:00     -175.899     -111.488      -12.633      106.966      101.710       42.526    11441.695    10344.879     1808.470        3.356        1.180      208.255       40.271        0.037      350.071       30.962      862.197
07/24/2013  14:06:00     -149.086     -148.235       10.312      144.027       86.974       65.893    20743.721     7564.534     4341.913        3.847        1.633      210.238       70.408        0.112      350.227       31.234      862.205
07/24/2013  14:07:00      -56.506     -114.411      -11.788       82.667       53.431       28.116     6833.813     2854.893      790.506        1.345        0.524      127.604       21.031        0.027      350.112       31.034      862.194
07/24/2013  14:08:00     -164.076     -150.026        9.243      113.615       77.968       54.557    12908.449     6079.005     2976.497        3.573        1.098      222.326       62.348        0.079      350.437       31.597      862.170
07/24/2013  14:09:00     -313.836     -225.415        6.268      199.248      150.187       99.678    39699.625    22556.279     9935.774       11.075        3.610      386.400      111.219        0.083      350.370       31.482      862.158
07/24/2013  14:10:00     -221.934     -145.895        1.221      143.677      101.473       52.605    20642.987    10296.781     2767.244        5.212        1.685      265.593       70.573        0.071      350.258       31.286      862.195
07/24/2013  14:11:00      -53.057     -110.607       -4.137       38.824       37.437       17.761     1507.330     1401.535      315.443        0.914        0.161      122.675       19.711        0.026      349.937       30.732      862.164
07/24/2013  14:12:00       -0.495       -6.914       28.682       53.814       40.608       39.818     2895.977     1649.023     1585.475        0.350        0.307        6.932       37.442       29.175      350.666       32.001      862.122
07/24/2013  14:13:00       -9.389      -21.736       34.653       56.648       38.648       33.525     3209.028     1493.633     1123.901        0.379        0.291       23.677       13.029        0.303      351.305       33.113      862.108
07/24/2013  14:14:00      -59.212       11.745       22.581       60.863       47.071       29.131     3704.273     2215.683      848.633        0.546        0.338       60.365       30.902        0.262      351.157       32.855      862.124
07/24/2013  14:15:00     -194.909       77.041      -40.070       77.352       52.933       37.006     5983.343     2801.864     1369.464        2.784        0.508      209.583       39.236        0.035      350.304       31.364      862.145
07/24/2013  14:16:00      -65.421        2.373       21.172       83.450       41.597       47.830     6963.875     1730.343     2287.721        0.786        0.549       65.464       57.058        0.760      351.002       32.585      862.131
07/24/2013  14:17:00      -99.705      233.897      -25.941       82.821      110.868       54.258     6859.326    12291.643     2943.902        4.370        1.105      254.261       51.823        0.042      350.563       31.817      862.145
07/24/2013  14:18:00        7.344      214.024      -17.199       50.799       71.687       44.344     2580.582     5139.056     1966.431        2.792        0.484      214.150       42.467        0.039      350.428       31.583      862.138
07/24/2013  14:19:00       79.214      157.449       -3.699      106.398       91.458       64.653    11320.610     8364.615     4180.015        2.747        1.193      176.253       57.066        0.105      350.674       32.010      862.110
07/24/2013  14:20:00      158.082      118.078        8.178      137.823       88.132       68.153    18995.306     7767.204     4644.790        3.520        1.570      197.313       53.866        0.075      350.598       31.879      862.093
07/24/2013  14:21:00      213.238       65.186       26.775      115.533       76.645       68.109    13347.901     5874.428     4638.794        3.714        1.193      222.979       50.351        0.051      350.695       32.046      862.109
07/24/2013  14:22:00      174.900      126.045       14.617      124.764       83.837       63.813    15566.021     7028.643     4072.047        3.667        1.333      215.586       40.186        0.035      350.289       31.341      862.119
07/24/2013  14:23:00      153.661       96.819       35.349      101.312       54.428       50.161    10264.181     2962.396     2516.175        2.499        0.787      181.619       22.622        0.016      350.434       31.593      862.105
07/24/2013  14:24:00      178.070      138.602        8.957       66.850       53.509       46.059     4468.893     2863.196     2121.423        3.022        0.473      225.654       30.804        0.019      350.252       31.278      862.071
07/24/2013  14:25:00       99.456       80.080        7.672       49.597       42.523       44.454     2459.825     1808.177     1976.167        1.130        0.312      127.689       17.049        0.018      350.528       31.759      862.076
07/24/2013  14:26:00      112.991       66.864       33.237      121.560       88.739       59.824    14776.802     7874.553     3578.888        2.228        1.312      131.293       35.610        0.074      350.811       32.250      862.063
07/24/2013  14:27:00       29.104      132.305      -16.078       43.975       71.065       39.148     1933.783     5050.246     1532.561        1.356        0.426      135.469       35.669        0.069      350.571       31.833      862.058
07/24/2013  14:28:00      -21.429       78.355       -1.074       39.623       50.066       28.366     1569.990     2506.595      804.636        0.574        0.244       81.233       24.404        0.090      350.780       32.198      862.051
07/24/2013  14:29:00       15.521       95.857        0.126       60.016      111.012       51.077     3601.915    12323.671     2608.816        1.398        0.927       97.105       66.259        0.466      350.861       32.339      862.047
07/24/2013  14:30:00      -60.861      172.585      -25.545       89.522       93.151       57.878     8014.236     8677.017     3349.882        2.709        1.002      183.002       38.511        0.044      350.622       31.919      862.046
07/24/2013  14:31:00     -120.715      215.818      -19.594       75.090       92.062       50.974     5638.503     8475.353     2598.320        3.912        0.836      247.284       58.739        0.056      350.595       31.874      862.070
07/24/2013  14:32:00     -131.402      187.484      -32.658       74.163       56.129       44.262     5500.151     3150.487     1959.141        3.204        0.530      228.947       45.976        0.040      350.206       31.196      862.084
07/24/2013  14:33:00        2.338      112.918       -7.214       48.689       57.150       36.293     2370.583     3266.165     1317.179        0.988        0.348      112.942       33.235        0.087      350.524       31.752      862.092
07/24/2013  14:34:00       57.921       91.220       12.897       56.740       56.479       56.317     3219.397     3189.903     3171.578        1.071        0.479      108.056       40.996        0.144      350.490       31.694      862.076
07/24/2013  14:35:00      -24.547       99.897       -1.346       41.942       72.096       33.932     1759.151     5197.831     1151.370        0.934        0.405      102.869       33.189        0.104      350.496       31.702      862.085
07/24/2013  14:36:00       23.619      247.535      -40.404       51.363       83.502       33.919     2638.128     6972.506     1150.497        3.711        0.538      248.659       40.387        0.026      350.141       31.085      862.089
07/24/2013  14:37:00      -93.384      112.860      -11.014       97.446       59.465       40.586     9495.669     3536.052     1647.188        1.813        0.734      146.485       39.207        0.072      350.400       31.535      862.073
07/24/2013  14:38:00      -92.954       22.385       -2.794       57.544       33.840       26.502     3311.311     1145.133      702.375        0.715        0.258       95.611       15.558        0.026      350.512       31.731      862.065
07/24/2013  14:39:00      -15.370       45.606       -9.736       46.482       71.332       29.322     2160.570     5088.246      859.752        0.526        0.405       48.127       13.465        0.078      350.612       31.905      862.050
07/24/2013  14:40:00       11.704      185.049      -16.075       40.571       81.150       40.791     1646.010     6585.320     1663.897        2.226        0.495      185.419       44.311        0.057      350.290       31.343      862.063
07/24/2013  14:41:00      -23.212       60.406        7.010       27.617       51.349       28.191      762.685     2636.712      794.713        0.421        0.210       64.713       24.939        0.149      350.567       31.829      862.063
07/24/2013  14:42:00      -16.256      121.265       -3.708       60.047       38.597       30.648     3605.610     1489.763      939.320        1.051        0.302      122.350       23.708        0.038      350.353       31.454      862.066
07/24/2013  14:43:00      -33.661       85.960       15.406       41.382       65.026       33.650     1712.446     4228.417     1132.314        0.791        0.354       92.316       33.582        0.132      350.589       31.864      862.064
07/24/2013  14:44:00      -80.137       68.228      -10.213       49.915       45.107       38.262     2491.554     2034.635     1463.971        0.858        0.300      105.248       34.661        0.108      350.426       31.582      862.060
07/24/2013  14:45:00      -96.663       23.166      -22.079       14.231       44.609       15.300      202.516     1989.977      234.084        0.640        0.121       99.400       18.578        0.035      350.032       30.895      862.069
07/24/2013  14:46:00      -45.487      -11.735      -11.647       19.514       28.721       13.350      380.780      824.877      178.228        0.186        0.069       46.976        8.011        0.029      350.124       31.056      862.052
07/24/2013  14:47:00        7.630       78.196        5.492       45.732       42.975       27.452     2091.389     1846.881      753.589        0.545        0.235       78.568       22.730        0.084      350.454       31.632      862.041
07/24/2013  14:48:00      -37.109      120.415        6.603       47.278       68.842       41.384     2235.171     4739.211     1712.639        1.230        0.434      126.003       36.991        0.086      350.487       31.688      862.041
07/24/2013  14:49:00      -98.223      122.593      -12.778       55.797       63.925       35.828     3113.318     4086.407     1283.668        1.666        0.424      157.089       36.735        0.055      350.407       31.546      862.051
07/24/2013  14:50:00     -106.627      135.013      -17.059       55.581       61.141       42.532     3089.228     3738.179     1809.013        1.926        0.432      172.040       33.503        0.038      350.420       31.572      862.054
07/24/2013  14:51:00     -136.719      202.401      -37.857       64.422       68.593       47.487     4150.211     4704.990     2255.022        3.610        0.556      244.250       37.644        0.024      350.279       31.324      862.037
07/24/2013  14:52:00      -85.081      175.728      -15.686       41.334       56.190       32.370     1708.522     3157.287     1047.818        2.214        0.296      195.242       20.559        0.011      350.341       31.432      862.026
07/24/2013  14:53:00      -58.881      101.100        5.972       64.882       75.311       35.508     4209.647     5671.702     1260.840        1.243        0.557      116.996       39.856        0.116      350.478       31.671      862.015
07/24/2013  14:54:00      -78.610       47.592       29.018      137.809      178.347       83.707    18991.223    31807.593     7006.894        3.353        2.890       91.894       59.952        0.426      350.563       31.816      861.968
07/24/2013  14:55:00     -193.332     -193.444        2.818      149.907      110.002       71.242    22472.057    12100.466     5075.420        5.722        1.982      273.492       76.868        0.079      350.421       31.570      862.010
07/24/2013  14:56:00     -328.402     -279.007        8.098      180.335      132.797       92.703    32520.834    17635.050     8593.928       12.224        2.937      430.921      102.476        0.057      350.244       31.263      861.969
07/24/2013  14:57:00     -233.885     -187.369        3.567      184.399      134.815       91.237    34002.954    18175.165     8324.205        7.515        3.025      299.682       98.712        0.108      350.345       31.438      861.958
07/24/2013  14:58:00     -244.197     -191.878       -0.719      140.990      134.597       77.506    19878.286    18116.218     6007.150        7.022        2.200      310.563       88.772        0.082      350.315       31.386      861.961
07/24/2013  14:59:00     -258.016       -0.512       -7.215      169.307      144.985       71.307    28664.698    21020.541     5084.732        6.069        2.738      258.017       66.557        0.067      350.433       31.590      861.944
07/24/2013  15:00:00     -271.735     -103.117      -12.741      131.221      159.008       60.433    17219.003    25283.655     3652.159        6.539        2.308      290.642       68.204        0.055      350.469       31.654      861.949
07/24/2013  15:01:00     -220.729     -162.402        6.238      192.982      131.953       88.678    37241.885    17411.545     7863.713        6.881        3.126      274.036       97.483        0.127      350.407       31.546      861.945
07/24/2013  15:02:00     -285.141     -183.194       -6.679      132.577      137.249       69.548    17576.699    18837.196     4836.920        7.807        2.063      338.918       62.943        0.034      350.307       31.372      861.966
07/24/2013  15:03:00     -182.009      -85.653        8.531      126.353       81.148       56.246    15965.126     6584.970     3163.666        3.312        1.286      201.156       62.025        0.095      350.419       31.567      861.978
07/24/2013  15:04:00     -172.762      -18.088       -1.163      100.126       68.750       44.172    10025.153     4726.583     1951.176        2.344        0.835      173.706       41.280        0.056      350.469       31.655      861.971
07/24/2013  15:05:00     -205.540      -40.471       -8.019      151.685       82.792       44.723    23008.217     6854.506     2000.187        3.790        1.593      209.487       43.798        0.044      350.292       31.347      861.955
07/24/2013  15:06:00     -264.546      -33.530       -9.870      125.714       78.049       51.615    15804.064     6091.595     2664.129        4.788        1.228      266.662       56.534        0.045      350.336       31.423      861.947
07/24/2013  15:07:00     -135.920      -74.589        9.251      113.781       81.877       51.777    12946.149     6703.856     2680.886        2.322        1.117      155.041       65.720        0.180      350.364       31.470      861.948
07/24/2013  15:08:00      -75.185      -41.064        6.310       90.833       57.073       45.891     8250.543     3257.314     2105.993        1.049        0.681       85.668       50.511        0.348      350.365       31.474      861.939
07/24/2013  15:09:00     -213.737      -79.174       -5.328      167.424       64.300       51.505    28030.839     4134.444     2652.811        4.339        1.741      227.930       75.962        0.111      350.404       31.542      861.961
07/24/2013  15:10:00     -361.622       25.946      -17.620      135.002       98.962       52.244    18225.593     9793.534     2729.451        8.125        1.537      362.552       57.706        0.025      350.276       31.319      861.964
07/24/2013  15:11:00     -297.508        9.357      -21.078      133.720       91.005       53.320    17880.975     8281.956     2842.995        5.902        1.450      297.655       61.286        0.042      350.276       31.318      861.957
07/24/2013  15:12:00     -151.447       -5.317        0.462      117.348       74.049       42.316    13770.654     5483.319     1790.649        2.200        1.052      151.541       47.269        0.097      350.342       31.433      861.947
07/24/2013  15:13:00      -88.193      -66.397       13.275       82.201       53.987       50.634     6756.999     2914.601     2563.842        1.230        0.612      110.393       50.967        0.213      350.360       31.465      861.933
07/24/2013  15:14:00     -232.525      -90.621        0.068      113.590       87.426       40.933    12902.597     7643.373     1675.503        4.225        1.111      249.560       45.625        0.033      350.308       31.375      861.924
07/24/2013  15:15:00     -119.936      -36.451        1.957       79.417       55.158       35.248     6307.090     3042.407     1242.446        1.315        0.530      125.352       37.167        0.088      350.365       31.475      861.935
07/24/2013  15:16:00      -50.537       47.896        8.541       52.965       67.663       36.859     2805.334     4578.231     1358.611        0.683        0.437       69.628       31.889        0.210      350.361       31.468      861.915
07/24/2013  15:17:00     -165.312      -36.181      -11.208       88.216       73.823       33.301     7782.031     5449.776     1108.929        2.155        0.717      169.225       40.688        0.058      350.332       31.416      861.900
07/24/2013  15:18:00     -173.765      -56.179       -1.334       71.519       59.359       36.152     5115.027     3523.434     1306.954        2.165        0.497      182.621       33.709        0.034      350.386       31.510      861.893
07/24/2013  15:19:00      -87.022      -11.066       -1.306       75.341       36.500       23.592     5676.258     1332.258      556.595        0.763        0.378       87.723       30.158        0.118      350.423       31.576      861.873
07/24/2013  15:20:00      -52.657       11.535       -3.003       36.693       38.659       24.483     1346.397     1494.555      599.427        0.318        0.172       53.906       23.327        0.187      350.569       31.831      861.857
07/24/2013  15:21:00       23.338      -18.592       34.779       54.950       55.537       42.825     3019.543     3084.322     1833.993        0.502        0.397       29.839       33.343        1.249      350.622       31.923      861.827
07/24/2013  15:22:00        2.141       17.095       36.099       24.121       31.808       25.613      581.847     1011.725      656.006        0.192        0.112       17.229       14.765        0.734      350.934       32.465      861.795
07/24/2013  15:23:00      -52.405       67.755        9.156       44.448       41.524       29.017     1975.612     1724.246      842.006        0.598        0.227       85.657       22.510        0.069      350.450       31.622      861.775
07/24/2013  15:24:00     -268.646       69.343      -20.202      117.055       51.176       34.548    13701.878     2618.932     1193.558        4.745        0.876      277.451       43.564        0.025      350.374       31.488      861.762
07/24/2013  15:25:00     -159.135       63.070      -18.343       77.528      108.887       41.024     6010.555    11856.473     1682.929        2.459        0.977      171.177       40.291        0.055      350.648       31.965      861.758
07/24/2013  15:26:00     -249.582       -2.815      -10.579      105.608       84.719       47.756    11153.023     7177.327     2280.663        4.151        1.031      249.598       44.335        0.032      350.679       32.018      861.764
07/24/2013  15:27:00     -406.392     -194.884      -16.586      119.923      118.108       65.067    14381.584    13949.575     4233.693       11.798        1.628      450.704       53.935        0.014      350.579       31.844      861.739
07/24/2013  15:28:00     -281.191      -84.415       -9.671      119.948      104.034       54.593    14387.521    10823.102     2980.423        5.723        1.410      293.589       51.709        0.031      350.622       31.919      861.746
07/24/2013  15:29:00     -288.452      -46.341      -23.273      111.508      101.383       63.201    12434.034    10278.518     3994.345        5.629        1.335      292.150       47.604        0.027      350.716       32.085      861.761
07/24/2013  15:30:00     -128.516      -92.852       10.991      113.608      106.204       54.415    12906.762    11279.332     2961.034        2.620        1.357      158.549       53.325        0.113      350.732       32.113      861.749
07/24/2013  15:31:00     -217.549      -68.168      -24.070       57.250       55.956       32.495     3277.599     3131.071     1055.919        3.001        0.373      227.979       15.889        0.005      350.463       31.641      861.735
07/24/2013  15:32:00     -139.271      -29.308      -14.475       56.927       44.943       40.853     3240.665     2019.860     1669.000        1.370        0.346      142.322       32.558        0.052      350.534       31.768      861.708
07/24/2013  15:33:00     -191.681     -114.292        4.306      125.096       93.510       52.479    15649.096     8744.156     2754.021        3.848        1.357      223.168       52.152        0.055      350.690       32.037      861.681
07/24/2013  15:34:00     -124.296       19.686      -11.702       78.128       66.306       32.881     6104.054     4396.506     1081.163        1.378        0.579      125.845       32.765        0.068      350.685       32.032      861.672
07/24/2013  15:35:00      -81.435       -2.625       17.814       88.018       67.516       38.421     7747.187     4558.423     1476.188        1.037        0.689       81.477       39.057        0.230      351.098       32.752      861.653
07/24/2013  15:36:00     -168.136      -86.058        1.472      121.610       62.150       53.077    14789.078     3862.596     2817.133        2.857        1.073      188.880       59.405        0.099      350.916       32.432      861.630
07/24/2013  15:37:00     -276.823     -116.969       -2.100      109.166      108.618       53.074    11917.157    11797.776     2816.870        5.842        1.327      300.521       58.118        0.037      350.675       32.013      861.629
07/24/2013  15:38:00     -179.544     -132.294        0.489      165.047      112.940       60.853    27240.359    12755.455     3703.071        4.671        2.185      223.019       77.633        0.121      350.421       31.571      861.631
07/24/2013  15:39:00      -80.112       60.501       -2.367       68.345       50.138       37.588     4671.061     2513.822     1412.824        0.934        0.430      100.391       37.467        0.139      350.875       32.363      861.621
07/24/2013  15:40:00     -263.802       39.917      -24.832      100.400       87.658       49.511    10080.090     7683.950     2451.311        4.600        1.011      266.805       39.962        0.022      350.647       31.960      861.633
07/24/2013  15:41:00     -121.394       65.038      -10.327       59.188       61.229       34.396     3503.203     3748.979     1183.068        1.375        0.422      137.718       27.622        0.040      350.592       31.871      861.623
07/24/2013  15:42:00      -70.583      -30.952       15.753       92.469       74.147       48.561     8550.600     5497.769     2358.147        1.129        0.820       77.072       57.949        0.565      351.225       32.973      861.603
07/24/2013  15:43:00      -74.125      -53.520       23.337      111.763       56.328       48.373    12490.945     3172.838     2339.946        1.345        0.900       91.427       60.151        0.433      350.956       32.503      861.602
07/24/2013  15:44:00     -152.552        6.077       -1.244       85.567       60.805       38.175     7321.776     3697.220     1457.313        1.789        0.624      152.673       37.838        0.061      350.719       32.088      861.594
07/24/2013  15:45:00     -200.872      -46.123       -7.852       88.441       83.556       38.195     7821.790     6981.638     1458.851        2.940        0.813      206.099       40.979        0.040      350.531       31.761      861.599
07/24/2013  15:46:00     -220.167      -23.045       -5.372       94.251      101.823       54.343     8883.230    10367.886     2953.202        3.561        1.110      221.370       57.171        0.067      350.827       32.277      861.602
07/24/2013  15:47:00     -229.657        4.227       -7.236       85.670       89.890       49.902     7339.396     8080.214     2490.206        3.536        0.895      229.696       42.217        0.034      350.765       32.170      861.602
07/24/2013  15:48:00     -225.740       11.756      -18.125       67.153       63.045       45.613     4509.535     3974.656     2080.552        3.099        0.528      226.046       32.781        0.021      350.814       32.253      861.602
07/24/2013  15:49:00      -23.570       -8.898       11.126       39.275       31.905       21.368     1542.554     1017.940      456.586        0.189        0.151       25.194       16.270        0.417      351.275       33.060      861.602
07/24/2013  15:50:00     -191.175       -2.457      -14.648      136.092       62.495       34.570    18521.167     3905.631     1195.100        3.019        1.181      191.191       40.373        0.045      350.933       32.463      861.597
07/24/2013  15:51:00     -205.035     -124.433        2.442      135.944      114.208       66.598    18480.859    13043.368     4435.318        4.674        1.798      239.840       69.223        0.083      350.768       32.174      861.597
07/24/2013  15:52:00     -269.542     -110.409       -4.578       85.674       96.503       49.587     7340.114     9312.924     2458.830        5.198        0.956      291.278       36.364        0.016      350.507       31.719      861.609
07/24/2013  15:53:00      -80.924      -37.137        4.935       91.362       67.967       34.364     8346.937     4619.556     1180.911        1.105        0.707       89.038       45.408        0.260      350.675       32.013      861.605
07/24/2013  15:54:00      -51.736      -20.785        5.536       65.390       41.746       31.184     4275.799     1742.742      972.416        0.506        0.350       55.755       32.393        0.338      350.684       32.029      861.583
07/24/2013  15:55:00     -103.960      -35.168       -4.826       59.300       37.807       27.733     3516.522     1429.403      769.112        0.889        0.286      109.747       30.723        0.078      350.544       31.785      861.580
07/24/2013  15:56:00      -54.158      -78.883       12.285       86.313       66.075       37.507     7449.993     4365.864     1406.773        1.126        0.661       95.685       43.596        0.208      350.689       32.038      861.575
07/24/2013  15:57:00      -48.572       45.935       25.406       54.402       41.230       38.167     2959.628     1699.875     1456.700        0.561        0.306       66.853       31.834        0.227      350.837       32.298      861.551
07/24/2013  15:58:00       18.685        1.201       33.069       34.739       30.509       20.997     1206.828      930.770      440.886        0.201        0.129       18.723       16.872        0.812      350.835       32.294      861.524
07/24/2013  15:59:00     -128.872      -51.983       -3.919       55.322       61.342       32.741     3060.476     3762.848     1071.948        1.361        0.395      138.961       29.236        0.044      350.700       32.058      861.514
07/24/2013  16:00:00     -169.388     -103.830      -11.048       50.185       59.541       38.643     2518.517     3545.158     1493.255        2.357        0.378      198.678       34.393        0.030      350.695       32.048      861.523
07/24/2013  16:01:00     -234.874      -91.628       -2.822       91.230       79.383       32.621     8322.971     6301.588     1064.143        3.963        0.784      252.114       30.173        0.014      350.627       31.930      861.532
07/24/2013  16:02:00     -249.208      -84.782      -10.282      104.685       80.580       48.907    10959.019     6493.176     2391.870        4.462        0.992      263.235       33.219        0.016      350.504       31.713      861.505
07/24/2013  16:03:00     -400.575      -78.008      -25.701      110.495      104.027       59.810    12209.064    10821.616     3577.257        9.690        1.330      408.100       48.522        0.014      350.477       31.667      861.491
07/24/2013  16:04:00     -339.729       53.456      -34.471      100.072       81.345       57.545    10014.383     6617.004     3311.393        6.970        0.997      343.909       47.537        0.019      350.497       31.702      861.501
07/24/2013  16:05:00     -215.197       72.674      -25.359       65.715       37.012       32.747     4318.412     1369.861     1072.396        2.950        0.338      227.137       26.761        0.014      350.472       31.661      861.494
07/24/2013  16:06:00     -120.037       18.436       -4.988       49.805       52.332       28.664     2480.494     2738.633      821.612        1.041        0.302      121.444       21.922        0.033      350.769       32.179      861.478
07/24/2013  16:07:00     -170.879     -111.950       -8.124      104.545       97.273       56.320    10929.751     9462.007     3171.908        3.268        1.178      204.285       59.819        0.086      350.693       32.042      861.483
07/24/2013  16:08:00     -114.115      -24.703        6.902      116.396       61.974       49.343    13547.994     3840.803     2434.708        1.675        0.991      116.758       59.786        0.262      350.801       32.232      861.447
07/24/2013  16:09:00      -39.890       23.532       -6.485       56.633       64.823       32.966     3207.283     4202.039     1086.725        0.534        0.425       46.314       20.545        0.197      351.062       32.690      861.438
07/24/2013  16:10:00     -110.927      -99.372        9.638      161.819      106.764       63.418    26185.470    11398.481     4021.854        3.193        2.080      148.929       69.838        0.220      351.151       32.842      861.424
07/24/2013  16:11:00     -149.055     -118.253       14.134      142.933      130.980       70.825    20429.890    17155.700     5016.190        3.949        2.130      190.266       79.328        0.174      350.701       32.058      861.418
07/24/2013  16:12:00      -17.402      125.328       31.147       71.190       78.292       56.165     5068.029     6129.589     3154.548        1.566        0.718      126.531       46.713        0.136      350.855       32.327      861.436
07/24/2013  16:13:00     -126.770       11.800       -5.712       62.328       72.619       46.718     3884.727     5273.484     2182.594        1.379        0.567      127.318       32.342        0.065      350.965       32.519      861.431
07/24/2013  16:14:00     -264.081      -54.370      -27.507       91.763      133.371       38.044     8420.536    17787.903     1447.366        5.055        1.383      269.619       28.997        0.012      350.892       32.390      861.434
07/24/2013  16:15:00     -256.935      -98.721       -4.693      175.680      104.452       55.173    30863.479    10910.312     3044.030        6.029        2.241      275.248       64.266        0.055      350.947       32.485      861.421
07/24/2013  16:16:00     -192.957      -41.625       -5.140      157.452       75.313       59.782    24791.056     5672.057     3573.944        3.651        1.702      197.395       68.434        0.120      350.904       32.411      861.415
07/24/2013  16:17:00     -183.709      -88.952       -8.960       68.573       75.952       39.784     4702.315     5768.755     1582.768        2.690        0.603      204.112       38.778        0.036      350.853       32.322      861.414
07/24/2013  16:18:00      -46.463      -61.540       14.578       99.055       81.904       55.656     9811.957     6708.205     3097.555        1.288        0.981       77.110       53.298        0.478      351.029       32.630      861.382
07/24/2013  16:19:00       -6.298       -1.324        3.487       39.517       22.800       15.748     1561.554      519.846      248.009        0.119        0.116        6.436       14.737        5.244      350.946       32.487      861.378
07/24/2013  16:20:00      -16.025      137.115        0.179       69.578       97.824       46.587     4841.067     9569.534     2170.304        1.782        0.829      138.048       47.915        0.120      350.991       32.565      861.385
07/24/2013  16:21:00     -145.476       91.691      -25.126       87.015      167.221       43.866     7571.669    27962.812     1924.213        3.382        1.873      171.960       36.022        0.044      351.219       32.959      861.383
07/24/2013  16:22:00     -139.545      145.362      -16.725       81.872      116.899       47.865     6702.983    13665.347     2291.043        3.177        1.133      201.502       53.832        0.071      351.087       32.731      861.411
07/24/2013  16:23:00     -162.138      216.515      -30.364      110.776      126.997       70.697    12271.324    16128.127     4998.093        5.374        1.670      270.495       62.953        0.054      350.895       32.393      861.421
07/24/2013  16:24:00     -212.724       97.192      -29.436      125.500       67.072       44.962    15750.368     4498.625     2021.551        3.891        1.114      233.876       55.644        0.057      350.844       32.307      861.416
07/24/2013  16:25:00     -123.572       70.960       -7.038      115.487       87.193       45.820    13337.181     7602.639     2099.427        2.169        1.152      142.497       50.491        0.126      350.708       32.071      861.406
07/24/2013  16:26:00      -84.332       94.725       -5.464       99.219       70.386       45.522     9844.461     4954.231     2072.238        1.649        0.844      126.826       38.688        0.093      350.797       32.226      861.393
07/24/2013  16:27:00     -121.419      151.933      -25.707       79.820       66.966       40.861     6371.276     4484.509     1669.618        2.550        0.626      194.489       45.332        0.054      350.830       32.283      861.398
07/24/2013  16:28:00      -42.090      146.355       -7.689       55.828       83.588       37.218     3116.798     6986.891     1385.195        1.737        0.574      152.287       40.583        0.071      350.986       32.556      861.384
07/24/2013  16:29:00      -93.309      274.319      -32.428      101.682      110.618       56.249    10339.175    12236.314     3163.997        5.537        1.287      289.754       50.343        0.030      350.703       32.062      861.370
07/24/2013  16:30:00      -95.413      260.163      -15.789      106.295      130.128       70.584    11298.635    16933.390     4982.071        5.512        1.661      277.107       59.304        0.046      350.827       32.277      861.362
07/24/2013  16:31:00     -145.567      241.610      -21.736       65.571      169.256       50.262     4299.567    28647.527     2526.281        5.775        1.774      282.072       54.637        0.038      350.925       32.448      861.375
07/24/2013  16:32:00      -66.686       65.358       -7.220       64.852       63.906       42.320     4205.721     4084.041     1790.950        0.942        0.504       93.374       36.858        0.156      351.049       32.667      861.381
07/24/2013  16:33:00      -34.936      215.451        4.570       52.725      116.755       51.401     2779.901    13631.846     2642.013        3.335        0.953      218.265       55.032        0.064      350.788       32.210      861.372
07/24/2013  16:34:00      -30.051      251.579      -30.944      115.171      128.964       57.838    13264.425    16631.812     3345.257        4.919        1.662      253.368       62.035        0.060      350.658       31.982      861.364
07/24/2013  16:35:00       25.114      410.565      -45.035       85.031      147.668       77.963     7230.215    21805.763     6078.237       10.316        1.756      411.333       76.423        0.035      350.603       31.887      861.296
07/24/2013  16:36:00     -351.685      106.158      -43.400      190.205      191.497       67.733    36177.952    36671.198     4587.799       10.712        3.872      367.358       59.271        0.026      350.738       32.121      861.289
07/24/2013  16:37:00     -380.898       14.164      -53.255      113.833      108.259       65.317    12958.027    11719.998     4266.294        8.853        1.447      381.161       59.238        0.024      350.728       32.104      861.316
07/24/2013  16:38:00     -202.664       22.907      -18.136      112.130      124.574       59.561    12573.061    15518.619     3547.488        3.678        1.582      203.954       59.896        0.086      350.855       32.324      861.362
07/24/2013  16:39:00     -233.284      -14.635      -33.388      130.285      114.554       58.070    16974.076    13122.686     3372.182        4.460        1.673      233.743       64.875        0.077      350.732       32.110      861.359
07/24/2013  16:40:00     -152.570       95.698      -32.468      126.086       80.662       51.042    15897.616     6506.306     2605.307        2.924        1.250      180.099       55.108        0.094      350.728       32.105      861.351
07/24/2013  16:41:00     -112.215       84.183       -5.524       78.501       88.319       47.663     6162.393     7800.181     2271.718        1.797        0.812      140.282       52.385        0.139      350.876       32.364      861.355
07/24/2013  16:42:00      -60.753       68.393        8.044       68.622       60.452       44.841     4708.919     3654.500     2010.705        0.940        0.519       91.480       45.157        0.244      350.949       32.491      861.344
07/24/2013  16:43:00     -168.414      -22.432      -23.887       61.465       59.515       35.658     3777.906     3541.976     1271.466        1.901        0.430      169.902       34.990        0.042      350.923       32.446      861.325
07/24/2013  16:44:00       -0.619       54.784       26.840       31.196       57.926       36.575      973.200     3355.408     1337.739        0.469        0.283       54.787       37.840        0.477      351.191       32.914      861.315
07/24/2013  16:45:00       31.331       79.269       14.882       96.424       67.353       50.208     9297.633     4536.375     2520.854        1.192        0.818       85.236       45.182        0.281      351.003       32.585      861.285
07/24/2013  16:46:00     -112.381      -16.421       12.102       88.503       83.167       51.139     7832.834     6916.768     2615.227        1.520        0.868      113.575       42.545        0.140      351.560       33.555      861.289
07/24/2013  16:47:00     -119.598      127.695       -3.186       71.376       74.482       43.581     5094.511     5547.534     1899.278        2.158        0.627      174.957       39.540        0.051      351.172       32.879      861.334
07/24/2013  16:48:00     -152.488       73.030      -31.116      106.046       87.910       55.026    11245.706     7728.215     3027.862        2.577        1.100      169.074       45.958        0.074      350.799       32.229      861.341
07/24/2013  16:49:00     -134.393      172.683       -9.690       68.691      113.491       60.282     4718.510    12880.146     3633.975        3.460        1.062      218.817       60.032        0.075      350.978       32.540      861.323
07/24/2013  16:50:00      -93.675       63.177        5.217       56.196       86.445       49.146     3157.973     7472.689     2415.350        1.292        0.652      112.988       30.283        0.072      350.986       32.555      861.315
07/24/2013  16:51:00     -141.203       42.733        1.142      135.552      122.745       46.412    18374.299    15066.295     2154.107        2.867        1.780      147.528       47.042        0.102      350.862       32.340      861.302
07/24/2013  16:52:00     -319.879      -81.200      -10.146      127.809      107.763       70.891    16335.086    11612.829     5025.603        7.099        1.649      330.024       60.888        0.034      350.806       32.239      861.289
07/24/2013  16:53:00      -78.486      131.868      -19.897       64.356      106.314       61.064     4141.642    11302.588     3728.761        2.156        0.959      153.457       36.022        0.055      350.650       31.969      861.318
07/24/2013  16:54:00     -145.157       21.384      -11.857      101.137       86.467       47.750    10228.658     7476.534     2280.061        2.082        0.999      146.724       55.466        0.143      350.665       31.996      861.315
07/24/2013  16:55:00     -176.565       60.708      -16.028      102.171      102.043       61.665    10438.951    10412.729     3802.596        2.988        1.233      186.710       42.340        0.051      350.661       31.988      861.320
07/24/2013  16:56:00     -176.324      119.925       -3.021      102.003       86.131       61.256    10404.577     7418.613     3752.345        3.352        1.079      213.242       48.283        0.051      350.678       32.019      861.317
07/24/2013  16:57:00     -145.130      206.804      -16.484       86.346      128.859       61.382     7455.651    16604.574     3767.694        4.596        1.391      252.648       70.136        0.077      350.692       32.041      861.299
07/24/2013  16:58:00     -180.727      219.382      -44.490      110.778      139.209       65.759    12271.840    19379.125     4324.189        5.937        1.799      284.237       71.143        0.063      350.720       32.092      861.302
07/24/2013  16:59:00     -194.425      137.028      -21.955       98.330      154.564       59.508     9668.788    23890.093     3541.167        4.707        1.855      237.861       60.697        0.065      350.609       31.897      861.305
07/24/2013  17:00:00     -238.414       77.639      -50.891      102.179      128.755       65.993    10440.643    16577.767     4355.013        4.841        1.569      250.737       53.982        0.046      350.481       31.674      861.288
07/24/2013  17:01:00      -97.021       50.806       -7.425       90.987      108.910       56.197     8278.554    11861.444     3158.154        1.767        1.165      109.519       51.094        0.218      350.572       31.833      861.301
07/24/2013  17:02:00     -152.460      176.325      -22.738       94.241      135.953       53.470     8881.456    18483.288     2859.070        4.253        1.511      233.098       61.951        0.071      350.485       31.681      861.306
07/24/2013  17:03:00     -216.902      248.017      -41.544       74.119      108.738       58.149     5493.579    11823.976     3381.323        6.549        1.035      329.483       52.398        0.025      350.437       31.598      861.307
07/24/2013  17:04:00     -156.182      187.864      -32.629       92.207       92.846       62.081     8502.135     8620.305     3854.112        4.086        1.049      244.306       54.433        0.050      350.510       31.723      861.297
07/24/2013  17:05:00     -102.306      120.717       -2.389       79.536       67.465       49.834     6325.998     4551.546     2483.441        1.920        0.668      158.237       47.587        0.090      350.603       31.888      861.282
07/24/2013  17:06:00     -122.503      106.958      -12.846       80.610       55.463       45.770     6497.967     3076.162     2094.907        1.914        0.583      162.625       42.650        0.069      350.693       32.045      861.278
07/24/2013  17:07:00     -127.765       87.186      -12.293       90.847       80.360       45.871     8253.185     6457.770     2104.137        2.044        0.841      154.678       35.630        0.053      350.638       31.950      861.271
07/24/2013  17:08:00     -117.924       57.072      -19.897       63.152       60.289       42.695     3988.112     3634.816     1822.898        1.350        0.472      131.009       32.518        0.062      350.802       32.235      861.265
07/24/2013  17:09:00     -186.389      149.201      -27.482      100.701      117.987       53.523    10140.752    13921.036     2864.746        4.234        1.346      238.750       42.581        0.032      350.680       32.020      861.281
07/24/2013  17:10:00      -80.980       42.524        1.471      101.026       95.073       58.489    10206.229     9038.818     3420.927        1.551        1.133       91.466       49.662        0.295      350.694       32.047      861.293
07/24/2013  17:11:00     -121.492       73.885       -4.549       99.492      117.025       59.102     9898.747    13694.959     3493.040        2.366        1.354      142.194       52.418        0.136      350.698       32.054      861.314
07/24/2013  17:12:00     -229.783      144.869      -23.501      122.238      141.690       62.509    14942.117    20076.116     3907.314        5.662        1.946      271.638       55.658        0.042      350.508       31.721      861.311
07/24/2013  17:13:00     -177.788      242.104      -54.315       94.675      100.127       59.307     8963.355    10025.379     3517.309        5.783        1.125      300.371       47.398        0.025      350.408       31.548      861.314
07/24/2013  17:14:00     -137.218      147.003      -31.350      112.239       85.841       50.844    12597.561     7368.604     2585.112        3.198        1.128      201.094       44.219        0.048      350.536       31.771      861.312
07/24/2013  17:15:00     -191.566      244.617      -24.737      123.184      138.428       72.986    15174.282    19162.207     5326.901        6.840        1.983      310.701       76.655        0.061      350.527       31.755      861.309
07/24/2013  17:16:00     -216.337      249.105      -43.468       97.372       89.737       55.805     9481.225     8052.788     3114.207        6.569        1.032      329.932       52.774        0.026      350.490       31.689      861.310
07/24/2013  17:17:00     -241.406      214.830      -48.833      107.459      113.099       63.879    11547.488    12791.472     4080.469        6.761        1.421      323.154       69.969        0.047      350.565       31.819      861.293
07/24/2013  17:18:00     -172.200       98.031      -21.405       84.610       99.138       53.022     7158.928     9828.418     2811.381        2.976        0.990      198.149       48.758        0.061      350.652       31.972      861.280
07/24/2013  17:19:00      -84.610      188.032      -18.341       61.493       91.200       50.890     3781.333     8317.367     2589.742        2.877        0.734      206.191       51.755        0.063      350.766       32.171      861.283
07/24/2013  17:20:00     -150.215      155.218      -23.935      127.798      104.969       59.403    16332.286    11018.427     3528.743        3.905        1.544      216.003       62.059        0.083      350.774       32.184      861.281
07/24/2013  17:21:00     -163.748      189.097      -40.357       93.295       81.699       51.834     8703.951     6674.730     2686.782        4.113        0.903      250.142       53.060        0.045      350.706       32.064      861.256
07/24/2013  17:22:00     -109.311       85.553      -10.823       67.669       90.395       47.011     4579.160     8171.240     2210.031        1.717        0.748      138.810       40.032        0.083      350.811       32.251      861.241
07/24/2013  17:23:00     -150.344      148.081       -7.966      124.826      110.454       66.890    15581.421    12200.116     4474.283        3.842        1.613      211.024       59.659        0.080      350.758       32.158      861.244
07/24/2013  17:24:00      -88.092       91.803       -4.026      111.424      129.875       64.528    12415.252    16867.491     4163.831        2.482        1.672      127.232       68.504        0.290      350.942       32.478      861.233
07/24/2013  17:25:00     -206.751       80.565      -30.665      134.473      105.640       61.609    18082.855    11159.881     3795.649        4.160        1.652      221.893       62.488        0.079      350.833       32.287      861.237
07/24/2013  17:26:00     -169.867      160.592      -14.541      135.526      100.186       69.658    18367.310    10037.227     4852.227        4.405        1.663      233.762       78.584        0.113      350.792       32.217      861.237
07/24/2013  17:27:00     -206.884       66.934      -34.690      107.590      163.929       60.835    11575.637    26872.596     3700.920        4.531        2.107      217.442       40.595        0.035      350.850       32.316      861.239
07/24/2013  17:28:00      -42.179       68.257       16.447      101.988      108.478       65.559    10401.528    11767.560     4297.951        1.658        1.323       80.237       60.189        0.563      350.947       32.487      861.220
07/24/2013  17:29:00     -149.056      208.308      -21.489       83.769      112.822       56.236     7017.313    12728.702     3162.531        4.449        1.145      256.144       48.070        0.035      350.721       32.092      861.236
07/24/2013  17:30:00      -92.437       66.398        5.935       88.304       84.748       50.692     7797.578     7182.296     2569.688        1.527        0.877      113.813       51.360        0.204      351.043       32.656      861.225
07/24/2013  17:31:00     -199.760       69.610      -21.621      146.998       88.332       54.562    21608.494     7802.602     2976.984        3.880        1.619      211.541       55.436        0.069      350.806       32.242      861.233
07/24/2013  17:32:00     -185.260      154.524      -34.710      105.461       80.637       63.446    11122.045     6502.266     4025.374        4.052        1.082      241.244       56.331        0.055      350.778       32.192      861.243
07/24/2013  17:33:00     -192.567      173.731      -30.829       96.462      109.113       70.098     9304.959    11905.741     4913.702        4.716        1.306      259.354       76.596        0.087      350.730       32.109      861.233
07/24/2013  17:34:00     -185.941      174.921      -27.190      106.004      117.033       54.580    11236.843    13696.721     2978.923        4.691        1.396      255.287       46.851        0.034      350.626       31.926      861.236
07/24/2013  17:35:00     -150.185      218.636      -28.774       88.200      121.389       64.194     7779.243    14735.201     4120.929        4.890        1.332      265.250       66.101        0.062      350.578       31.843      861.238
07/24/2013  17:36:00      -59.849       86.451       24.012       89.048       89.679       57.725     7929.524     8042.328     3332.177        1.546        0.965      105.146       53.496        0.259      350.637       31.946      861.218
07/24/2013  17:37:00     -170.355      116.647      -30.513       83.613       76.322       50.579     6991.060     5825.015     2558.284        2.946        0.769      206.464       43.314        0.044      350.461       31.640      861.228
07/24/2013  17:38:00     -125.690      193.036      -23.556       83.042      101.893       55.180     6895.984    10382.273     3044.843        3.697        1.016      230.349       57.266        0.062      350.496       31.700      861.227
07/24/2013  17:39:00     -210.552       37.572      -25.816       94.668      130.162       50.174     8962.041    16942.029     2517.392        3.741        1.421      213.878       42.886        0.040      350.502       31.710      861.215
07/24/2013  17:40:00     -141.741      174.329      -24.634       78.272      128.353       56.799     6126.471    16474.369     3226.132        3.845        1.291      224.680       52.045        0.054      350.480       31.674      861.222
07/24/2013  17:41:00     -221.594       32.141      -27.260      128.474      106.500       66.423    16505.477    11342.304     4412.022        4.156        1.613      223.912       60.736        0.074      350.453       31.626      861.210
07/24/2013  17:42:00     -216.360       51.426      -30.248       81.881       99.712       56.310     6704.537     9942.564     3170.850        3.509        0.991      222.388       43.469        0.038      350.414       31.557      861.181
07/24/2013  17:43:00     -164.368       37.793       -5.144      117.478       92.547       68.448    13801.136     8564.979     4685.122        2.776        1.353      168.657       75.137        0.198      350.448       31.618      861.169
07/24/2013  17:44:00     -107.889      136.719      -14.994       89.785       94.915       55.835     8061.345     9008.903     3117.593        2.537        1.009      174.162       37.731        0.047      350.438       31.600      861.155
07/24/2013  17:45:00     -148.021      228.253      -33.623       90.178      112.647       58.682     8132.105    12689.375     3443.519        4.970        1.213      272.047       62.458        0.053      350.478       31.668      861.166
07/24/2013  17:46:00     -121.281      167.647      -12.334       70.924       82.350       60.402     5030.205     6781.502     3648.444        2.921        0.773      206.917       49.373        0.057      350.465       31.648      861.142
07/24/2013  17:47:00     -138.339      161.296      -18.868       69.407       94.226       54.309     4817.287     8878.522     2949.419        3.107        0.832      212.495       44.779        0.044      350.463       31.643      861.153
07/24/2013  17:48:00     -112.509      163.620        0.839       67.475      127.000       58.802     4552.931    16128.960     3457.710        3.178        1.207      198.569       63.643        0.103      350.477       31.668      861.147
07/24/2013  17:49:00     -105.721      122.659      -13.340       55.596       77.435       45.782     3090.948     5996.131     2096.017        1.879        0.559      161.932       32.626        0.041      350.509       31.723      861.143
07/24/2013  17:50:00     -127.816      247.402      -34.696       90.242       80.614       54.945     8143.573     6498.698     3018.947        4.820        0.883      278.468       44.346        0.025      350.411       31.553      861.154
07/24/2013  17:51:00      -72.150      215.049      -15.934       71.098       79.955       47.950     5054.923     6392.755     2299.211        3.272        0.687      226.830       45.787        0.041      350.394       31.524      861.142
07/24/2013  17:52:00      -51.167      202.548      -12.442       83.081       91.737       55.944     6902.374     8415.682     3129.733        3.112        0.922      208.911       48.022        0.053      350.396       31.528      861.111
07/24/2013  17:53:00     -124.598      133.642      -14.510       72.301      106.447       47.470     5227.392    11330.881     2253.418        2.620        0.941      182.715       47.142        0.067      350.511       31.727      861.119
07/24/2013  17:54:00     -210.363       68.315      -38.376       88.427       62.116       44.721     7819.320     3858.457     2000.006        3.203        0.684      221.178       39.895        0.033      350.497       31.703      861.112
07/24/2013  17:55:00      -76.938       38.888       -2.208       53.246       57.605       32.042     2835.149     3318.311     1026.689        0.731        0.359       86.207       27.350        0.101      350.467       31.653      861.108
07/24/2013  17:56:00     -116.015       18.096       -1.993       70.542       69.134       37.030     4976.152     4779.489     1371.250        1.246        0.556      117.418       34.640        0.087      350.532       31.763      861.099
07/24/2013  17:57:00     -116.249        2.258       16.967      109.054       75.570       50.923    11892.787     5710.796     2593.132        1.700        1.010      116.271       60.462        0.270      350.496       31.702      861.086
07/24/2013  17:58:00     -138.518      205.497      -25.941      104.373      112.508       53.855    10893.788    12658.112     2900.390        4.427        1.323      247.823       61.987        0.063      350.397       31.530      861.115
07/24/2013  17:59:00     -149.055      243.753      -35.522       65.737      127.887       59.517     4321.322    16355.040     3542.324        5.355        1.211      285.715       57.514        0.041      350.376       31.493      861.101
07/24/2013  18:00:00      -84.336      297.131      -17.579       76.787       90.969       45.633     5896.202     8275.288     2082.410        5.598        0.813      308.868       29.755        0.009      350.297       31.354      861.091
07/24/2013  18:01:00     -100.770      292.274      -20.708       80.873       96.825       53.923     6540.496     9375.010     2907.719        5.741        0.941      309.158       51.122        0.027      350.258       31.287      861.086
07/24/2013  18:02:00      -61.288      296.747      -28.449       71.697       89.625       34.202     5140.409     8032.634     1169.809        5.348        0.717      303.010       21.952        0.005      350.266       31.299      861.067
07/24/2013  18:03:00     -169.219      175.018      -16.691      125.956      167.579       66.603    15864.815    28082.679     4436.012        5.395        2.419      243.447       58.619        0.058      350.314       31.384      861.058
07/24/2013  18:04:00     -212.189      258.504      -57.117      101.020       90.940       52.915    10205.099     8270.122     2800.008        6.819        1.064      334.438       58.130        0.030      350.319       31.392      861.066
07/24/2013  18:05:00     -164.330      269.093      -39.913       76.723      110.949       59.991     5886.406    12309.778     3598.914        6.140        1.090      315.302       52.093        0.027      350.311       31.378      861.080
07/24/2013  18:06:00     -141.525      150.085      -23.159       91.001       74.494       45.414     8281.176     5549.355     2062.441        2.949        0.795      206.288       44.433        0.046      350.301       31.362      861.070
07/24/2013  18:07:00     -160.125       75.836      -23.143       45.503       67.046       37.004     2070.500     4495.225     1369.321        1.993        0.397      177.176       22.243        0.016      350.381       31.502      861.070
07/24/2013  18:08:00     -195.243      112.414      -39.036      107.546      113.607       54.728    11566.199    12906.621     2995.115        3.987        1.373      225.293       42.264        0.035      350.364       31.473      861.067
07/24/2013  18:09:00     -126.777       22.702      -27.065       89.741       84.891       45.918     8053.532     7206.531     2108.507        1.734        0.868      128.794       36.035        0.078      350.351       31.451      861.072
07/24/2013  18:10:00     -232.500       99.773      -26.833      137.685      112.058       53.448    18957.078    12556.978     2856.699        4.954        1.719      253.003       62.182        0.060      350.316       31.388      861.085
07/24/2013  18:11:00     -251.429       83.488      -32.132      108.223      104.636       65.399    11712.218    10948.714     4276.998        4.907        1.347      264.928       54.642        0.043      350.284       31.330      861.102
07/24/2013  18:12:00     -225.966       45.556      -23.085       92.431      101.782       63.664     8543.574    10359.611     4053.084        3.831        1.148      230.513       48.101        0.044      350.294       31.350      861.101
07/24/2013  18:13:00     -116.911      119.312      -20.561       76.515      106.617       63.058     5854.505    11367.113     3976.349        2.476        1.060      167.043       39.432        0.056      350.304       31.368      861.115
07/24/2013  18:14:00     -169.805      183.117      -24.493       95.365       74.206       46.667     9094.566     5506.561     2177.847        3.987        0.839      249.731       47.442        0.036      350.245       31.262      861.111
07/24/2013  18:15:00      -85.920      101.241       -4.966       79.329       74.566       52.765     6293.114     5560.026     2784.177        1.614        0.732      132.786       49.424        0.139      350.266       31.302      861.089
07/24/2013  18:16:00      -83.836      123.044      -10.738       61.675       91.828       40.839     3803.782     8432.395     1667.825        1.809        0.695      148.890       44.729        0.090      350.289       31.342      861.094
07/24/2013  18:17:00      -87.031      147.969      -13.716       48.237       71.952       31.441     2326.817     5177.069      988.545        1.907        0.425      171.666       26.082        0.023      350.326       31.407      861.087
07/24/2013  18:18:00     -128.412      144.651       -9.047       81.657       83.815       54.204     6667.815     7024.962     2938.097        2.706        0.832      193.426       46.122        0.057      350.270       31.309      861.092
07/24/2013  18:19:00     -155.695      196.007      -31.771       83.979      160.792       61.676     7052.460    25854.043     3803.982        5.018        1.836      250.319       57.010        0.052      350.371       31.485      861.110
07/24/2013  18:20:00     -166.978       89.555       -5.196      105.157      114.365       62.280    11057.953    13079.329     3878.807        3.197        1.401      189.477       53.151        0.079      350.388       31.513      861.136
07/24/2013  18:21:00     -242.527       63.665      -11.608      102.391       88.028       58.960    10483.845     7749.011     3476.247        4.235        1.085      250.745       60.441        0.058      350.430       31.586      861.143
07/24/2013  18:22:00     -207.466       -5.539      -11.045      125.690      141.785       50.757    15797.906    20102.962     2576.261        4.083        1.924      207.540       39.253        0.036      350.518       31.739      861.132
07/24/2013  18:23:00     -348.297      -65.402      -40.416      112.454       92.933       58.954    12645.964     8636.481     3475.632        7.599        1.238      354.385       59.678        0.028      350.480       31.672      861.140
07/24/2013  18:24:00     -221.279      -18.896      -17.058      118.113       86.538       53.792    13950.636     7488.880     2893.606        3.697        1.217      222.085       56.980        0.066      350.555       31.803      861.150
07/24/2013  18:25:00     -177.618      -43.618       -0.567      156.282      132.536       67.541    24423.960    17565.823     4561.721        3.999        2.328      182.896       62.503        0.117      350.585       31.854      861.140
07/24/2013  18:26:00     -236.209       71.491      -44.649      120.742      113.435       61.432    14578.750    12867.496     3773.843        4.705        1.561      246.791       50.291        0.042      350.550       31.794      861.153
07/24/2013  18:27:00     -241.847       66.705      -20.407      129.616       95.658       62.770    16800.230     9150.514     3940.130        4.662        1.495      250.877       69.723        0.077      350.484       31.679      861.170
07/24/2013  18:28:00     -192.322       93.688      -19.859      158.162       95.631       68.773    25015.264     9145.285     4729.755        4.252        1.945      213.928       81.915        0.147      350.446       31.615      861.175
07/24/2013  18:29:00     -268.274       72.374      -22.735      119.835      126.424       68.365    14360.470    15983.135     4673.789        5.636        1.751      277.865       74.001        0.071      350.372       31.484      861.168
07/24/2013  18:30:00     -190.802       33.117       -8.398      110.527      109.099       61.108    12216.243    11902.686     3734.222        3.271        1.393      193.654       65.158        0.113      350.440       31.606      861.175
07/24/2013  18:31:00     -125.510       62.789        0.578      118.715       76.944       64.559    14093.145     5920.400     4167.885        2.193        1.209      140.339       61.946        0.195      350.487       31.688      861.166
07/24/2013  18:32:00     -135.217       12.718      -10.126       96.304       93.932       51.254     9274.397     8823.180     2626.998        1.963        1.036      135.814       46.978        0.120      350.577       31.842      861.172
07/24/2013  18:33:00     -314.555      104.515      -43.124      114.084      111.570       63.210    13015.273    12447.819     3995.543        7.059        1.473      331.463       61.044        0.034      350.460       31.637      861.178
07/24/2013  18:34:00     -337.706       12.649      -29.269      128.648      125.160       68.088    16550.406    15664.937     4635.971        7.595        1.843      337.943       58.462        0.030      350.480       31.671      861.155
07/24/2013  18:35:00     -333.430      -58.817      -35.019       96.111      125.147       50.308     9237.416    15661.690     2530.880        7.164        1.371      338.577       37.922        0.013      350.544       31.781      861.162
07/24/2013  18:36:00     -179.162       51.755      -12.161       85.496      144.027       68.099     7309.643    20743.871     4637.411        3.380        1.635      186.488       53.991        0.084      350.527       31.754      861.182
07/24/2013  18:37:00     -193.412      -46.177      -16.131      105.916      104.093       53.777    11218.098    10835.397     2891.964        3.237        1.247      198.848       50.066        0.063      350.655       31.978      861.191
07/24/2013  18:38:00     -256.452      -59.517      -13.749      177.431      129.079       74.732    31481.841    16661.474     5584.824        6.160        2.686      263.268       64.144        0.059      350.547       31.788      861.199
07/24/2013  18:39:00     -346.949     -102.364      -36.786      167.666      125.888       83.336    28111.858    15847.741     6944.913        9.154        2.545      361.735       84.212        0.054      350.547       31.787      861.197
07/24/2013  18:40:00     -259.571      -54.602      -10.378      157.900      109.903       65.887    24932.391    12078.573     4341.059        5.590        2.068      265.251       59.439        0.050      350.537       31.769      861.236
07/24/2013  18:41:00     -226.528      -62.184      -19.796       78.965       81.470       50.967     6235.434     6637.310     2597.649        3.552        0.774      234.908       28.203        0.014      350.583       31.850      861.255
07/24/2013  18:42:00     -281.276       12.972      -28.300      126.908       97.711       58.368    16105.642     9547.521     3406.828        5.457        1.453      281.575       36.820        0.017      350.507       31.718      861.266
07/24/2013  18:43:00     -243.592      -47.724      -25.207      129.175       83.047       57.570    16686.202     6896.811     3314.277        4.457        1.345      248.222       40.757        0.027      350.524       31.747      861.254
07/24/2013  18:44:00     -351.843      -71.661      -48.165      111.566       94.437       61.247    12446.888     8918.359     3751.171        7.818        1.256      359.067       63.117        0.031      350.456       31.630      861.266
07/24/2013  18:45:00     -221.859      -30.675      -17.818      114.870       98.957       59.243    13195.077     9792.455     3509.770        3.848        1.325      223.970       32.674        0.021      350.469       31.652      861.266
07/24/2013  18:46:00     -268.217      -38.848      -28.049       83.469       85.786       51.399     6967.137     7359.247     2641.898        4.560        0.848      271.016       44.705        0.027      350.413       31.556      861.287
07/24/2013  18:47:00     -257.852      -35.721      -13.060      137.461      104.363       59.274    18895.661    10891.711     3513.402        5.061        1.665      260.315       62.043        0.057      350.354       31.455      861.295
07/24/2013  18:48:00     -409.807       45.222      -30.656      127.728      114.395       47.639    16314.418    13086.118     2269.428       10.129        1.583      412.295       42.945        0.011      350.328       31.408      861.304
07/24/2013  18:49:00     -242.926       -9.796      -13.291       93.166       88.099       53.502     8679.848     7761.507     2862.453        3.929        0.965      243.123       49.762        0.042      350.435       31.594      861.311
07/24/2013  18:50:00     -348.070       -1.473      -25.297      106.341       82.999       43.885    11308.495     6888.789     1925.866        7.095        1.006      348.073       27.896        0.006      350.438       31.598      861.322
07/24/2013  18:51:00     -293.720       38.539      -42.517       74.322       61.810       34.431     5523.817     3820.532     1185.507        5.004        0.526      296.237       34.295        0.013      350.408       31.547      861.325
07/24/2013  18:52:00     -174.447       26.553      -14.189       83.114       72.393       39.312     6907.884     5240.746     1545.398        2.251        0.685      176.456       41.182        0.054      350.523       31.747      861.333
07/24/2013  18:53:00      -87.195      -18.679       21.893      111.763      104.272       53.729    12491.007    10872.569     2886.768        1.734        1.313       89.174       66.157        0.550      350.527       31.756      861.334
07/24/2013  18:54:00     -174.882       63.133      -34.622      118.875      131.513       56.278    14131.363    17295.551     3167.163        3.517        1.730      185.929       65.739        0.125      350.485       31.684      861.353
07/24/2013  18:55:00     -214.979       31.996      -29.851      128.540      117.525       72.125    16522.564    13812.080     5202.012        4.183        1.777      217.347       61.025        0.079      350.394       31.523      861.366
07/24/2013  18:56:00     -149.687       64.150      -25.761       83.440      106.824       50.165     6962.284    11411.285     2516.522        2.403        1.045      162.854       47.068        0.084      350.435       31.595      861.367
07/24/2013  18:57:00     -135.008       38.727       -1.076       87.941       97.672       60.293     7733.624     9539.864     3635.210        2.031        1.045      140.452       40.216        0.082      350.441       31.607      861.366
07/24/2013  18:58:00     -182.921      -14.507      -32.783      129.617      132.142       51.355    16800.584    17461.536     2637.320        3.581        1.845      183.495       43.688        0.057      350.447       31.617      861.371
07/24/2013  18:59:00     -203.428       57.653      -37.098      100.449       88.543       48.611    10089.945     7839.781     2363.031        3.318        1.015      211.440       53.111        0.063      350.382       31.506      861.379
07/24/2013  19:00:00     -256.208       74.420      -41.587      137.326      142.687       62.196    18858.344    20359.609     3868.339        5.799        2.154      266.798       54.864        0.042      350.342       31.434      861.386
07/24/2013  19:01:00     -229.652      -31.060      -14.393      112.898      138.990       60.885    12745.985    19318.263     3706.940        4.483        1.789      231.743       56.180        0.059      350.396       31.526      861.384
07/24/2013  19:02:00     -365.739      -29.386      -35.209       80.255       80.955       51.803     6440.924     6553.660     2683.593        7.577        0.784      366.918       41.062        0.013      350.286       31.335      861.400
07/24/2013  19:03:00     -257.329      -81.253      -10.612      123.398       92.070       53.150    15227.047     8476.911     2824.895        4.973        1.326      269.852       57.138        0.045      350.300       31.361      861.402
07/24/2013  19:04:00     -207.018       -7.604      -14.911       86.579       88.189       44.665     7495.928     7777.335     1994.947        3.020        0.863      207.157       33.252        0.026      350.351       31.449      861.404
07/24/2013  19:05:00     -257.988       -9.945      -31.021       84.451       65.215       34.788     7131.913     4253.012     1210.207        4.010        0.630      258.180       37.543        0.021      350.353       31.451      861.411
07/24/2013  19:06:00     -226.269        2.809      -10.631       77.554       93.040       34.578     6014.639     8656.445     1195.643        3.359        0.793      226.287       39.523        0.031      350.365       31.470      861.424
07/24/2013  19:07:00     -263.930      -19.584      -17.822      106.348       65.717       45.466    11309.974     4318.742     2067.144        4.402        0.885      264.656       53.012        0.040      350.345       31.438      861.431
07/24/2013  19:08:00     -255.378      -77.877      -25.971       63.763       61.909       40.888     4065.664     3832.761     1671.827        4.076        0.479      266.989       27.627        0.011      350.328       31.408      861.435
07/24/2013  19:09:00     -254.214       22.032      -14.747       72.415       76.844       41.179     5243.906     5905.074     1695.701        3.908        0.642      255.167       35.143        0.019      350.393       31.520      861.437
07/24/2013  19:10:00     -204.477      -43.499       -1.378       73.050       63.078       38.483     5336.266     3978.849     1480.980        2.725        0.540      209.052       40.058        0.037      350.398       31.531      861.443
07/24/2013  19:11:00      -89.389      -12.567        6.678       92.234       57.932       30.343     8507.115     3356.083      920.720        1.049        0.639       90.269       36.026        0.159      350.453       31.629      861.442
07/24/2013  19:12:00      -14.398      -33.815       33.391       87.151       59.034       50.449     7595.268     3485.017     2545.120        0.804        0.681       36.753       45.806        1.553      350.377       31.497      861.446
07/24/2013  19:13:00     -191.607      -12.861       -4.434      108.218       63.646       40.684    11711.088     4050.831     1655.212        2.715        0.871      192.038       42.097        0.048      350.449       31.621      861.455
07/24/2013  19:14:00     -206.751      -86.934       -6.820      119.875       92.860       56.778    14370.060     8623.060     3223.742        3.828        1.311      224.284       59.432        0.070      350.319       31.393      861.466
07/24/2013  19:15:00     -278.278       32.877      -11.795      197.221       98.816       61.222    38895.951     9764.505     3748.152        6.552        2.620      280.213       72.436        0.067      350.242       31.258      861.474
07/24/2013  19:16:00     -386.543      -54.771       -8.389      172.403      172.333       87.506    29722.797    29698.555     7657.251       10.977        3.354      390.404       91.640        0.055      350.198       31.181      861.480
07/24/2013  19:17:00     -346.658      -10.113      -21.510      138.853      143.511       71.073    19280.244    20595.495     5051.440        8.282        2.246      346.806       73.540        0.045      350.188       31.164      861.502
07/24/2013  19:18:00     -453.171       -6.308      -24.076      143.501      119.033       73.115    20592.581    14168.910     5345.810       12.304        2.005      453.214       73.686        0.026      350.131       31.064      861.515
07/24/2013  19:19:00     -173.987      -10.234       22.235      144.878       85.640       70.435    20989.637     7334.272     4961.067        3.207        1.664      174.287       82.628        0.225      350.119       31.045      861.527
07/24/2013  19:20:00     -251.506      -41.425       -6.625      101.470       97.928       53.693    10296.232     9589.980     2882.925        4.389        1.138      254.895       55.752        0.048      350.099       31.009      861.532
07/24/2013  19:21:00     -301.053     -104.488        4.564      149.721      119.705       66.925    22416.514    14329.244     4478.950        7.139        2.061      318.670       70.907        0.050      350.059       30.938      861.531
07/24/2013  19:22:00     -215.534      -94.100        3.861      104.897      103.764       56.396    11003.469    10767.031     3180.538        4.013        1.248      235.180       51.383        0.048      350.073       30.963      861.528
07/24/2013  19:23:00     -203.894      -73.836       -2.819       98.841       97.551       47.521     9769.447     9516.190     2258.282        3.428        1.077      216.851       57.136        0.069      350.048       30.920      861.550
07/24/2013  19:24:00     -185.395      -69.678        0.303      106.099       87.782       48.493    11257.078     7705.728     2351.530        3.027        1.066      198.057       51.547        0.068      350.064       30.949      861.550
07/24/2013  19:25:00     -189.873       -1.340        5.175       89.520       77.793       50.054     8013.846     6051.770     2505.416        2.632        0.829      189.877       47.317        0.062      350.043       30.913      861.550
07/24/2013  19:26:00     -314.184     -100.625       -6.663      181.470      125.039       71.145    32931.534    15634.761     5061.550        8.124        2.681      329.905       92.083        0.078      350.025       30.882      861.539
07/24/2013  19:27:00     -225.219      -50.934       14.335      131.842      114.640       70.431    17382.192    13142.400     4960.518        4.450        1.774      230.907       72.093        0.097      350.022       30.878      861.538
07/24/2013  19:28:00     -421.255      -69.325      -20.355      166.243      148.190       70.297    27636.880    21960.157     4941.631       11.860        2.727      426.921       75.360        0.031      350.018       30.868      861.530
07/24/2013  19:29:00     -267.557     -100.413       -2.398      135.541      119.069       63.053    18371.381    14177.415     3975.742        5.909        1.826      285.779       65.688        0.053      350.013       30.860      861.526
07/24/2013  19:30:00     -250.253      -63.674       -5.011      124.191      113.453       56.269    15423.459    12871.615     3166.193        4.908        1.573      258.226       57.547        0.050      350.020       30.871      861.532
07/24/2013  19:31:00     -459.576      -68.257      -34.404      141.149      109.901       70.238    19923.107    12078.319     4933.324       12.699        1.847      464.618       66.731        0.021      349.982       30.809      861.540
07/24/2013  19:32:00     -286.017     -116.731        8.587      175.582      166.107       83.911    30829.202    27591.625     7041.031        8.047        3.273      308.920       96.645        0.098      349.953       30.758      861.527
07/24/2013  19:33:00     -378.738       -3.014      -15.245      187.531      136.864       59.441    35167.981    18731.624     3533.184       10.055        2.872      378.750       79.233        0.044      349.970       30.787      861.528
07/24/2013  19:34:00     -256.609      -40.421       -4.986      131.338       84.190       54.649    17249.669     7087.905     2986.478        4.741        1.366      259.773       66.158        0.065      349.962       30.773      861.530
07/24/2013  19:35:00     -146.390     -126.752        7.711      125.161       97.948       62.349    15665.337     9593.888     3887.429        3.335        1.457      193.639       62.532        0.104      349.961       30.771      861.553
07/24/2013  19:36:00     -207.033      -55.138        5.923      124.705       91.914       73.487    15551.398     8448.193     5400.271        3.766        1.470      214.249       65.574        0.094      349.969       30.785      861.550
07/24/2013  19:37:00     -214.228     -103.613        0.532      112.125      105.042       60.469    12572.096    11033.786     3656.513        4.194        1.363      237.969       59.051        0.062      349.975       30.796      861.566
07/24/2013  19:38:00     -263.988      -62.954        6.979      149.551      116.425       71.706    22365.505    13554.772     5141.694        5.737        2.053      271.390       75.336        0.077      349.952       30.755      861.569
07/24/2013  19:39:00     -335.696      -98.258       -7.984      224.923      127.092       83.910    50590.580    16152.259     7040.818        9.808        3.689      349.780      102.078        0.085      349.950       30.754      861.554
07/24/2013  19:40:00     -332.190     -151.754       -6.192      220.382      179.196       84.033    48568.121    32111.350     7061.621       11.056        4.387      365.212       94.980        0.068      349.929       30.715      861.562
07/24/2013  19:41:00     -259.188      -67.568       -2.253      149.536       92.799       66.436    22361.107     8611.731     4413.738        5.356        1.769      267.850       78.226        0.085      349.920       30.700      861.577
07/24/2013  19:42:00     -321.636     -164.533      -14.971      158.707      141.537       75.403    25188.008    20032.646     5685.557        9.082        2.545      361.277       86.277        0.057      349.911       30.683      861.589
07/24/2013  19:43:00     -202.207     -126.967        3.869      165.384       78.707       66.864    27351.707     6194.821     4470.736        4.751        1.901      238.764       77.846        0.106      349.893       30.653      861.595
07/24/2013  19:44:00     -207.344      -51.303        6.026      126.921      107.471       61.796    16108.870    11550.056     3818.729        3.856        1.574      213.597       70.076        0.108      349.896       30.661      861.589
07/24/2013  19:45:00     -274.651     -102.286       -1.482      151.081      121.667       60.766    22825.352    14802.793     3692.532        6.360        2.066      293.079       64.526        0.048      349.875       30.622      861.604
07/24/2013  19:46:00     -286.071      -97.589       -1.016      162.674      117.684       75.402    26462.935    13849.478     5685.433        6.867        2.300      302.259       80.502        0.071      349.835       30.553      861.619
07/24/2013  19:47:00     -361.518      -50.483       -8.907      234.322      129.029       82.722    54906.746    16648.574     6842.850       10.584        3.920      365.025      112.702        0.095      349.843       30.567      861.618
07/24/2013  19:48:00     -340.220       -5.841       -8.492      159.931      100.259       70.772    25577.957    10051.800     5008.681        7.824        2.032      340.270       78.066        0.053      349.812       30.512      861.628
07/24/2013  19:49:00     -554.011      -28.274      -31.473      217.591      134.216       87.443    47345.766    18014.042     7646.261       19.085        3.650      554.732      102.196        0.034      349.791       30.473      861.625
07/24/2013  19:50:00     -463.509     -103.422      -11.547      154.584      169.819       72.868    23896.287    28838.396     5309.761       14.185        2.902      474.907       71.274        0.023      349.776       30.448      861.616
07/24/2013  19:51:00     -214.854      -66.746       21.306      177.706      109.676       73.288    31579.292    12028.842     5371.117        5.002        2.449      224.983       90.370        0.161      349.753       30.410      861.614
07/24/2013  19:52:00     -356.590      -68.739       -3.630      158.834      131.774       77.024    25228.154    17364.475     5932.633        9.020        2.426      363.155       92.395        0.065      349.730       30.369      861.633
07/24/2013  19:53:00     -365.912      -80.816      -10.086      130.842      153.309       75.914    17119.504    23503.732     5762.881        9.345        2.319      374.730       60.300        0.026      349.745       30.394      861.630
07/24/2013  19:54:00     -285.742     -190.465        7.918      185.012      164.030       75.013    34229.503    26905.987     5626.904        9.236        3.338      343.402       80.919        0.056      349.725       30.359      861.619
07/24/2013  19:55:00     -338.455     -203.973       10.120      205.350      178.002       95.698    42168.760    31684.658     9158.191       11.962        4.151      395.166      107.743        0.074      349.698       30.312      861.622
07/24/2013  19:56:00     -250.890      -84.657        3.584      191.098      140.355       71.224    36518.596    19699.546     5072.903        6.570        3.065      264.788       80.609        0.093      349.692       30.302      861.633
07/24/2013  19:57:00     -321.576      -51.544      -12.956      175.102      119.189       73.612    30660.840    14206.026     5418.700        7.825        2.514      325.681       84.989        0.068      349.682       30.283      861.653
07/24/2013  19:58:00     -247.091     -145.666      -14.191      141.442      116.303       67.902    20005.708    13526.427     4610.635        6.030        1.907      286.832       59.260        0.043      349.668       30.259      861.662
07/24/2013  19:59:00     -281.802     -145.297       12.334      153.054      139.250       75.269    23425.487    19390.450     5665.360        7.457        2.424      317.054       75.703        0.057      349.655       30.238      861.666
07/24/2013  20:00:00     -236.440      -71.421       -7.156      136.046      101.547       54.314    18508.603    10311.701     2949.959        4.641        1.589      246.991       66.176        0.072      349.621       30.180      861.688
07/24/2013  20:01:00     -184.317      -55.103        5.324      156.758      120.213       66.020    24572.916    14451.251     4358.692        4.020        2.169      192.377       89.103        0.215      349.569       30.091      861.700
07/24/2013  20:02:00     -232.110      -35.849        3.009      130.699      117.074       60.249    17082.126    13706.429     3629.914        4.479        1.721      234.862       48.956        0.043      349.595       30.135      861.717
07/24/2013  20:03:00     -334.587     -120.985      -10.465      139.446      129.100       71.015    19445.120    16666.856     5043.142        8.392        2.058      355.789       60.552        0.029      349.608       30.158      861.719
07/24/2013  20:04:00     -369.113     -113.370      -12.504      180.331      141.873       71.240    32519.207    20127.880     5075.156       10.348        2.886      386.131       87.217        0.051      349.600       30.144      861.726
07/24/2013  20:05:00     -377.940      -45.525      -14.409      195.707      106.731       72.063    38301.287    11391.427     5193.082        9.999        2.744      380.672      100.214        0.069      349.557       30.068      861.750
07/24/2013  20:06:00     -161.459      -86.370        0.210      104.161       93.068       55.426    10849.457     8661.723     3072.007        2.805        1.129      183.109       54.249        0.088      349.556       30.070      861.740
07/24/2013  20:07:00     -161.880      -77.598       16.350      130.691      136.012       74.415    17080.155    18499.389     5537.583        3.680        2.056      179.518       83.295        0.215      349.531       30.025      861.743
07/24/2013  20:08:00     -286.178     -154.963       -4.870      159.652      100.400       68.888    25488.705    10080.192     4745.592        7.312        2.016      325.440       78.563        0.058      349.528       30.020      861.759
07/24/2013  20:09:00     -194.587      -75.171      -11.899      114.969      143.707       65.634    13217.760    20651.579     4307.787        4.091        1.909      208.602       59.653        0.082      349.502       29.974      861.783
07/24/2013  20:10:00     -210.135     -174.695        4.053      193.894      153.833       73.394    37594.710    23664.667     5386.652        7.066        3.332      273.267       79.928        0.086      349.502       29.975      861.788
07/24/2013  20:11:00     -262.204     -146.034        9.100      144.055      111.734       67.965    20751.752    12484.582     4619.203        6.400        1.893      300.127       76.647        0.065      349.494       29.958      861.790
07/24/2013  20:12:00     -259.432      -40.549      -13.975      107.680       86.435       53.636    11594.940     7470.943     2876.770        4.554        1.097      262.582       47.555        0.033      349.494       29.960      861.820
07/24/2013  20:13:00     -187.945      -80.053       14.274      216.787      101.555       72.811    46996.514    10313.371     5301.489        5.226        3.131      204.284       93.403        0.209      349.455       29.891      861.820
07/24/2013  20:14:00     -387.313     -164.810      -28.283      125.749      103.380       63.576    15812.811    10687.364     4041.861       10.425        1.527      420.920       50.309        0.014      349.454       29.888      861.829
07/24/2013  20:15:00     -161.305     -127.857       10.379      140.019      102.710       71.775    19605.407    10549.389     5151.583        3.888        1.765      205.832       84.241        0.168      349.422       29.835      861.843
07/24/2013  20:16:00     -130.758      -98.840        8.015      121.268       84.776       71.670    14705.828     7186.923     5136.589        2.697        1.351      163.911       59.402        0.131      349.410       29.815      861.848
07/24/2013  20:17:00     -161.696      -91.433        6.796      158.694      116.830       64.174    25183.648    13649.160     4118.314        3.874        2.148      185.757       76.547        0.170      349.384       29.768      861.862
07/24/2013  20:18:00     -217.100     -123.788       12.426      155.287      134.723       86.336    24114.041    18150.176     7453.895        5.615        2.486      249.912       79.903        0.102      349.355       29.717      861.876
07/24/2013  20:19:00     -310.524     -131.014      -14.536      159.331      114.981       70.921    25386.325    13220.741     5029.795        7.871        2.182      337.031       55.116        0.027      349.352       29.711      861.885
07/24/2013  20:20:00     -229.619     -120.764        1.042      125.561      107.639       64.111    15765.639    11586.192     4110.183        4.938        1.573      259.440       54.311        0.044      349.332       29.679      861.904
07/24/2013  20:21:00     -261.359     -136.716       11.485      173.719      132.774       88.666    30178.377    17628.890     7861.693        7.139        2.783      294.957      101.437        0.118      349.307       29.635      861.910
07/24/2013  20:22:00     -242.667     -163.051        2.851      170.008      139.849       86.341    28902.704    19557.826     7454.766        7.069        2.796      292.357      106.163        0.132      349.317       29.653      861.933
07/24/2013  20:23:00     -282.770     -111.900       -5.052      170.253      112.218       65.802    28986.139    12592.803     4329.869        6.920        2.295      304.106       79.615        0.069      349.295       29.614      861.944
07/24/2013  20:24:00     -237.742      -25.260        2.895      131.650      119.689       66.661    17331.773    14325.480     4443.633        4.663        1.805      239.080       65.378        0.075      349.273       29.577      861.956
07/24/2013  20:25:00     -307.665      -82.432       -8.419      165.510      126.432       67.943    27393.643    15985.087     4616.193        7.475        2.400      318.517       76.685        0.058      349.261       29.555      861.964
07/24/2013  20:26:00     -197.697      -57.558        0.920      130.204       92.484       62.957    16953.095     8553.280     3963.540        3.593        1.473      205.905       69.993        0.116      349.231       29.506      861.975
07/24/2013  20:27:00     -393.663      -60.289      -22.222      149.741      110.832       68.959    22422.389    12283.624     4755.286        9.927        1.973      398.253       72.045        0.033      349.222       29.488      861.995
07/24/2013  20:28:00     -223.135     -120.326       12.268      169.025      117.906       77.933    28569.583    13901.762     6073.608        5.647        2.427      253.511       81.355        0.103      349.190       29.435      861.982
07/24/2013  20:29:00     -206.179      -63.984       -4.395      150.510       95.259       66.399    22653.309     9074.246     4408.841        4.137        1.807      215.879       73.641        0.116      349.193       29.439      862.015
07/24/2013  20:30:00     -359.365      -91.028       -7.801      145.639      123.795       71.422    21210.847    15325.167     5101.096        8.956        2.082      370.715       80.527        0.047      349.196       29.443      862.006
07/24/2013  20:31:00     -321.809     -182.979       -5.632      212.371      139.950       75.291    45101.240    19586.041     5668.809       10.370        3.518      370.192       97.334        0.069      349.196       29.442      861.999
07/24/2013  20:32:00     -304.004     -161.706      -10.133      214.199      194.052       83.843    45881.260    37656.192     7029.647       10.460        4.528      344.336       93.574        0.074      349.157       29.374      862.002
07/24/2013  20:33:00     -281.306      -93.765       11.279      186.663      144.984       74.265    34842.906    21020.275     5515.283        7.470        3.069      296.521       95.632        0.104      349.144       29.354      861.997
07/24/2013  20:34:00     -560.200      -97.491      -22.846      182.999      154.055       93.419    33488.547    23732.851     8727.072       19.489        3.297      568.620       90.445        0.025      349.168       29.395      862.008
07/24/2013  20:35:00     -211.657      -87.245        7.537      164.471      136.148       70.763    27050.873    18536.189     5007.382        5.152        2.530      228.933       76.732        0.112      349.101       29.278      862.032
07/24/2013  20:36:00     -299.733      -84.661      -13.079      121.876      131.458       60.697    14853.879    17281.198     3684.108        6.649        1.791      311.460       57.352        0.034      349.118       29.306      862.043
07/24/2013  20:37:00     -446.059     -114.418      -29.687      213.801      128.889       80.401    45710.676    16612.488     6464.300       14.085        3.439      460.500       89.513        0.038      349.129       29.325      862.040
07/24/2013  20:38:00     -197.449      -32.249       26.463      201.349      151.433       83.179    40541.530    22932.064     6918.790        5.555        3.520      200.065       98.594        0.243      349.064       29.215      862.025
07/24/2013  20:39:00     -377.925     -108.592        9.066      244.459      153.449       96.728    59760.053    23546.520     9356.337       12.366        4.633      393.217      122.834        0.098      349.067       29.220      862.022
07/24/2013  20:40:00     -330.100      -15.420       -3.726      170.742      126.644       74.976    29152.890    16038.626     5621.431        8.001        2.541      330.460       82.929        0.063      349.074       29.230      862.036
07/24/2013  20:41:00     -275.979      -72.844       11.631      170.806      120.987       83.906    29174.598    14637.884     7040.234        6.622        2.543      285.430       81.656        0.082      349.055       29.199      862.032
07/24/2013  20:42:00     -387.541     -111.762       -7.757      141.903      137.012       71.121    20136.484    18772.203     5058.195       10.334        2.198      403.334       75.572        0.035      349.061       29.209      862.048
07/24/2013  20:43:00     -318.558      -47.406       -8.959      210.882      135.776       87.390    44471.055    18435.136     7636.997        8.716        3.527      322.066      112.088        0.121      349.023       29.143      862.029
07/24/2013  20:44:00     -276.984      -89.267       -6.778      164.772      132.910       67.028    27149.882    17665.147     4492.748        6.701        2.465      291.013       73.808        0.064      349.034       29.164      862.044
07/24/2013  20:45:00     -344.124      -82.447      -17.434      206.799      166.457       82.185    42765.904    27707.880     6754.430       10.136        3.861      353.862       97.690        0.076      349.035       29.163      862.056
07/24/2013  20:46:00     -314.580      -90.349      -18.166      184.579      166.124       81.800    34069.405    27597.265     6691.319        8.789        3.418      327.298       93.262        0.081      348.997       29.097      862.068
07/24/2013  20:47:00     -279.820      -42.296      -21.251      129.574      131.901       60.955    16789.436    17397.991     3715.463        5.921        1.895      282.999       63.059        0.050      349.008       29.117      862.085
07/24/2013  20:48:00     -285.831     -152.495      -14.102      147.639      124.370       59.568    21797.362    15467.944     3548.340        7.298        2.041      323.966       61.117        0.036      348.992       29.089      862.077
07/24/2013  20:49:00     -248.154      -41.636        5.829      167.532      102.557       67.641    28066.823    10517.996     4575.314        5.325        2.158      251.623       89.341        0.126      348.906       28.942      862.087
07/24/2013  20:50:00     -276.091     -106.189       -7.947      122.299      114.835       59.881    14957.063    13187.152     3585.723        5.964        1.586      295.808       67.106        0.051      348.925       28.972      862.092
07/24/2013  20:51:00     -182.655      -62.309       21.976      150.070      131.762       83.209    22521.133    17361.170     6923.798        4.226        2.340      192.990       97.343        0.254      348.928       28.980      862.093
07/24/2013  20:52:00     -179.138      -28.616       17.200      219.768      115.971       89.912    48297.870    13449.380     8084.216        5.150        3.492      181.409       91.239        0.253      348.900       28.931      862.089
07/24/2013  20:53:00     -249.812      -90.262        1.778      179.364      110.184       81.700    32171.391    12140.623     6674.940        6.076        2.549      265.618       88.814        0.112      348.904       28.938      862.113
07/24/2013  20:54:00     -206.586      -84.933        2.366      155.876       93.567       67.235    24297.192     8754.739     4520.543        4.373        1.879      223.363       81.380        0.133      348.892       28.917      862.112
07/24/2013  20:55:00     -430.357      -17.444      -22.260      147.694      156.917       65.235    21813.664    24623.064     4255.622       11.834        2.535      430.710       72.371        0.028      348.910       28.948      862.123
07/24/2013  20:56:00     -409.016     -113.611      -16.901      140.518      123.101       69.738    19745.334    15153.778     4863.429       11.012        1.988      424.502       67.374        0.025      348.884       28.903      862.125
07/24/2013  20:57:00     -118.757      -88.979        8.441      127.635      116.034       63.571    16290.767    13463.870     4041.292        2.794        1.690      148.393       47.558        0.103      348.843       28.833      862.133
07/24/2013  20:58:00     -204.853      -27.616        2.541      134.325       84.881       52.561    18043.311     7204.742     2762.683        3.537        1.401      206.706       63.009        0.093      348.819       28.789      862.147
07/24/2013  20:59:00     -344.383      -62.432      -17.985      167.149      135.243       70.526    27938.636    18290.667     4973.914        8.700        2.560      349.997       78.725        0.051      348.828       28.804      862.157
07/24/2013  21:00:00     -361.435      -94.978      -18.366      136.269      132.277       69.531    18569.361    17497.127     4834.510        9.044        2.045      373.706       68.798        0.034      348.828       28.805      862.158
07/24/2013  21:01:00     -354.431      -49.553      -28.152      134.359       98.556       68.906    18052.422     9713.341     4748.100        8.069        1.626      357.879       43.451        0.015      348.811       28.776      862.173
07/24/2013  21:02:00     -371.559      -13.515      -10.331      163.927      163.589       79.510    26871.982    26761.391     6321.874        9.914        2.998      371.805       81.023        0.047      348.771       28.708      862.185
07/24/2013  21:03:00     -288.895     -105.518      -10.506      118.696      143.974       65.613    14088.797    20728.628     4305.112        6.691        1.956      307.562       64.671        0.044      348.779       28.719      862.191
07/24/2013  21:04:00     -237.898      -65.239       -3.734      110.095      102.052       59.925    12120.846    10414.571     3591.018        4.349        1.306      246.681       58.317        0.056      348.758       28.684      862.208
07/24/2013  21:05:00     -334.464      -79.456      -10.625      119.305       85.391       55.538    14233.578     7291.590     3084.507        7.145        1.230      343.772       62.823        0.033      348.753       28.676      862.214
07/24/2013  21:06:00     -409.073     -139.372      -20.966      113.109      117.096       68.317    12793.683    13711.487     4667.201       10.918        1.559      432.163       57.042        0.017      348.753       28.676      862.230
07/24/2013  21:07:00     -341.985      -80.561       -9.984      143.869       85.781       64.921    20698.291     7358.392     4214.759        7.790        1.614      351.346       81.078        0.053      348.737       28.650      862.247
07/24/2013  21:08:00     -263.540      -87.085       -6.872      118.194      101.777       65.218    13969.781    10358.617     4253.371        5.283        1.429      277.556       66.446        0.057      348.711       28.604      862.255
07/24/2013  21:09:00     -317.005      -65.526      -10.745      138.827       78.134       57.035    19272.835     6104.972     3253.015        6.676        1.432      323.706       70.844        0.048      348.713       28.606      862.266
07/24/2013  21:10:00     -280.188      -95.886      -10.828      138.298      129.896       63.911    19126.299    16872.950     4084.586        6.394        2.004      296.141       69.220        0.055      348.674       28.539      862.268
07/24/2013  21:11:00     -266.602      -82.649        6.646      136.649      131.078       67.987    18672.952    17181.513     4622.221        5.921        2.024      279.120       69.272        0.062      348.646       28.491      862.284
07/24/2013  21:12:00     -302.589      -36.728      -22.823      102.312      102.029       57.710    10467.703    10409.951     3330.498        5.881        1.210      304.810       44.553        0.021      348.659       28.514      862.291
07/24/2013  21:13:00     -342.273      -55.170       -6.568      139.527      122.508       61.851    19467.674    15008.133     3825.534        7.926        1.915      346.691       63.013        0.033      348.637       28.476      862.294
07/24/2013  21:14:00     -404.992      -95.274      -16.868      149.118      112.245       65.361    22236.238    12598.982     4272.042       10.624        1.955      416.048       69.516        0.028      348.627       28.458      862.314
07/24/2013  21:15:00     -358.304      -74.718       -8.198      158.515      114.996       66.750    25127.098    13224.175     4455.522        8.841        2.140      366.011       77.903        0.045      348.623       28.451      862.342
07/24/2013  21:16:00     -359.391     -104.017      -23.615      130.396      109.688       61.462    17003.183    12031.368     3777.582        8.667        1.641      374.141       54.696        0.021      348.618       28.442      862.351
07/24/2013  21:17:00     -252.327       -2.474       -2.669      117.008      109.433       61.090    13690.757    11975.494     3732.003        4.653        1.470      252.339       56.324        0.050      348.588       28.390      862.377
07/24/2013  21:18:00     -394.095      -64.762      -27.613      130.117      113.695       71.003    16930.386    12926.563     5041.453        9.758        1.745      399.381       69.171        0.030      348.626       28.456      862.387
07/24/2013  21:19:00     -264.874      -32.554      -21.662       84.393       69.001       47.284     7122.229     4761.080     2235.770        4.290        0.706      266.867       42.698        0.026      348.607       28.423      862.377
07/24/2013  21:20:00     -262.079     -107.894       -0.767       84.753       74.106       42.820     7183.040     5491.641     1833.514        4.741        0.725      283.419       33.950        0.014      348.568       28.354      862.378
07/24/2013  21:21:00     -353.246     -118.356        0.479      186.628      124.209       79.025    34829.912    15427.989     6244.992        9.764        2.825      372.547       92.987        0.062      348.574       28.365      862.392
07/24/2013  21:22:00     -419.879     -112.432      -31.093      109.771       89.758       48.972    12049.631     8056.549     2398.272       10.620        1.125      434.672       47.586        0.012      348.601       28.411      862.386
07/24/2013  21:23:00     -286.474      -88.964       -7.544      104.589      107.813       52.592    10938.889    11623.605     2765.898        5.768        1.266      299.970       46.454        0.024      348.531       28.290      862.379
07/24/2013  21:24:00     -283.106      -52.942       -8.515      115.733      123.415       52.812    13394.216    15231.159     2789.071        5.721        1.571      288.013       62.264        0.047      348.532       28.293      862.398
07/24/2013  21:25:00     -327.796      -45.693      -20.449      101.686       94.033       48.467    10340.086     8842.157     2349.088        6.574        1.077      330.965       41.064        0.015      348.508       28.250      862.411
07/24/2013  21:26:00     -386.010      -85.559      -23.495      154.192      117.886       61.699    23775.269    13897.204     3806.824        9.917        2.074      395.378       71.596        0.033      348.571       28.361      862.406
07/24/2013  21:27:00     -387.975     -108.389        5.226      134.729      126.527       68.306    18151.796    16009.154     4665.644       10.056        1.941      402.831       60.492        0.023      348.570       28.358      862.420
07/24/2013  21:28:00     -334.423      -68.349      -12.178      145.462      145.182       55.124    21159.154    21077.793     3038.656        8.096        2.264      341.337       63.563        0.035      348.531       28.292      862.444
07/24/2013  21:29:00     -377.196      -74.374      -20.434      147.343       99.446       54.798    21710.010     9889.455     3002.865        9.141        1.730      384.458       66.444        0.030      348.519       28.271      862.459
07/24/2013  21:30:00     -265.597      -38.311      -11.626      127.434       97.569       53.927    16239.336     9519.789     2908.116        5.040        1.433      268.346       54.368        0.041      348.518       28.269      862.461
07/24/2013  21:31:00     -261.613       -9.566       -8.611      119.444       95.284       55.546    14266.986     9079.056     3085.374        4.751        1.322      261.788       55.741        0.045      348.497       28.233      862.461
07/24/2013  21:32:00     -346.804        4.634      -27.247      109.199      111.270       55.679    11924.325    12381.083     3100.144        7.422        1.370      346.835       46.714        0.018      348.468       28.183      862.463
07/24/2013  21:33:00     -307.870      -61.194       -6.173      137.478       89.828       63.661    18900.171     8069.004     4052.771        6.479        1.551      313.892       66.009        0.044      348.418       28.097      862.494
07/24/2013  21:34:00     -309.133      -17.229      -15.345      151.071       97.986       59.056    22822.315     9601.304     3487.624        6.600        1.796      309.613       70.889        0.052      348.451       28.154      862.527
07/24/2013  21:35:00     -347.329     -113.117      -11.505      128.555       95.653       57.836    16526.427     9149.413     3344.976        8.129        1.451      365.285       62.353        0.029      348.440       28.135      862.535
07/24/2013  21:36:00     -322.577      -61.546       -9.204      103.507       79.008       50.818    10713.784     6242.266     2582.447        6.373        0.977      328.396       48.605        0.022      348.448       28.149      862.543
07/24/2013  21:37:00     -228.397      -61.891        1.863       80.996       89.088       45.417     6560.387     7936.630     2062.697        3.628        0.828      236.634       44.553        0.035      348.422       28.103      862.558
07/24/2013  21:38:00     -189.595      -59.207       -4.332       85.379      100.444       47.592     7289.601    10089.001     2265.028        2.955        0.982      198.625       42.312        0.045      348.374       28.021      862.567
07/24/2013  21:39:00     -418.321      -52.436      -33.612      104.084      105.718       52.978    10833.569    11176.242     2806.655       10.184        1.241      421.594       48.194        0.013      348.405       28.075      862.570
07/24/2013  21:40:00     -290.736      -45.532      -13.906      139.859      100.882       60.880    19560.610    10177.209     3706.375        6.011        1.672      294.280       73.016        0.062      348.359       27.993      862.599
07/24/2013  21:41:00     -270.684      -64.330        1.593      118.413       98.699       56.934    14021.751     9741.406     3241.490        5.220        1.350      278.223       59.146        0.045      348.328       27.940      862.624
07/24/2013  21:42:00     -274.963      -75.174       -2.969      122.957       99.981       52.396    15118.395     9996.144     2745.367        5.456        1.393      285.054       55.886        0.038      348.349       27.976      862.630
07/24/2013  21:43:00     -381.001      -92.035      -23.855      157.001      108.954       70.256    24649.234    11870.937     4935.972        9.782        2.073      391.959       70.329        0.032      348.415       28.091      862.620
07/24/2013  21:44:00     -409.663      -99.151      -29.506      131.050       97.603       61.861    17173.994     9526.390     3826.819       10.452        1.526      421.491       49.555        0.014      348.381       28.032      862.650
07/24/2013  21:45:00     -244.752      -23.298        2.272      122.545       88.411       59.854    15017.388     7816.576     3582.477        4.343        1.321      245.858       64.236        0.068      348.367       28.009      862.658
07/24/2013  21:46:00     -290.287      -68.978      -17.342      114.503       77.635       47.823    13110.967     6027.238     2287.059        5.537        1.071      298.370       54.250        0.033      348.395       28.054      862.640
07/24/2013  21:47:00     -264.077     -121.273       -1.008       83.379       67.782       46.020     6952.100     4594.394     2117.822        4.905        0.683      290.592       46.350        0.025      348.343       27.964      862.652
07/24/2013  21:48:00     -305.716      -90.873      -10.212      127.399      139.495       65.015    16230.563    19458.876     4226.960        7.086        1.996      318.936       64.655        0.041      348.350       27.977      862.644
07/24/2013  21:49:00     -240.177      -48.050       -7.860      194.464       74.914       56.641    37816.386     5612.047     3208.172        5.334        2.332      244.936       69.548        0.081      348.346       27.972      862.653
07/24/2013  21:50:00     -373.129      -43.970      -22.841      128.702      116.826       55.937    16564.104    13648.215     3128.969        8.750        1.667      375.711       52.967        0.020      348.335       27.951      862.681
07/24/2013  21:51:00     -220.305      -69.693       -1.625      115.316       89.594       55.167    13297.884     8027.020     3043.346        3.888        1.218      231.065       60.172        0.068      348.299       27.890      862.697
07/24/2013  21:52:00     -272.222     -100.126      -16.246       96.485       91.955       48.856     9309.385     8455.731     2386.865        5.227        1.008      290.052       50.507        0.030      348.303       27.896      862.701
07/24/2013  21:53:00     -213.307      -31.928       -6.933      111.402       86.872       54.716    12410.340     7546.692     2993.790        3.475        1.148      215.683       61.355        0.081      348.270       27.838      862.727
07/24/2013  21:54:00     -404.864      -59.883      -27.166      131.988       93.658       63.024    17420.929     8771.795     3972.073        9.920        1.508      409.269       63.198        0.024      348.308       27.904      862.719
07/24/2013  21:55:00     -267.944     -114.525        1.004      127.140       85.220       52.136    16164.484     7262.455     2718.127        5.552        1.307      291.394       55.337        0.036      348.265       27.831      862.722
07/24/2013  21:56:00     -322.476      -47.224      -11.658      122.455       84.676       58.360    14995.215     7170.082     3405.854        6.596        1.279      325.915       63.823        0.038      348.272       27.843      862.721
07/24/2013  21:57:00     -315.475      -54.263      -12.740       90.955       83.642       50.464     8272.769     6996.059     2546.567        6.022        0.891      320.108       45.240        0.020      348.276       27.848      862.742
07/24/2013  21:58:00     -257.405      -34.157      -13.637      108.439      123.701       54.037    11759.095    15302.038     2920.008        4.879        1.499      259.662       39.271        0.023      348.250       27.804      862.742
07/24/2013  21:59:00     -210.396      -55.045       -0.352      127.502       94.240       53.765    16256.669     8881.113     2890.720        3.766        1.401      217.477       62.319        0.082      348.227       27.766      862.734
07/24/2013  22:00:00     -218.753       -5.255       -1.957      149.388      106.193       60.640    22316.672    11276.914     3677.213        4.257        1.864      218.816       69.225        0.100      348.223       27.757      862.731
07/24/2013  22:01:00     -396.100      -88.237      -28.185      125.982       85.320       58.362    15871.566     7279.468     3406.173        9.601        1.328      405.809       56.023        0.019      348.280       27.856      862.747
07/24/2013  22:02:00     -264.149      -70.186        0.721      128.077      121.410       71.431    16403.606    14740.403     5102.421        5.547        1.812      273.315       67.306        0.061      348.226       27.764      862.738
07/24/2013  22:03:00     -269.665      -47.536        5.400      171.931       70.630       48.833    29560.218     4988.599     2384.620        5.596        1.847      273.823       67.537        0.061      348.207       27.731      862.731
07/24/2013  22:04:00     -264.237      -58.419       -0.875      125.534      103.335       65.512    15758.816    10678.159     4291.798        5.198        1.536      270.617       71.227        0.069      348.222       27.756      862.715
07/24/2013  22:05:00     -347.674     -110.295      -17.827      124.023       99.935       53.728    15381.632     9987.020     2886.694        8.080        1.413      364.750       56.267        0.024      348.264       27.830      862.698
07/24/2013  22:06:00     -146.902      -31.329        0.833      109.508       83.274       50.717    11992.061     6934.574     2572.206        2.203        1.075      150.205       47.971        0.102      348.165       27.659      862.696
07/24/2013  22:07:00     -282.711     -112.866      -19.578      121.670       99.229       65.424    14803.678     9846.426     4280.260        6.098        1.447      304.408       78.240        0.066      348.186       27.695      862.690
07/24/2013  22:08:00     -271.101      -46.536       -7.184      100.392       90.808       50.177    10078.503     8246.033     2517.688        4.827        1.042      275.066       52.302        0.036      348.179       27.681      862.683
07/24/2013  22:09:00     -245.569      -34.234       -8.095       90.182       87.451       46.803     8132.846     7647.730     2190.502        3.975        0.899      247.944       40.430        0.027      348.188       27.698      862.675
07/24/2013  22:10:00     -314.930      -75.926      -12.809      125.179      106.918       59.473    15669.673    11431.539     3537.047        6.787        1.532      323.953       60.758        0.035      348.202       27.723      862.685
07/24/2013  22:11:00     -268.322      -54.581       -8.608      127.085      112.058       59.109    16150.651    12557.029     3493.909        5.362        1.610      273.817       72.269        0.070      348.206       27.731      862.671
07/24/2013  22:12:00     -298.037      -84.498       -9.675      114.898       77.362       53.465    13201.652     5984.949     2858.547        5.905        1.102      309.783       47.029        0.023      348.204       27.727      862.674
07/24/2013  22:13:00     -232.168      -42.479       -0.496      112.631      104.118       58.553    12685.811    10840.569     3428.398        4.133        1.348      236.022       60.174        0.065      348.172       27.671      862.689
07/24/2013  22:14:00     -238.081      -29.447      -23.184       85.440       89.392       55.070     7300.036     7990.984     3032.757        3.820        0.916      239.895       52.341        0.048      348.122       27.585      862.693
07/24/2013  22:15:00     -262.807      -54.055      -11.928      101.254       74.292       44.589    10252.453     5519.228     1988.192        4.494        0.888      268.308       51.747        0.037      348.152       27.637      862.677
07/24/2013  22:16:00     -267.090      -78.098       -2.179      158.707       82.846       59.585    25187.763     6863.383     3550.320        5.651        1.780      278.274       74.359        0.071      348.158       27.646      862.669
07/24/2013  22:17:00     -302.580      -81.125       -6.506      142.066       93.826       59.723    20182.739     8803.369     3566.837        6.536        1.628      313.267       71.557        0.052      348.095       27.539      862.684
07/24/2013  22:18:00     -398.947     -134.861       -9.771      173.386      128.858       75.065    30062.868    16604.430     5634.763       11.486        2.615      421.124       83.912        0.040      348.139       27.614      862.689
07/24/2013  22:19:00     -450.532     -120.840      -12.733      184.193      126.797       74.663    33926.896    16077.386     5574.626       13.665        2.779      466.456       70.172        0.023      348.165       27.658      862.681
07/24/2013  22:20:00     -181.175      -66.911       12.980      143.056      122.749       72.572    20465.104    15067.259     5266.765        3.913        2.040      193.136       75.233        0.152      348.104       27.554      862.668
07/24/2013  22:21:00     -301.090      -44.511      -15.666      124.867       94.811       65.693    15591.734     8989.046     4315.511        6.088        1.445      304.363       72.758        0.057      348.122       27.586      862.684
07/24/2013  22:22:00     -311.736     -102.146        1.874      139.005      111.955       60.439    19322.441    12533.851     3652.840        7.156        1.775      328.045       58.023        0.031      348.086       27.521      862.672
07/24/2013  22:23:00     -264.636      -11.771      -25.813      117.152      116.057       55.303    13724.705    13469.122     3058.367        5.054        1.513      264.898       48.419        0.033      348.097       27.542      862.666
07/24/2013  22:24:00     -360.039      -12.998      -13.664      117.917      123.949       55.478    13904.521    15363.239     3077.792        8.116        1.617      360.273       53.369        0.022      348.104       27.552      862.686
07/24/2013  22:25:00     -241.355      -63.317        6.800      136.200       90.284       52.731    18550.436     8151.161     2780.528        4.589        1.474      249.522       58.100        0.054      348.108       27.562      862.683
07/24/2013  22:26:00     -437.298      -26.803      -39.644      131.190      113.180       62.314    17210.757    12809.684     3883.074       11.370        1.695      438.119       67.313        0.024      348.128       27.594      862.685
07/24/2013  22:27:00     -260.186      -71.764       -2.758      122.135       94.950       46.705    14917.034     9015.518     2181.369        4.948        1.306      269.902       46.756        0.030      348.095       27.536      862.683
07/24/2013  22:28:00     -280.843      -87.589       -7.473      121.911      100.866       58.559    14862.340    10173.958     3429.106        5.753        1.423      294.184       59.729        0.041      348.042       27.445      862.681
07/24/2013  22:29:00     -235.728       -0.215      -25.776      107.335       77.268       49.609    11520.894     5970.346     2461.087        3.809        0.998      235.728       44.773        0.036      348.038       27.440      862.674
07/24/2013  22:30:00     -221.234      -35.774      -11.014      120.303       90.275       51.273    14472.911     8149.665     2628.901        3.779        1.263      224.108       50.185        0.050      348.044       27.450      862.668
07/24/2013  22:31:00     -304.067      -92.914       -6.691      113.533      106.524       59.754    12889.691    11347.339     3570.568        6.447        1.390      317.946       63.876        0.040      348.056       27.468      862.678
07/24/2013  22:32:00     -313.902     -116.938       -4.020      148.912      117.430       64.128    22174.704    13789.841     4112.423        7.614        2.004      334.976       69.733        0.043      348.034       27.432      862.690
07/24/2013  22:33:00     -333.496      -92.627      -27.789      110.786      114.025       58.275    12273.500    13001.747     3395.989        7.462        1.434      346.121       56.575        0.027      348.077       27.506      862.688
07/24/2013  22:34:00     -334.523      -19.975      -20.014       95.428       81.937       47.348     9106.548     6713.605     2241.877        6.538        0.903      335.119       46.314        0.019      348.084       27.517      862.692
07/24/2013  22:35:00     -241.666        9.218       -1.751      104.949       79.857       45.805    11014.209     6377.157     2098.075        3.899        0.974      241.842       51.519        0.045      348.053       27.465      862.690
07/24/2013  22:36:00     -301.618        7.467      -14.970      108.497       75.497       53.696    11771.680     5699.767     2883.310        5.580        1.018      301.711       57.145        0.036      348.036       27.434      862.719
07/24/2013  22:37:00     -292.846      -66.326       -6.802      148.094       80.933       51.324    21931.899     6550.141     2634.170        6.065        1.556      300.263       57.586        0.037      348.028       27.423      862.718
07/24/2013  22:38:00     -197.946      -38.027       -4.661       96.872       99.190       46.969     9384.210     9838.744     2206.107        3.104        1.071      201.566       38.969        0.037      348.045       27.452      862.724
07/24/2013  22:39:00     -207.602      -16.173       -4.237       95.551       67.035       46.402     9129.944     4493.745     2153.128        2.957        0.789      208.231       46.095        0.049      348.018       27.405      862.719
07/24/2013  22:40:00     -221.501      -33.461       -2.079      105.955       93.827       46.467    11226.374     8803.586     2159.169        3.618        1.109      224.014       49.023        0.048      348.024       27.414      862.740
07/24/2013  22:41:00     -228.918        3.905       -5.454      117.571       97.897       46.469    13822.892     9583.739     2159.369        3.900        1.278      228.951       56.610        0.061      348.055       27.468      862.743
07/24/2013  22:42:00     -237.531      -93.201      -15.609       78.568       76.331       39.264     6172.915     5826.367     1541.662        3.944        0.677      255.161       34.391        0.018      348.028       27.420      862.743
07/24/2013  22:43:00     -225.107      -79.316       -7.893       99.382       97.319       49.430     9876.772     9470.891     2443.288        3.940        1.090      238.672       52.299        0.048      347.996       27.367      862.752
07/24/2013  22:44:00     -276.828      -34.722      -12.593       78.302      114.071       50.302     6131.221    13012.094     2530.277        4.983        1.084      278.997       33.763        0.015      348.003       27.379      862.765
07/24/2013  22:45:00     -254.186      -60.900       -8.219      111.463       75.755       51.157    12423.895     5738.790     2617.072        4.458        1.039      261.379       53.423        0.042      347.997       27.370      862.766
07/24/2013  22:46:00     -283.883      -19.778      -19.397      110.987      106.183       37.751    12318.187    11274.873     1425.151        5.318        1.251      284.571       45.521        0.026      347.985       27.348      862.760
07/24/2013  22:47:00     -138.010      -38.103      -11.488       78.573       74.197       46.646     6173.695     5505.185     2175.846        1.724        0.693      143.174       40.741        0.081      347.968       27.319      862.752
07/24/2013  22:48:00     -190.311      -43.756      -11.781       73.810       51.135       36.154     5447.923     2614.745     1307.131        2.382        0.468      195.277       35.503        0.033      347.956       27.298      862.753
07/24/2013  22:49:00     -146.703      -51.516       -8.057      110.641       50.168       42.900    12241.496     2516.831     1840.423        2.042        0.830      155.486       43.820        0.079      347.933       27.259      862.766
07/24/2013  22:50:00     -151.878      -26.391      -15.097       75.145       83.472       49.009     5646.833     6967.521     2401.919        1.950        0.751      154.153       29.571        0.037      347.902       27.206      862.768
07/24/2013  22:51:00     -193.326      -90.971      -15.166      108.496       78.245       42.974    11771.396     6122.315     1846.727        3.281        0.987      213.660       41.941        0.039      347.956       27.298      862.750
07/24/2013  22:52:00     -212.748      -28.049       -5.282       83.603       93.505       47.461     6989.443     8743.104     2252.581        3.203        0.899      214.589       36.620        0.029      347.944       27.276      862.752
07/24/2013  22:53:00     -223.434       14.032      -16.936       70.876       56.134       32.831     5023.411     3151.038     1077.890        2.983        0.463      223.874       33.486        0.022      347.923       27.239      862.758
07/24/2013  22:54:00     -179.808      -74.926        2.871       93.640       91.776       47.215     8768.454     8422.779     2229.236        2.868        0.971      194.794       27.324        0.020      347.940       27.271      862.764
07/24/2013  22:55:00     -206.444      -34.733      -10.414      113.813       68.884       42.677    12953.361     4744.974     1821.354        3.172        0.976      209.345       50.466        0.058      347.937       27.265      862.756
07/24/2013  22:56:00     -215.899      -87.304      -12.618      131.075       97.781       51.036    17180.755     9561.182     2604.641        4.186        1.467      232.883       54.469        0.055      347.998       27.371      862.737
07/24/2013  22:57:00     -143.026      -41.797      -14.486       76.816       78.283       45.758     5900.742     6128.261     2093.801        1.827        0.706      149.008       39.214        0.069      347.947       27.284      862.744
07/24/2013  22:58:00     -206.162      -51.267       -4.021      115.488      112.369       49.360    13337.431    12626.851     2436.383        3.677        1.420      212.441       44.242        0.043      347.936       27.262      862.761
07/24/2013  22:59:00     -202.888      -29.780      -21.504      102.312       69.391       44.550    10467.668     4815.074     1984.664        2.989        0.863      205.062       46.184        0.051      347.942       27.275      862.760
07/24/2013  23:00:00     -183.178     -101.529       -7.984      128.975       71.557       45.891    16634.673     5120.407     2105.982        3.389        1.193      209.434       58.645        0.078      347.944       27.277      862.750
07/24/2013  23:01:00     -180.647      -63.023        6.906      128.533       87.214       50.967    16520.695     7606.225     2597.685        3.168        1.336      191.325       52.181        0.074      347.905       27.210      862.741
07/24/2013  23:02:00     -108.234      -32.650       12.934      116.646       57.651       45.218    13606.177     3323.683     2044.642        1.596        0.949      113.051       59.282        0.275      347.859       27.132      862.726
07/24/2013  23:03:00     -225.896      -80.070       -9.995       78.247       54.518       42.443     6122.561     2972.237     1801.405        3.422        0.545      239.667       44.788        0.035      347.927       27.248      862.723
07/24/2013  23:04:00     -139.641      -30.852       -7.218       85.338       66.204       36.507     7282.513     4382.974     1332.782        1.675        0.650      143.009       44.655        0.098      347.918       27.234      862.717
07/24/2013  23:05:00     -203.204      -58.552      -14.728       94.125       91.631       34.927     8859.586     8396.161     1219.910        3.170        0.924      211.472       36.590        0.030      347.984       27.346      862.721
07/24/2013  23:06:00     -184.469       19.013       -9.222       77.476       59.956       50.044     6002.514     3594.676     2504.411        2.329        0.605      185.446       42.812        0.053      347.964       27.311      862.711
07/24/2013  23:07:00     -216.299      -22.366      -14.373       73.175       85.189       39.507     5354.593     7257.208     1560.791        3.083        0.709      217.452       33.134        0.023      347.942       27.273      862.704
07/24/2013  23:08:00     -216.167     -179.874       -7.527      121.885      103.039       64.235    14855.867    10616.947     4126.132        5.436        1.480      281.217       57.829        0.042      348.047       27.453      862.700
07/24/2013  23:09:00     -286.188      -73.184      -24.653      149.025      108.413       59.866    22208.503    11753.407     3583.934        6.270        1.877      295.397       63.845        0.047      348.086       27.523      862.716
07/24/2013  23:10:00     -245.266      -63.845      -13.343      142.695       84.097       60.281    20361.768     7072.299     3633.845        4.773        1.553      253.440       67.054        0.070      348.024       27.415      862.729
07/24/2013  23:11:00     -158.029      -60.267       -5.992       79.302       84.286       50.560     6288.856     7104.152     2556.338        2.229        0.797      169.131       42.701        0.064      347.987       27.352      862.756
07/24/2013  23:12:00     -130.314      -27.673       -0.047       76.999       64.123       40.989     5928.812     4111.743     1680.061        1.473        0.586      133.220       39.891        0.090      347.931       27.257      862.777
07/24/2013  23:13:00      -91.170      -30.377       13.449       67.614       78.561       39.535     4571.620     6171.784     1563.039        1.086        0.615       96.098       41.594        0.187      347.965       27.314      862.787
07/24/2013  23:14:00      -12.981      -41.400       12.939       42.227       48.554       33.049     1783.126     2357.443     1092.220        0.364        0.262       43.387       34.825        0.644      347.931       27.258      862.771
07/24/2013  23:15:00     -103.984      -42.880        8.797      110.325       74.302       41.132    12171.525     5520.744     1691.812        1.605        0.969      112.479       50.464        0.201      347.899       27.201      862.756
07/24/2013  23:16:00     -101.275       -5.992        7.421       91.020       50.716       28.029     8284.602     2572.093      785.618        1.099        0.582      101.453       37.216        0.135      347.914       27.227      862.758
07/24/2013  23:17:00     -161.204      -90.403       -3.112      115.237       70.750       45.040    13279.532     5005.619     2028.621        2.724        1.016      184.822       41.615        0.051      347.966       27.317      862.775
07/24/2013  23:18:00      -80.140      -48.433       -1.159       49.069       67.937       33.377     2407.792     4615.461     1114.049        0.845        0.407       93.639       21.293        0.052      347.911       27.225      862.783
07/24/2013  23:19:00     -133.037       -3.164       -0.972      127.443       93.957       43.935    16241.797     8827.994     1930.264        2.235        1.350      133.074       61.694        0.215      347.900       27.202      862.787
07/24/2013  23:20:00     -170.886       10.246       -6.816       56.565       38.256       32.914     3199.571     1463.543     1083.362        1.755        0.287      171.192       35.505        0.043      347.986       27.353      862.785
07/24/2013  23:21:00     -119.392       10.182       -9.882       66.187       78.456       31.868     4380.701     6155.392     1015.577        1.300        0.578      119.825       28.710        0.057      347.973       27.329      862.800
07/24/2013  23:22:00     -120.384       -1.607      -10.132       49.892       62.238       28.891     2489.253     3873.557      834.693        1.090        0.360      120.395       18.326        0.023      347.993       27.363      862.812
07/24/2013  23:23:00     -191.637      -59.074        2.969       87.166       72.473       40.768     7597.842     5252.282     1662.010        2.736        0.726      200.536       45.918        0.052      347.947       27.281      862.821
07/24/2013  23:24:00     -122.453       81.549       -5.094       78.723       52.022       38.037     6197.354     2706.328     1446.813        1.601        0.518      147.122       45.451        0.095      347.901       27.204      862.835
07/24/2013  23:25:00       -3.880       72.591        2.773       55.380       48.473       23.908     3066.950     2349.615      571.587        0.564        0.299       72.695       22.731        0.098      347.792       27.016      862.844
07/24/2013  23:26:00       11.090       62.292       -5.975       41.514       49.088       29.106     1723.426     2409.610      847.168        0.451        0.249       63.272       29.455        0.217      347.721       26.894      862.874
07/24/2013  23:27:00       39.598       68.963       -9.171       30.618       44.146       24.996      937.452     1948.835      624.778        0.496        0.176       79.523       25.679        0.104      347.632       26.743      862.894
07/24/2013  23:28:00       39.209       45.323       -0.976       53.391       46.199       25.483     2850.578     2134.305      649.395        0.461        0.282       59.930       22.670        0.143      347.558       26.614      862.905
07/24/2013  23:29:00       49.029       20.962       13.775       33.693       24.818       16.532     1135.203      615.918      273.310        0.253        0.101       53.322       10.863        0.042      347.490       26.496      862.914
07/24/2013  23:30:00       78.732       36.321        1.885       14.923       18.345       15.951      222.691      336.537      254.441        0.417        0.041       86.706        9.586        0.012      347.482       26.484      862.911
07/24/2013  23:31:00       78.309       54.126       10.520       16.571       18.148       16.901      274.610      329.342      285.636        0.503        0.044       95.194        8.357        0.008      347.529       26.565      862.909
07/24/2013  23:32:00       32.747       76.498        0.156       38.367       35.020       22.398     1472.009     1226.405      501.668        0.506        0.160       83.213       18.774        0.051      347.604       26.695      862.909
07/24/2013  23:33:00       27.498       51.026        0.762       21.407       31.933       17.828      458.264     1019.687      317.846        0.258        0.090       57.963       13.737        0.056      347.693       26.850      862.915
07/24/2013  23:34:00       17.788       13.537        1.072       22.093       13.011       10.418      488.099      169.294      108.525        0.063        0.038       22.354       11.664        0.272      347.547       26.595      862.930
07/24/2013  23:35:00        9.331        8.768       -9.232       30.040       29.423       12.657      902.395      865.731      160.196        0.109        0.096       12.804       10.464        0.668      347.453       26.431      862.937
07/24/2013  23:36:00      -33.662       42.161      -11.185       21.456       15.277        6.812      460.339      233.382       46.406        0.189        0.037       53.951        6.393        0.014      347.663       26.797      862.948
07/24/2013  23:37:00      -50.765       77.078      -13.671       62.909       38.381       29.645     3957.496     1473.091      878.807        0.751        0.315       92.294       29.329        0.101      347.789       27.014      862.944
07/24/2013  23:38:00      -36.637      192.340      -25.807       50.513       55.040       29.039     2551.529     3029.442      843.280        2.271        0.321      195.799       27.085        0.019      347.753       26.950      862.942
07/24/2013  23:39:00      -47.586      184.457      -21.203       32.380       40.617       22.880     1048.450     1649.715      523.487        1.998        0.161      190.496       20.252        0.011      347.773       26.985      862.949
07/24/2013  23:40:00      -72.372       53.358      -11.006       34.639       34.082       17.761     1199.856     1161.580      315.458        0.544        0.134       89.916        8.460        0.009      347.570       26.635      862.959
07/24/2013  23:41:00      -64.184       46.977      -13.512       17.510       41.523       15.110      306.599     1724.201      228.317        0.438        0.113       79.538       17.959        0.051      347.609       26.703      862.958
07/24/2013  23:42:00       15.727      133.942        0.239       41.283       48.695       39.641     1704.322     2371.247     1571.382        1.192        0.282      134.862       31.420        0.054      347.699       26.857      862.956
07/24/2013  23:43:00      -61.819      159.741       -2.182       96.963       98.100       54.599     9401.899     9623.540     2981.098        2.567        1.100      171.286       46.353        0.073      347.716       26.883      862.946
07/24/2013  23:44:00      -30.552       48.584        1.299       54.546       55.534       28.016     2975.312     3084.063      784.887        0.507        0.342       57.392       16.082        0.079      347.756       26.957      862.943
07/24/2013  23:45:00      -66.861       -2.422      -10.800       34.211       25.678       17.215     1170.403      659.363      296.339        0.336        0.106       66.905       16.275        0.059      347.718       26.890      862.937
07/24/2013  23:46:00      -70.503       37.457      -11.798       30.317       38.371       15.557      919.132     1472.321      242.011        0.457        0.132       79.835       16.596        0.043      347.789       27.014      862.936
07/24/2013  23:47:00      -28.452       43.079       -2.770       21.275       25.697       19.914      452.628      660.347      396.565        0.209        0.075       51.627       17.686        0.117      347.743       26.935      862.938
07/24/2013  23:48:00      -91.886       22.942      -12.089       24.130       30.584       16.143      582.273      935.402      260.608        0.545        0.089       94.707       12.051        0.016      347.520       26.550      862.958
07/24/2013  23:49:00      -77.750       53.275      -17.321       20.227       32.376       14.978      409.124     1048.225      224.339        0.543        0.084       94.251       14.726        0.024      347.543       26.588      862.966
07/24/2013  23:50:00      -89.591       62.744      -18.859       26.390       26.739       17.237      696.415      714.986      297.104        0.701        0.085      109.377       17.420        0.025      347.533       26.571      862.964
07/24/2013  23:51:00      -75.452      113.604      -11.937       46.052       79.792       29.444     2120.782     6366.691      866.930        1.405        0.468      136.378       23.159        0.029      347.679       26.822      862.963
07/24/2013  23:52:00     -100.248       40.172      -15.325       38.685       47.421       24.475     1496.516     2248.735      599.046        0.812        0.217      107.998       13.000        0.014      347.662       26.795      862.958
07/24/2013  23:53:00     -132.233       76.356      -17.445       48.296       44.495       28.294     2332.532     1979.817      800.526        1.437        0.256      152.695       21.402        0.020      347.735       26.919      862.952
07/24/2013  23:54:00      -83.437       81.243      -17.179       34.636       44.524       22.327     1199.665     1982.359      498.474        0.877        0.184      116.456       24.832        0.045      347.854       27.127      862.950
07/24/2013  23:55:00      -47.212       31.333       -3.106       27.244       34.564       20.067      742.249     1194.654      402.702        0.278        0.117       56.663       11.951        0.044      347.690       26.842      862.940
07/24/2013  23:56:00      -24.435       16.658        3.963       34.564       31.596       24.081     1194.656      998.299      579.907        0.183        0.139       29.572       20.392        0.476      347.662       26.794      862.933
07/24/2013  23:57:00     -105.822       33.062      -12.288       65.410       32.701       27.397     4278.532     1069.386      750.612        0.927        0.305      110.866       29.922        0.073      347.721       26.895      862.934
07/24/2013  23:58:00      -95.479       28.510      -11.152       52.893       41.604       23.005     2797.623     1730.872      529.223        0.755        0.253       99.645       23.415        0.055      347.701       26.860      862.944
07/24/2013  23:59:00      -91.948       78.291      -21.935       41.576       43.169       25.910     1728.590     1863.564      671.349        0.966        0.213      120.763       20.002        0.027      347.597       26.681      862.940
